[[{"header":{"parameterUnit":"m.s-1","parameterCategory":1,"la1":30.6,"la2":29.2853,"lo1":-89.7004,"lo2":-87.6739,"dy":0.0162,"dx":0.0183,"nx":112,"ny":82,"refTime":"2026-05-15T12:00:00:Z","depth":0,"parameterNumber":2,"parameterNumberName":"U-component_of_WINDS"},"data":[0.0,0.0,0.0,0.0,0.0,0.0,0.0,0.0,0.0,0.0,0.0,0.0,0.0,0.0,0.0,0.0,0.0,0.0,0.0,0.0,0.0,0.0,0.0,0.0,0.0,0.0,0.0,0.0,0.0,0.0,0.0,0.0,0.0,0.0,0.0,0.0,0.0,0.0,0.0,0.0,0.0,0.0,0.0,0.0,0.0,0.0,0.0,0.0,0.0,0.0,0.0,0.0,0.0,0.0,0.0,0.0,0.0,0.0,0.0,0.0,0.0,0.0,0.0,0.0,0.0,0.0,0.0,0.0,0.0,0.0,0.0,0.0,0.0,0.0,0.0,0.0,0.0,0.0,0.0,0.0,0.0,0.0,0.0,0.0,0.0,0.0,0.0,0.0,0.0,0.0,-4.6459,-4.9454,-5.3425,-5.5172,-5.3436,-5.2663,-5.0396,-4.5962,0.0,0.0,0.0,0.0,0.0,0.0,0.0,0.0,0.0,0.0,0.0,0.0,0.0,0.0,0.0,0.0,0.0,0.0,0.0,0.0,0.0,0.0,0.0,0.0,0.0,0.0,0.0,0.0,0.0,0.0,0.0,0.0,0.0,0.0,0.0,0.0,0.0,0.0,0.0,0.0,0.0,0.0,0.0,0.0,0.0,0.0,0.0,0.0,0.0,0.0,0.0,0.0,0.0,0.0,0.0,0.0,0.0,0.0,0.0,0.0,0.0,0.0,0.0,0.0,0.0,0.0,0.0,0.0,0.0,0.0,0.0,0.0,0.0,0.0,0.0,0.0,0.0,0.0,0.0,0.0,0.0,0.0,0.0,0.0,0.0,0.0,0.0,0.0,0.0,0.0,0.0,0.0,0.0,0.0,0.0,0.0,0.0,0.0,0.0,0.0,0.0,0.0,0.0,0.0,-4.6866,-5.1821,-5.4359,-5.5061,-5.3358,-5.3098,-5.0904,-4.593,0.0,0.0,0.0,0.0,0.0,0.0,0.0,0.0,0.0,0.0,0.0,0.0,0.0,0.0,0.0,0.0,0.0,0.0,0.0,0.0,0.0,0.0,0.0,0.0,0.0,0.0,0.0,0.0,0.0,0.0,0.0,0.0,0.0,0.0,0.0,0.0,0.0,0.0,0.0,0.0,0.0,0.0,0.0,0.0,0.0,0.0,0.0,0.0,0.0,0.0,0.0,0.0,0.0,0.0,0.0,0.0,0.0,0.0,0.0,0.0,0.0,0.0,0.0,0.0,0.0,0.0,0.0,0.0,0.0,0.0,0.0,0.0,0.0,0.0,0.0,0.0,0.0,0.0,0.0,0.0,0.0,0.0,0.0,0.0,0.0,0.0,0.0,0.0,0.0,0.0,0.0,0.0,0.0,0.0,0.0,0.0,0.0,0.0,0.0,0.0,0.0,0.0,0.0,-4.646,-4.9365,-5.2355,-5.4369,-5.479,-5.3134,-5.2579,-5.0366,-4.5726,-4.3105,0.0,0.0,0.0,0.0,0.0,0.0,0.0,0.0,0.0,0.0,0.0,0.0,0.0,0.0,0.0,0.0,0.0,0.0,0.0,0.0,0.0,0.0,0.0,0.0,0.0,0.0,0.0,0.0,0.0,0.0,0.0,0.0,0.0,0.0,0.0,0.0,0.0,0.0,0.0,0.0,0.0,0.0,0.0,0.0,0.0,0.0,0.0,0.0,0.0,0.0,0.0,0.0,0.0,0.0,0.0,0.0,0.0,0.0,0.0,0.0,0.0,0.0,0.0,0.0,0.0,0.0,0.0,0.0,0.0,0.0,0.0,0.0,0.0,0.0,0.0,0.0,0.0,0.0,0.0,0.0,0.0,0.0,0.0,0.0,0.0,0.0,0.0,0.0,0.0,0.0,0.0,0.0,0.0,0.0,0.0,0.0,0.0,0.0,0.0,0.0,0.0,0.0,-4.8303,-5.1401,-5.2224,-5.3802,-5.4133,-5.2469,-5.1415,-4.9132,-4.5161,-4.2594,0.0,0.0,0.0,0.0,0.0,0.0,0.0,0.0,0.0,0.0,0.0,0.0,0.0,0.0,0.0,0.0,0.0,0.0,0.0,0.0,0.0,0.0,0.0,0.0,0.0,0.0,0.0,0.0,0.0,0.0,0.0,0.0,0.0,0.0,0.0,0.0,0.0,0.0,0.0,0.0,0.0,0.0,0.0,0.0,0.0,0.0,0.0,0.0,0.0,0.0,0.0,0.0,0.0,0.0,0.0,0.0,0.0,0.0,0.0,0.0,0.0,0.0,0.0,0.0,0.0,0.0,0.0,0.0,0.0,0.0,0.0,0.0,0.0,0.0,0.0,0.0,0.0,0.0,0.0,0.0,0.0,0.0,0.0,0.0,0.0,0.0,0.0,0.0,0.0,0.0,0.0,0.0,0.0,0.0,0.0,0.0,0.0,0.0,0.0,0.0,0.0,0.0,-4.8302,-5.1474,-5.1734,-5.2708,-5.2693,-5.1087,-4.9523,-4.7212,-4.3938,-4.1455,0.0,0.0,0.0,0.0,0.0,0.0,0.0,0.0,0.0,0.0,0.0,0.0,0.0,0.0,0.0,0.0,0.0,0.0,0.0,0.0,0.0,0.0,0.0,0.0,0.0,0.0,0.0,0.0,0.0,0.0,0.0,0.0,0.0,0.0,0.0,0.0,0.0,0.0,0.0,0.0,0.0,0.0,0.0,0.0,0.0,0.0,0.0,0.0,0.0,0.0,0.0,0.0,0.0,0.0,0.0,0.0,0.0,0.0,0.0,0.0,0.0,0.0,0.0,0.0,0.0,0.0,0.0,0.0,0.0,0.0,0.0,0.0,0.0,0.0,0.0,0.0,0.0,0.0,0.0,0.0,0.0,0.0,0.0,0.0,0.0,0.0,0.0,0.0,0.0,0.0,0.0,0.0,0.0,0.0,0.0,0.0,0.0,0.0,0.0,0.0,0.0,0.0,-4.7729,-5.0578,-5.0701,-5.1613,-5.1541,-4.9928,-4.8288,-4.6205,-4.3528,0.0,0.0,0.0,0.0,0.0,0.0,0.0,0.0,0.0,0.0,0.0,0.0,0.0,0.0,0.0,0.0,0.0,0.0,0.0,0.0,0.0,0.0,0.0,0.0,0.0,0.0,0.0,0.0,0.0,0.0,0.0,0.0,0.0,0.0,0.0,0.0,0.0,0.0,0.0,0.0,0.0,0.0,0.0,0.0,0.0,0.0,0.0,0.0,0.0,0.0,0.0,0.0,0.0,0.0,0.0,0.0,0.0,0.0,0.0,0.0,0.0,0.0,0.0,0.0,0.0,0.0,0.0,0.0,0.0,0.0,0.0,0.0,0.0,0.0,0.0,0.0,0.0,0.0,0.0,0.0,0.0,0.0,0.0,0.0,0.0,0.0,0.0,0.0,0.0,0.0,0.0,0.0,0.0,0.0,0.0,0.0,0.0,0.0,0.0,0.0,0.0,0.0,-4.349,-4.7056,-4.9584,-4.9917,-5.0563,-5.0299,-4.8664,-4.7027,-4.5081,-4.2735,0.0,0.0,0.0,0.0,0.0,0.0,0.0,0.0,0.0,0.0,0.0,0.0,0.0,0.0,0.0,0.0,0.0,0.0,0.0,0.0,0.0,0.0,0.0,0.0,0.0,0.0,0.0,0.0,0.0,0.0,0.0,0.0,0.0,0.0,0.0,0.0,0.0,0.0,0.0,0.0,0.0,0.0,0.0,0.0,0.0,0.0,0.0,0.0,0.0,0.0,0.0,0.0,0.0,0.0,0.0,0.0,0.0,0.0,0.0,0.0,0.0,0.0,0.0,0.0,0.0,0.0,0.0,0.0,0.0,0.0,0.0,0.0,0.0,0.0,0.0,0.0,0.0,0.0,0.0,0.0,0.0,0.0,0.0,0.0,0.0,0.0,0.0,0.0,0.0,0.0,0.0,0.0,0.0,0.0,0.0,0.0,0.0,0.0,0.0,0.0,0.0,0.0,-4.3296,-4.6305,-4.8618,-4.9481,-4.9592,-4.8893,-4.7204,-4.5608,-4.3714,0.0,0.0,0.0,0.0,0.0,0.0,0.0,0.0,0.0,0.0,0.0,0.0,0.0,0.0,0.0,0.0,0.0,0.0,0.0,0.0,0.0,0.0,0.0,0.0,0.0,0.0,0.0,0.0,0.0,0.0,0.0,0.0,0.0,0.0,0.0,0.0,0.0,0.0,0.0,0.0,0.0,0.0,0.0,0.0,0.0,0.0,0.0,0.0,0.0,0.0,0.0,0.0,0.0,0.0,0.0,0.0,0.0,0.0,0.0,0.0,0.0,0.0,0.0,0.0,0.0,0.0,0.0,0.0,0.0,0.0,0.0,0.0,0.0,0.0,0.0,0.0,0.0,0.0,0.0,0.0,0.0,0.0,0.0,0.0,0.0,0.0,0.0,0.0,0.0,0.0,0.0,0.0,0.0,0.0,0.0,0.0,0.0,0.0,0.0,0.0,0.0,0.0,0.0,-4.2796,-4.5378,-4.7343,-4.8179,-4.825,-4.7379,-4.5178,-4.4559,-4.3087,-4.0266,0.0,0.0,0.0,0.0,0.0,0.0,0.0,0.0,0.0,0.0,0.0,0.0,0.0,0.0,0.0,0.0,0.0,0.0,0.0,0.0,0.0,0.0,0.0,0.0,0.0,0.0,0.0,0.0,0.0,0.0,0.0,0.0,0.0,0.0,0.0,0.0,0.0,0.0,0.0,0.0,0.0,0.0,0.0,0.0,0.0,0.0,0.0,0.0,0.0,0.0,0.0,0.0,0.0,0.0,0.0,0.0,0.0,0.0,0.0,0.0,0.0,0.0,0.0,0.0,0.0,0.0,0.0,0.0,0.0,0.0,0.0,0.0,0.0,0.0,0.0,0.0,0.0,0.0,0.0,0.0,0.0,0.0,0.0,0.0,0.0,0.0,0.0,0.0,0.0,0.0,0.0,0.0,0.0,0.0,0.0,0.0,0.0,0.0,0.0,0.0,0.0,0.0,-4.1673,-4.3829,-4.5519,-4.6629,-4.6467,-4.5587,-4.3809,-4.3396,-4.1947,-3.8937,0.0,0.0,0.0,0.0,0.0,0.0,0.0,0.0,0.0,0.0,0.0,0.0,0.0,0.0,0.0,0.0,0.0,0.0,0.0,0.0,0.0,0.0,0.0,0.0,0.0,0.0,0.0,0.0,0.0,0.0,0.0,0.0,0.0,0.0,0.0,0.0,0.0,0.0,0.0,0.0,0.0,0.0,0.0,0.0,0.0,0.0,0.0,0.0,0.0,0.0,0.0,0.0,0.0,0.0,0.0,0.0,0.0,0.0,0.0,0.0,0.0,0.0,0.0,0.0,0.0,0.0,0.0,0.0,0.0,0.0,0.0,0.0,0.0,0.0,0.0,0.0,0.0,0.0,0.0,0.0,0.0,0.0,0.0,0.0,0.0,0.0,0.0,0.0,0.0,0.0,0.0,0.0,0.0,0.0,0.0,0.0,0.0,0.0,0.0,0.0,0.0,0.0,-4.0147,-4.181,-4.3297,-4.4761,-4.4324,-4.3585,-4.2695,-4.208,-4.0514,-3.7629,0.0,0.0,0.0,0.0,0.0,0.0,0.0,0.0,0.0,0.0,0.0,0.0,0.0,0.0,0.0,0.0,0.0,0.0,0.0,0.0,0.0,0.0,0.0,0.0,0.0,0.0,0.0,0.0,0.0,0.0,0.0,0.0,0.0,0.0,0.0,0.0,0.0,0.0,0.0,0.0,0.0,0.0,0.0,0.0,0.0,0.0,0.0,0.0,0.0,0.0,0.0,0.0,0.0,0.0,0.0,0.0,0.0,0.0,0.0,0.0,-3.7685,-3.6697,0.0,0.0,0.0,0.0,0.0,0.0,0.0,0.0,0.0,0.0,0.0,0.0,0.0,0.0,0.0,0.0,0.0,0.0,0.0,0.0,0.0,0.0,0.0,0.0,0.0,0.0,0.0,0.0,0.0,0.0,0.0,0.0,0.0,0.0,0.0,0.0,0.0,0.0,0.0,0.0,-3.9038,-4.0162,-4.109,-4.2053,-4.2001,-4.1353,-3.9966,-4.025,-3.9491,-3.7177,-3.6556,0.0,0.0,0.0,0.0,0.0,0.0,0.0,0.0,0.0,0.0,0.0,0.0,0.0,0.0,0.0,0.0,0.0,0.0,0.0,0.0,0.0,0.0,0.0,0.0,0.0,0.0,0.0,0.0,0.0,0.0,0.0,0.0,0.0,0.0,0.0,0.0,0.0,0.0,0.0,0.0,0.0,0.0,0.0,0.0,0.0,0.0,0.0,0.0,0.0,0.0,0.0,0.0,0.0,0.0,0.0,0.0,0.0,0.0,0.0,-3.8348,-3.7612,0.0,0.0,0.0,0.0,0.0,0.0,0.0,0.0,0.0,0.0,0.0,0.0,0.0,0.0,0.0,0.0,0.0,0.0,0.0,0.0,0.0,0.0,0.0,0.0,0.0,0.0,0.0,0.0,0.0,0.0,0.0,0.0,0.0,0.0,0.0,0.0,0.0,0.0,0.0,0.0,-3.7639,-3.8585,-3.9324,-4.0122,-3.9881,-3.9324,-3.8528,-3.8504,-3.7745,-3.6,-3.5425,0.0,0.0,0.0,0.0,0.0,0.0,0.0,0.0,0.0,0.0,0.0,0.0,0.0,0.0,0.0,0.0,0.0,0.0,0.0,0.0,0.0,0.0,0.0,0.0,0.0,0.0,0.0,0.0,0.0,0.0,0.0,0.0,0.0,0.0,0.0,0.0,0.0,0.0,0.0,0.0,0.0,0.0,0.0,0.0,0.0,0.0,0.0,0.0,0.0,0.0,0.0,0.0,0.0,-4.0692,-4.0957,-4.1487,-4.08,-4.0355,-4.0091,-3.9298,-3.893,-3.8737,-3.7836,0.0,0.0,0.0,0.0,0.0,0.0,0.0,0.0,0.0,0.0,0.0,0.0,0.0,0.0,0.0,0.0,0.0,0.0,0.0,0.0,0.0,0.0,0.0,0.0,-3.4064,-3.3292,-3.2276,0.0,0.0,0.0,0.0,0.0,0.0,0.0,0.0,0.0,0.0,0.0,-3.627,-3.7057,-3.7682,-3.8297,-3.78,-3.7445,-3.7445,-3.6895,-3.6068,-3.4972,-3.4422,-3.3535,0.0,0.0,0.0,0.0,0.0,0.0,0.0,0.0,0.0,0.0,0.0,0.0,0.0,0.0,0.0,0.0,0.0,0.0,0.0,0.0,0.0,0.0,0.0,0.0,0.0,0.0,0.0,0.0,0.0,0.0,0.0,0.0,-4.1755,-4.195,0.0,0.0,0.0,0.0,0.0,0.0,0.0,0.0,0.0,0.0,0.0,0.0,0.0,-4.1862,-4.1368,-4.2397,-4.269,-4.2196,-4.2196,-4.2258,-4.232,-4.1591,-4.1162,-4.0974,-4.0139,0.0,-3.8378,-3.7032,0.0,0.0,0.0,0.0,0.0,0.0,0.0,0.0,0.0,0.0,0.0,0.0,0.0,0.0,0.0,0.0,0.0,0.0,0.0,0.0,0.0,0.0,-3.563,-3.4301,-3.3536,-3.3089,0.0,-3.3244,-3.3306,-3.2829,-3.2422,-3.2052,0.0,0.0,0.0,0.0,0.0,0.0,-3.5287,-3.5572,-3.5673,-3.5773,-3.5689,-3.5639,-3.5639,-3.5538,-3.5457,-3.5335,-3.4933,-3.4298,-3.34,-3.197,0.0,0.0,0.0,0.0,0.0,0.0,0.0,0.0,0.0,0.0,0.0,0.0,0.0,0.0,0.0,0.0,0.0,0.0,0.0,0.0,0.0,0.0,0.0,0.0,0.0,0.0,0.0,0.0,0.0,-4.101,-4.1587,-4.1645,-4.1288,-4.0659,0.0,0.0,0.0,0.0,0.0,0.0,0.0,0.0,0.0,-3.998,-4.0879,-4.1379,-4.1455,-4.2031,-4.2364,-4.2455,-4.2455,-4.2599,-4.2947,-4.2281,-4.1926,-4.1791,-4.0691,-3.9943,-3.942,-3.8242,-3.7531,-3.7033,0.0,0.0,0.0,0.0,-3.4907,-3.5147,-3.5005,-3.5005,-3.5062,-3.4977,0.0,0.0,0.0,0.0,0.0,0.0,0.0,0.0,0.0,0.0,-3.5656,-3.4273,-3.3469,-3.2906,-3.2583,-3.2696,-3.2864,-3.2872,-3.2504,-3.2144,-3.2038,-3.1365,0.0,0.0,0.0,-3.2942,-3.4364,-3.4561,-3.4561,-3.4561,-3.4561,-3.4561,-3.4561,-3.4561,-3.4658,-3.489,-3.4453,-3.4101,-3.3886,-3.2659,-3.1582,0.0,0.0,0.0,0.0,0.0,0.0,0.0,0.0,0.0,0.0,0.0,0.0,0.0,0.0,0.0,0.0,0.0,0.0,0.0,0.0,0.0,0.0,0.0,0.0,0.0,0.0,0.0,0.0,-4.1352,-4.1844,-4.1516,-4.1337,-4.0881,0.0,0.0,0.0,0.0,0.0,0.0,-3.9005,-3.9452,-3.9958,-4.045,-4.083,-4.1158,-4.1471,-4.1814,-4.2127,-4.2494,-4.2533,-4.2772,-4.322,-4.2656,-4.2306,-4.2081,-4.0905,-4.0307,-4.0053,-3.9154,-3.8322,-3.7584,-3.6855,-3.646,-3.6199,-3.5475,-3.5337,-3.5445,-3.5339,-3.5292,-3.5214,-3.5139,-3.4924,-3.4611,-3.3933,0.0,0.0,0.0,0.0,-3.5156,-3.5048,-3.532,-3.5378,-3.4379,-3.3471,-3.273,-3.2288,-3.2131,-3.2234,0.0,-3.2394,-3.2151,-3.239,-3.1614,0.0,-3.2644,-3.2394,-3.2547,-3.3765,-3.3926,-3.3926,-3.3926,-3.3926,-3.3926,-3.3926,-3.3926,-3.4027,-3.4325,-3.4028,-3.3869,-3.3933,-3.3163,-3.2202,-3.1078,0.0,0.0,0.0,0.0,0.0,0.0,0.0,0.0,0.0,0.0,0.0,0.0,0.0,0.0,0.0,0.0,0.0,0.0,0.0,0.0,0.0,0.0,0.0,0.0,0.0,0.0,0.0,0.0,0.0,-4.1818,-4.2732,0.0,0.0,0.0,0.0,-4.1479,-4.1538,-4.1288,-4.0601,-4.0601,-4.0645,-4.0674,-4.1907,-4.2301,-4.1686,-4.2935,-4.326,-4.2684,-4.2871,-4.3006,-4.3006,-4.2578,-4.2051,-4.1384,-4.0696,-4.0053,-3.9409,-3.8727,-3.8382,-3.8237,-3.6993,-3.6843,-3.7248,-3.6633,-3.6768,-3.7278,-3.7278,-3.6888,-3.6394,-3.6409,-3.5557,-3.4386,-3.3711,-3.3471,0.0,0.0,-3.401,-3.4535,-3.455,-3.4565,-3.458,-3.4505,-3.3485,-3.2556,-3.2659,-3.2206,-3.194,0.0,-3.2198,-3.2044,-3.2199,0.0,-3.1725,-3.2501,-3.2581,-3.2846,-3.3624,-3.372,-3.372,-3.372,-3.372,-3.372,-3.372,-3.372,-3.3771,-3.3924,-3.4143,-3.4015,-3.3457,-3.3733,-3.305,-3.1226,-3.0472,0.0,0.0,0.0,0.0,0.0,0.0,0.0,0.0,0.0,0.0,0.0,0.0,0.0,0.0,0.0,0.0,0.0,0.0,0.0,0.0,0.0,0.0,0.0,0.0,0.0,0.0,0.0,0.0,-4.2124,-4.312,0.0,-4.2692,-4.2251,-4.1839,-4.1412,-4.1796,-4.1796,-4.1127,-4.1483,-4.1739,-4.1739,-4.1853,-4.181,-4.1553,-4.1652,-4.1735,-4.1811,-4.2196,-4.2496,-4.278,-4.2539,-4.2276,-4.1991,-4.0876,-4.0262,-3.9993,-3.9334,-3.8796,-3.8347,-3.7883,-3.7584,-3.7375,-3.7165,-3.7225,-3.7404,-3.7404,-3.6933,-3.6201,-3.5655,-3.4881,-3.411,-3.3888,-3.3517,-3.328,-3.3695,-3.3976,-3.4258,-3.4673,-3.448,-3.4051,-3.3636,-3.285,-3.2079,-3.1738,-3.1588,-3.1524,-3.1667,-3.1518,-3.1513,-3.1997,-3.1215,-3.0923,-3.2037,-3.1851,-3.1805,-3.2513,-3.2605,-3.2605,-3.2605,-3.2605,-3.2605,-3.2605,-3.2605,-3.2715,-3.2926,-3.3177,-3.3338,-3.3405,-3.3697,-3.3356,-3.2247,-3.1324,-3.0296,0.0,0.0,0.0,0.0,0.0,0.0,0.0,0.0,0.0,0.0,0.0,0.0,0.0,0.0,0.0,0.0,0.0,0.0,0.0,0.0,0.0,0.0,0.0,0.0,0.0,-4.1349,-4.2711,-4.2666,-4.3556,-4.3946,-4.3315,-4.2689,-4.2147,-4.173,-4.2109,-4.2126,-4.1483,-4.1876,-4.2098,-4.2098,-4.1558,-4.1251,-4.1251,-4.0681,-4.0589,-4.0958,-4.1519,-4.1949,-4.2333,-4.1987,-4.1873,-4.1799,-4.0435,-3.9869,-3.9839,-3.9356,-3.896,-3.8543,-3.8701,-3.8482,-3.8078,-3.8078,-3.8078,-3.8013,-3.7754,-3.7005,-3.608,-3.5214,-3.4389,-3.3732,-3.3732,-3.3409,-3.3162,-3.3616,-3.3732,-3.3775,-3.3993,-3.3605,-3.2966,-3.2312,-3.1627,-3.1047,-3.064,-3.0628,-3.0673,-3.0673,-3.08,-3.1008,-3.1447,-3.0655,-3.0243,-3.1122,-3.0907,-3.0825,-3.128,-3.1511,-3.1571,-3.1356,-3.1526,-3.1556,-3.1356,-3.1526,-3.1668,-3.1655,-3.2083,-3.2377,-3.2451,-3.2768,-3.2549,-3.1812,-3.0803,-2.9673,-2.8389,0.0,0.0,0.0,0.0,0.0,0.0,0.0,0.0,0.0,0.0,0.0,0.0,0.0,0.0,0.0,0.0,0.0,0.0,0.0,0.0,0.0,0.0,0.0,-4.0476,-4.2329,-4.3485,-4.3389,-4.4022,-4.4208,-4.3567,-4.2934,-4.2576,-4.2576,-4.2549,-4.2301,-4.1705,-4.1677,-4.1663,-4.1636,-4.1076,-4.0732,-4.0718,-4.0198,-4.0025,-4.0258,-4.0916,-4.1394,-4.1603,-4.1032,-4.0719,-4.0645,-3.9319,-3.8745,-3.8745,-3.8745,-3.8745,-3.8782,-3.9228,-3.9388,-3.9388,-3.9388,-3.9388,-3.9247,-3.8332,-3.7275,-3.6156,-3.5229,-3.4142,-3.3178,-3.3178,-3.3178,-3.3178,-3.3178,-3.3178,-3.3073,-3.2537,-3.1884,-3.1232,-3.065,-2.9985,-2.9473,-2.9473,-2.9473,-2.9473,-2.9473,-3.0031,-3.0509,-3.0552,-3.0093,-2.9735,-2.9765,-2.9883,0.0,-2.9989,-3.0539,-3.0706,-3.005,-3.057,-3.0691,-3.0035,-3.057,-3.0745,-3.0208,-3.0918,-3.1111,-3.0587,-3.0955,-3.073,-2.9808,-2.9017,-2.8207,-2.7426,0.0,0.0,0.0,0.0,0.0,0.0,0.0,0.0,0.0,0.0,0.0,0.0,0.0,0.0,0.0,0.0,0.0,0.0,0.0,0.0,0.0,-3.8762,-3.9506,-3.9859,-4.1453,-4.2555,-4.2504,-4.3072,-4.3364,-4.3154,-4.2661,-4.2316,-4.2316,-4.1918,-4.1576,-4.1417,-4.1417,-4.1205,-4.0768,-4.0198,-3.9741,-3.9289,-3.8745,-3.8692,-3.9069,-3.9533,-3.9986,-4.0347,-3.9669,-3.9344,-3.9273,-3.799,-3.7434,-3.7434,-3.7434,-3.7434,-3.751,-3.8546,-3.8943,-3.8943,-3.8943,-3.8943,-3.8744,-3.7192,-3.6324,-3.5669,-3.4073,-3.3219,-3.2832,-3.2832,-3.2832,-3.2832,-3.2832,-3.2832,-3.2715,-3.2125,-3.1493,-3.0896,-3.0276,-2.966,-2.9198,-2.9198,-2.9198,-2.9198,-2.9198,-2.8629,-2.8423,-2.9334,-2.8834,-2.8525,-2.9188,-2.9522,0.0,-2.9699,-2.9865,-2.991,-2.9714,-2.9865,-2.991,-2.9714,-2.988,-2.9937,-2.9768,-2.9973,-3.0068,-3.0031,-3.0147,-3.0118,-2.995,-2.9256,-2.8549,0.0,0.0,0.0,0.0,0.0,0.0,0.0,0.0,0.0,0.0,0.0,0.0,0.0,0.0,0.0,0.0,0.0,0.0,0.0,0.0,0.0,0.0,-3.9821,-4.0684,-4.0684,-4.1533,-4.2303,-4.25,-4.2605,-4.2657,-4.2657,-4.2147,-4.1808,-4.1808,-4.1507,-4.1311,-4.1311,-4.1311,-4.1036,-4.0435,-3.9886,-3.9324,-3.8723,-3.8174,-3.807,-3.8453,-3.885,-3.9282,-3.9637,-3.888,-3.8517,-3.8447,-3.7205,-3.666,-3.666,-3.666,-3.666,0.0,0.0,0.0,0.0,0.0,-3.7872,-3.7517,-3.6376,-3.541,-3.4495,-3.3311,-3.2514,-3.1982,-3.1982,-3.1982,-3.1982,-3.1982,-3.1807,-3.1483,-3.0897,-3.0315,-2.972,-2.9112,-2.8687,-2.8444,-2.8444,-2.8444,-2.8444,-2.8444,-2.7458,0.0,-2.7781,-2.7457,-2.7323,-2.7917,-2.8355,-2.8583,-2.8583,-2.8848,-2.8922,-2.8613,-2.8863,-2.8907,-2.8613,-2.8863,0.0,0.0,0.0,-2.8946,-2.8794,-2.8779,0.0,0.0,0.0,0.0,0.0,0.0,0.0,0.0,-2.7674,-2.8069,0.0,0.0,0.0,0.0,0.0,0.0,0.0,0.0,0.0,0.0,0.0,0.0,0.0,0.0,0.0,0.0,-4.0827,-4.2211,-4.2211,-4.2211,-4.2356,-4.2866,-4.2422,-4.212,-4.212,-4.1611,-4.1311,-4.1311,-4.1311,-4.1311,-4.1311,-4.1259,0.0,0.0,0.0,-3.922,-3.8619,-3.8148,-3.7979,-3.8167,-3.8607,-3.8922,-3.9131,-3.8259,-3.7853,-3.7827,-3.6618,-3.6096,-3.6096,-3.6096,-3.6096,-3.6136,-3.6621,-3.6841,-3.6841,-3.6841,-3.6476,-3.5971,-3.5673,0.0,0.0,-3.2718,-3.1907,-3.0986,-3.0986,-3.0986,-3.0986,-3.0986,-3.062,-3.0048,-2.9444,-2.8917,-2.832,-2.7646,-2.749,-2.749,-2.749,-2.749,-2.749,-2.749,-2.6576,-2.5918,-2.6215,-2.6198,-2.6203,-2.6336,-2.6762,-2.7037,-2.7037,-2.7563,-2.7695,-2.7096,0.0,0.0,-2.7081,-2.7592,-2.768,-2.7081,-2.7592,-2.7718,-2.7237,-2.7233,-2.7284,-2.7382,-2.7408,-2.7408,-2.7408,-2.7408,-2.7408,-2.7393,-2.7163,-2.7415,0.0,0.0,0.0,0.0,0.0,0.0,0.0,0.0,0.0,0.0,0.0,0.0,0.0,0.0,0.0,-4.1272,-4.1924,-4.2211,-4.2211,-4.2211,-4.2264,-4.2317,-4.1821,-4.1481,-4.1481,-4.1376,-4.1311,-4.1311,-4.1311,-4.1311,-4.1311,-4.0853,-4.0331,-3.9782,-3.9194,-3.8619,-3.807,-3.7952,-3.79,-3.7979,0.0,0.0,-3.8122,-3.6986,-3.6475,-3.6409,-3.526,-3.4758,-3.4758,-3.4758,-3.4758,-3.4868,-3.5976,-3.6413,-3.6413,-3.6413,-3.6092,-3.5485,-3.4577,-3.3645,-3.2718,-3.1875,-3.1327,-3.0986,-3.0986,-3.0986,0.0,-3.0986,-3.0908,-3.0581,-2.9585,-2.9231,-2.8843,-2.7751,-2.749,-2.749,-2.749,-2.749,-2.749,-2.749,-2.6576,-2.5855,-2.6029,-2.5616,-2.5314,-2.5577,-2.5864,-2.6068,-2.6068,-2.6167,-2.6223,-2.6082,-2.6194,-2.6223,-2.6082,-2.6194,-2.6223,-2.6082,-2.6181,-2.6223,-2.6095,-2.6122,-2.6122,-2.6135,-2.6135,-2.6135,-2.6135,-2.6135,-2.6135,-2.6162,-2.707,-2.7815,0.0,0.0,0.0,0.0,0.0,0.0,0.0,0.0,0.0,0.0,0.0,-3.8395,-3.9101,0.0,-4.1644,-4.2121,-4.2409,-4.25,-4.2264,-4.1925,-4.1742,-4.1742,-4.1481,-4.1311,-4.1311,-4.1311,-4.1311,-4.1311,-4.1311,-4.1311,-4.1311,-4.0736,-4.0161,-3.9625,-3.9024,-3.8449,-3.7913,-3.79,-3.79,-3.79,-3.79,-3.79,-3.7861,-3.6658,-3.6109,-3.6044,-3.4894,-3.4397,-3.4397,-3.4397,-3.4397,-3.4481,-3.5114,-3.5345,-3.5345,-3.5345,-3.4808,-3.4014,-3.3485,-3.269,-3.183,-3.1327,-3.1099,-3.0986,-3.0986,-3.0986,-3.0986,-3.0986,-3.0777,-3.0372,-2.9497,-2.9087,-2.8608,-2.7699,-2.749,-2.749,-2.749,-2.749,-2.749,-2.749,-2.6576,-2.5824,-2.5887,-2.5157,-2.4692,-2.5118,-2.5439,-2.5591,-2.5591,-2.5591,-2.5591,-2.5591,-2.5591,-2.5591,-2.5591,-2.5591,-2.5591,-2.5591,-2.5591,-2.5591,-2.5591,-2.5591,-2.5591,-2.5591,-2.5591,-2.5591,-2.5591,-2.5591,-2.5758,-2.6078,-2.6673,-2.7371,0.0,0.0,0.0,0.0,0.0,0.0,0.0,-3.6609,-3.7069,-3.7728,-3.9208,-4.0389,-4.0423,-4.2125,-4.3382,-4.2827,-4.2866,-4.2827,-4.2303,-4.1677,-4.1311,-4.1311,-4.1311,-4.1311,-4.1311,-4.1311,-4.1311,-4.1311,-4.1311,-4.1259,-4.1141,-4.0579,-4.0004,-3.9455,-3.8867,-3.8344,-3.79,-3.7854,-3.7854,-3.79,-3.7854,-3.7789,-3.7691,-3.6562,-3.6,-3.58,-3.4813,-3.4356,-3.4356,-3.4397,-3.4397,-3.4397,-3.4397,-3.4397,-3.4356,-3.4397,-3.3679,-3.2685,-3.2685,-3.194,-3.0986,-3.0986,-3.0986,-3.0986,-3.0986,-3.0986,-3.0986,-3.0986,-3.066,-3.01,-2.9457,-2.8957,-2.8386,-2.7659,-2.749,-2.749,-2.749,-2.749,-2.749,-2.749,-2.6576,-2.5793,-2.5793,-2.484,-2.4287,-2.475,-2.5006,-2.5161,-2.5161,-2.5161,-2.5161,-2.5161,-2.5161,-2.5161,-2.5161,-2.5161,-2.5161,-2.5161,-2.5161,-2.5161,-2.5161,-2.5161,-2.5161,-2.5161,-2.5161,-2.5161,-2.5161,-2.5161,-2.5461,-2.6033,-2.6155,-2.6775,-3.5096,-3.6343,-3.7638,-3.7638,-3.8115,-3.8756,0.0,-3.8894,-3.8655,-3.8718,-4.0245,-4.1595,-4.1901,-4.3194,-4.4292,-4.45,-4.3663,-4.2827,-4.2303,-4.1677,-4.1311,-4.1311,-4.1311,-4.1311,-4.1311,-4.1311,-4.1311,-4.1311,-4.1311,-4.1089,-4.054,-3.9991,-3.9429,-3.8828,-3.8279,-3.7965,-3.79,-3.7657,-3.7657,-3.79,-3.7657,-3.7384,-3.7077,-3.6233,-3.553,-3.4982,-3.4403,-3.4118,-3.416,-3.4314,-3.4397,-3.4397,-3.4397,-3.4272,-3.416,-3.4314,-3.3679,-3.2685,-3.2685,-3.194,-3.0986,-3.0986,-3.0986,-3.0986,-3.0986,-3.0986,-3.0986,-3.0986,-3.0934,-3.0634,-2.9598,-2.9258,-2.8895,-2.7764,-2.749,-2.749,-2.749,-2.749,-2.749,-2.749,-2.6576,-2.5793,-2.5793,-2.484,-2.4112,-2.42,-2.4229,-2.4245,-2.4245,-2.4245,-2.4245,-2.4245,-2.4245,-2.4245,-2.4245,-2.4245,-2.4245,-2.4245,-2.4245,-2.4245,-2.4245,-2.4245,-2.4245,-2.4245,-2.4245,-2.4245,-2.4245,-2.4245,-2.4547,-2.5156,-2.5638,-2.6631,-3.5384,-3.6958,-3.8429,-3.809,-3.917,-4.0287,-4.0199,-4.0237,-4.0312,-4.0312,-4.1726,-4.2891,-4.2677,-4.3714,-4.4603,-4.4746,-4.4055,-4.331,-4.2748,-4.2173,-4.169,-4.135,-4.1311,-4.1311,-4.1311,-4.1311,-4.1311,-4.1311,-4.1311,-4.105,-4.0448,-3.9899,-3.9324,-3.8723,-3.8187,-3.7808,-3.7657,-3.7564,-3.7459,-3.7446,-3.711,-3.6826,-3.6554,-3.5693,-3.4869,-3.42,-3.3955,-3.3949,-3.4118,-3.4202,-3.4272,-3.4397,-3.4285,-3.416,-3.4118,-3.4314,-3.3597,-3.254,-3.2659,-3.194,-3.0986,-3.0986,-3.0986,-3.0986,-3.0986,-3.0986,-3.0986,-3.0986,-3.0751,-3.0294,-2.9483,-2.9048,-2.8556,-2.7686,-2.749,-2.749,-2.749,-2.749,-2.749,-2.749,-2.6576,-2.5793,-2.5793,-2.484,-2.4083,-2.4083,-2.4083,-2.4083,-2.4083,-2.4083,-2.4083,-2.4083,-2.4083,-2.4083,-2.4083,-2.4083,-2.4083,-2.4083,-2.4083,-2.4083,-2.4083,-2.4083,-2.4083,-2.4083,-2.4083,-2.4083,-2.4083,-2.4083,-2.4583,-2.5471,-2.572,-2.6485,-3.5405,-3.7171,-3.8828,-3.8503,-3.9927,-4.133,-4.1093,-4.1338,-4.1568,-4.1568,-4.2635,-4.3444,-4.2965,-4.3896,-4.4708,-4.4609,-4.4328,-4.3925,-4.3337,-4.2631,-4.2017,-4.1598,-4.1415,-4.1311,-4.1311,-4.1311,-4.1311,-4.1311,-4.1311,-4.0984,-4.0239,-3.9821,-3.9272,-3.8514,-3.8004,-3.7703,-3.7505,-3.7353,-3.7137,-3.6878,-3.6546,-3.6186,-3.5776,-3.4889,-3.4165,-3.3556,-3.3598,-3.3725,-3.3907,-3.3949,-3.4076,-3.4189,-3.4034,-3.3949,-3.3949,-3.4147,-3.3433,-3.2433,-3.2579,-3.1902,-3.0986,-3.0986,-3.0986,-3.0986,-3.0986,-3.0986,-3.0986,-3.0986,-3.0699,-3.0202,-2.947,-2.8996,-2.8438,-2.7673,-2.749,-2.749,-2.749,-2.749,-2.749,-2.749,-2.6707,-2.6007,-2.5819,-2.5001,-2.4295,-2.4122,-2.4083,-2.4083,-2.4083,-2.4083,-2.4083,-2.4083,-2.4083,-2.4083,-2.4083,-2.4083,-2.4083,-2.4083,-2.4083,-2.4083,-2.4083,-2.4083,-2.4083,-2.4083,-2.4083,-2.4083,-2.4083,-2.4083,-2.4622,-2.5589,-2.5715,-2.6315,-3.499,-3.6952,-3.8939,-3.9443,-4.0631,-4.1817,-4.2326,-4.2275,-4.2187,-4.2187,-4.2652,-4.2934,-4.2671,-4.376,-4.4613,-4.4348,-4.4585,-4.4539,-4.3938,-4.2931,-4.2211,-4.2185,-4.1651,-4.1311,-4.1311,-4.1311,-4.1311,-4.1311,-4.1311,-4.0827,-3.969,-3.9625,-3.9089,-3.7965,-3.767,-3.7505,-3.7505,-3.6968,-3.6595,-3.6334,-3.6034,-3.5462,-3.4622,-3.3819,-3.3338,-3.3111,-3.3313,-3.3398,-3.3441,-3.3641,-3.3725,-3.3713,-3.3713,-3.3598,-3.3441,-3.3641,-3.3145,-3.2393,-3.2433,-3.1798,-3.0986,-3.0986,-3.0986,-3.0986,-3.0986,-3.0986,-3.0986,-3.0986,-3.0973,-3.0699,-2.9575,-2.9297,-2.8961,-2.7764,-2.749,-2.749,-2.749,-2.749,-2.749,-2.749,-2.7053,-2.6478,-2.5884,-2.5328,-2.4783,-2.4204,-2.4083,-2.4083,-2.4083,-2.4083,-2.4083,-2.4083,-2.4083,-2.4083,-2.4083,-2.4083,-2.4083,-2.4083,-2.4083,-2.4083,-2.4083,-2.4083,-2.4083,-2.4083,-2.4083,-2.4083,-2.4083,-2.4083,-2.4426,-2.5044,-2.5563,-2.6138,-3.3765,-3.5399,-3.6903,-3.8499,-4.011,-4.1476,-4.2093,-4.2501,-4.2652,-4.2288,-4.202,-4.1886,-4.2021,-4.2462,-4.2984,-4.3663,-4.4175,-4.4336,-4.3951,-4.3598,-4.3075,-4.2303,-4.199,-4.1729,-4.135,-4.1311,-4.1311,-4.1311,-4.1311,-4.0814,-3.9677,-3.9612,-3.9089,-3.7939,-3.7657,-3.74,-3.7261,-3.6862,-3.6396,-3.5759,-3.4981,-3.4325,-3.3806,-3.3414,-3.3154,-3.3124,-3.3154,-3.3283,-3.3398,-3.3471,-3.3598,-3.367,-3.3556,-3.3484,-3.3398,-3.3313,-3.2742,-3.1952,-3.2166,-3.1486,-3.0596,-3.0596,-3.0596,-3.0596,-3.0596,-3.0596,-3.0596,-3.0596,-3.0325,-2.9914,-2.954,-2.8869,-2.8186,-2.7799,-2.7438,-2.718,-2.718,-2.718,-2.7214,-2.7335,-2.6914,-2.6492,-2.6425,-2.5633,-2.4809,-2.4204,-2.4083,-2.4083,-2.4083,-2.4083,-2.4083,-2.4083,-2.4083,-2.4083,-2.4083,-2.4083,-2.4083,-2.4083,-2.4083,-2.4083,-2.4083,-2.4083,-2.4083,-2.4083,-2.4083,-2.4083,-2.4083,-2.4083,-2.4579,-2.5537,-2.5733,-2.6302,-3.3468,-3.4962,-3.6266,-3.7927,-3.9541,-4.0892,-4.1205,-4.1847,-4.2195,-4.1447,-4.0914,-4.0646,-4.0857,-4.1069,-4.1573,-4.2725,-4.3532,-4.4004,-4.4051,-4.395,-4.3533,-4.2579,-4.2291,-4.1938,-4.1376,-4.1311,-4.1311,-4.1311,-4.1115,-4.0592,-3.9664,-3.9403,-3.8867,-3.7926,-3.7551,-3.7261,-3.7108,-3.6531,-3.5831,-3.4906,-3.4035,-3.3507,-3.3283,-3.3154,-3.3124,-3.3124,-3.3124,-3.3154,-3.3283,-3.3283,-3.3356,-3.3471,-3.3356,-3.3283,-3.3283,-3.3154,-3.2449,-3.1615,-3.1871,-3.129,-3.0406,-3.0406,-3.0406,-3.0406,-3.0406,-3.0406,-3.0406,-3.0406,-3.0099,-2.9779,-2.955,-2.8794,-2.8075,-2.7857,-2.7408,-2.699,-2.699,-2.699,-2.7045,-2.718,-2.695,-2.6693,-2.6616,-2.5657,-2.4741,-2.4316,-2.4066,-2.3966,-2.4083,-2.4083,-2.4083,-2.4083,-2.4083,-2.4083,-2.4083,-2.4083,-2.4083,-2.4083,-2.4083,-2.4083,-2.4083,-2.4083,-2.4083,-2.4083,-2.4083,-2.4083,-2.4083,-2.4321,-2.4805,-2.5524,-2.5942,-2.6517,-3.4052,-3.5452,-3.6751,-3.7603,-3.8919,-3.9941,-3.9756,-4.0439,-4.0746,-3.9721,-3.9346,-3.9183,-3.9221,-3.9673,-4.0413,-4.1592,-4.2723,-4.3666,-4.418,-4.405,-4.3689,-4.3036,-4.2488,-4.1977,-4.1326,-4.1261,-4.1261,-4.1311,-4.0762,-4.0187,-3.9638,-3.9037,-3.8462,-3.7913,-3.7366,-3.7108,-3.7062,-3.6025,-3.4931,-3.3935,-3.3357,-3.3124,-3.3124,-3.3124,-3.3124,-3.3124,-3.3124,-3.3124,-3.3124,-3.3124,-3.3124,-3.3124,-3.3124,-3.3124,-3.3124,-3.3124,-3.242,-3.1465,-3.1627,-3.112,-3.0368,-3.0368,-3.0368,-3.0368,-3.0368,-3.0368,-3.0368,-3.0368,-3.0368,-3.024,-2.9677,-2.9102,-2.8513,-2.795,-2.7387,-2.6977,-2.6977,-2.6977,-2.699,-2.6977,-2.7146,-2.7087,-2.6485,-2.5451,-2.4671,-2.4461,-2.3944,-2.3688,-2.4024,-2.4083,-2.4083,-2.4083,-2.4083,-2.4083,-2.4083,-2.4083,-2.4083,-2.4083,-2.4083,-2.4083,-2.4083,-2.4083,-2.4083,-2.4083,-2.4083,-2.4083,-2.4083,-2.4717,-2.5018,-2.507,-2.6183,-2.6719,-3.235,-3.3433,-3.4466,-3.552,-3.6143,-3.6667,-3.7042,-3.7446,-3.7658,-3.7392,-3.7196,-3.7417,-3.8255,-3.8866,-3.9777,-4.1529,-4.236,-4.307,-4.3865,-4.3923,-4.3514,-4.251,-4.2265,-4.1879,-4.1088,-4.0997,-4.1097,-4.1261,-4.0762,-4.0187,-3.9638,-3.9037,-3.8356,-3.7624,-3.7261,-3.7015,-3.6815,-3.5541,-3.4788,-3.45,-3.3533,-3.3124,-3.3124,-3.3124,-3.3124,-3.3124,-3.3124,-3.3124,-3.3124,-3.3124,-3.3124,-3.3124,-3.3124,-3.3124,-3.3124,-3.3124,-3.2616,-3.1951,-3.1619,-3.0802,-2.9934,-2.9934,-2.9934,-2.9934,-2.9934,-2.9934,-2.9934,-2.9934,-2.9934,-2.9908,-2.9757,-2.8987,-2.8217,-2.8066,-2.7296,-2.6636,-2.6636,-2.6636,-2.6671,-2.676,-2.6943,-2.6865,-2.6275,-2.5518,-2.4684,-2.3823,-2.3324,-2.3241,-2.3658,-2.3848,-2.3979,-2.4083,-2.4083,-2.4083,-2.4083,-2.4083,-2.4083,-2.4083,-2.4083,-2.4083,-2.4083,-2.4083,-2.4083,-2.4083,-2.4083,-2.4083,-2.4083,-2.4717,-2.5227,-2.5615,-2.6379,-2.6896,-3.3021,-3.3702,-3.4275,-3.4921,-3.5465,-3.5815,-3.5877,-3.6202,-3.6385,-3.6022,-3.5911,-3.6157,-3.7168,-3.778,-3.873,-4.0559,-4.1666,-4.243,-4.303,-4.3432,-4.322,-4.1978,-4.1904,-4.1616,-4.0644,-4.0782,-4.0896,-4.0959,-4.0281,-3.9719,-3.942,-3.8506,-3.7816,-3.732,-3.7062,-3.6701,-3.618,-3.5198,-3.46,-3.4349,-3.3483,-3.3124,-3.3124,-3.3124,-3.3124,-3.3124,0.0,-3.3124,-3.3124,-3.3124,-3.3124,-3.3124,-3.3124,-3.3124,-3.3124,-3.3124,-3.2717,-3.2127,-3.1587,-3.0846,-3.0118,-2.988,-2.9792,-2.9792,-2.9792,-2.9792,-2.9792,-2.9792,-2.9792,-2.9792,-2.9792,-2.895,-2.8109,-2.8109,-2.7268,-2.6499,-2.6396,-2.6361,-2.6396,-2.6487,-2.6577,-2.6557,-2.6295,-2.5544,-2.462,-2.36,-2.3077,-2.2818,-2.2927,-2.3378,-2.3772,-2.3979,-2.4067,-2.4083,-2.4083,-2.4083,-2.4083,-2.4083,-2.4083,-2.4083,-2.4083,-2.4083,-2.4083,-2.4083,-2.4083,-2.4083,-2.4083,-2.4936,-2.5511,-2.5806,-2.6661,-2.7223,-3.4671,-3.5034,-3.5007,-3.5065,-3.5714,-3.6077,-3.5424,-3.5567,-3.5674,-3.5082,-3.4931,-3.5187,-3.6101,-3.6735,-3.7651,-3.9408,-4.0711,-4.1622,-4.1978,-4.2577,-4.2502,-4.1255,-4.1291,-4.1024,-4.0069,-4.0478,-4.0655,-4.0401,-3.9612,-3.9104,-3.9139,-3.7878,-3.7062,-3.7062,-3.6815,-3.6307,-3.5608,-3.4994,-3.4487,-3.3997,-3.337,-3.3124,-3.3124,-3.3124,-3.3124,-3.3124,-3.3124,-3.3124,-3.3124,-3.3124,-3.3124,-3.3124,-3.3124,-3.3124,-3.3124,-3.3124,-3.2754,-3.224,-3.1599,-3.1097,-3.062,-2.9993,-2.9792,-2.9792,-2.9792,-2.9792,-2.9792,-2.9792,-2.9792,-2.9792,-2.9792,-2.895,-2.8109,-2.8109,-2.7268,-2.643,-2.6236,-2.6131,-2.6015,-2.5943,-2.5931,-2.5965,-2.6057,-2.5247,-2.4294,-2.3479,-2.2904,-2.245,-2.2094,-2.2812,-2.3492,-2.3861,-2.4008,-2.4083,-2.4083,-2.4083,-2.4083,-2.4083,-2.4083,-2.4083,-2.4083,-2.4083,-2.4083,-2.4083,-2.4083,-2.4122,-2.423,-2.5271,-2.5832,-2.5923,-2.6994,-2.749,-3.4977,-3.5061,-3.4978,-3.4714,-3.4818,-3.4882,-3.4308,-3.363,-3.3172,-3.3486,-3.3506,-3.3906,-3.5475,-3.6175,-3.7247,-3.9346,-3.9912,-4.0488,-4.1604,-4.1256,-4.067,-4.0294,-3.9965,-3.969,-3.9372,-3.9904,-4.0147,-3.9838,-3.9036,-3.8653,-3.8835,-3.7723,-3.7015,-3.6769,-3.6534,-3.6402,-3.6267,-3.5228,-3.4675,-3.4562,-3.3558,-3.3124,-3.3124,-3.3124,-3.3124,-3.3124,-3.3124,0.0,-3.3124,-3.3124,-3.3124,-3.3124,-3.3124,-3.3124,-3.3124,-3.3124,-3.3018,-3.278,-3.175,-3.1336,-3.1097,-3.0118,-2.9792,-2.9792,-2.9792,-2.9792,-2.9792,-2.9792,-2.9792,-2.9792,-2.9792,-2.895,-2.8109,-2.8109,-2.7268,-2.643,-2.6236,-2.5688,-2.5052,-2.4552,-2.448,-2.448,-2.4469,-2.3896,-2.3186,-2.2613,-2.2421,-2.2217,-2.1889,-2.252,-2.321,-2.3832,-2.392,-2.3979,-2.4083,-2.4083,-2.4083,-2.4083,-2.4083,-2.4083,-2.4083,-2.4083,-2.4083,-2.4083,-2.4083,-2.4347,-2.4861,-2.5497,-2.6073,-2.6575,-2.721,-2.749,-3.6511,-3.6534,-3.6027,-3.5577,-3.5713,-3.5714,-3.4628,-3.3793,-3.3337,-3.3732,-3.3449,-3.3457,-3.4578,-3.5335,-3.6158,-3.7382,-3.8512,-3.9374,-3.955,-3.9746,-3.9513,-3.8576,-3.8805,-3.883,-3.8441,-3.9297,-3.9651,-3.9083,-3.8627,-3.8331,-3.8184,-3.7286,-3.6687,-3.6534,-3.6452,-3.6267,-3.5931,-3.5127,-3.4575,-3.4286,-3.347,-3.3124,-3.3124,-3.3124,-3.3124,-3.3124,-3.3124,-3.3124,-3.3124,-3.3124,-3.3124,-3.3124,-3.3124,-3.3124,-3.3124,-3.3124,-3.3124,-3.2998,-3.2102,-3.1625,-3.126,-3.047,-3.003,-2.9792,-2.965,-2.9599,-2.9573,-2.9456,-2.9429,-2.9429,-2.9429,-2.8885,-2.8338,-2.8238,-2.7127,-2.6078,-2.5864,-2.5075,-2.4311,-2.3936,-2.3863,-2.3863,-2.3863,-2.3405,-2.2844,-2.2241,-2.2226,-2.2246,-2.2083,-2.2636,-2.3217,-2.3586,-2.37,-2.376,-2.3835,-2.3936,-2.4008,-2.4008,-2.4067,-2.4083,-2.4083,-2.4083,-2.4083,-2.4083,-2.4413,-2.4717,-2.4992,-2.5837,-2.6412,-2.6719,-2.7262,-2.749,-3.8453,-3.8371,-3.7504,-3.6808,-3.714,-3.7105,-3.5345,-3.4532,-3.4167,-3.4291,-3.3678,-3.3251,-3.3773,-3.4222,-3.4669,-3.5233,-3.66,-3.7481,-3.7252,-3.7959,-3.8043,-3.6937,-3.7493,-3.7836,-3.7375,-3.8502,-3.8972,-3.8187,-3.804,-3.7779,-3.7384,-3.6739,-3.6405,-3.6405,-3.6292,-3.5981,-3.5495,-3.4831,-3.4324,-3.3884,-3.3345,-3.3124,-3.3124,-3.3124,-3.3124,-3.3124,-3.3124,-3.3124,-3.3124,-3.3124,-3.3124,-3.3124,-3.3124,-3.3124,-3.3124,-3.3124,-3.3124,-3.3023,-3.2277,-3.175,-3.1286,-3.0553,-3.0104,-2.9753,-2.947,-2.9302,-2.9145,-2.8961,-2.8803,-2.8673,-2.8803,-2.8584,-2.8334,-2.8046,-2.6816,-2.563,-2.5187,-2.4326,-2.3567,-2.3261,-2.3224,-2.3224,-2.3224,-2.2964,-2.2573,-2.2049,-2.2164,-2.2305,-2.2246,-2.2743,-2.3103,-2.3189,-2.345,-2.3628,-2.3645,-2.3705,-2.373,-2.373,-2.3878,-2.3966,-2.3995,-2.4142,-2.4266,-2.4295,-2.4857,-2.524,-2.5371,-2.6261,-2.6771,-2.687,-2.7314,-2.749,-4.0265,-4.0033,-3.9135,-3.8099,-3.8297,-3.8141,-3.5931,-3.5007,-3.4515,-3.4027,-3.3483,-3.3189,-3.3506,-3.2746,-3.2651,-3.427,-3.3746,-3.3831,-3.5791,-3.5737,-3.5562,-3.5813,-3.5949,-3.6147,-3.6335,-3.7352,-3.7855,-3.7328,-3.6869,-3.6543,-3.6493,-3.643,-3.6405,-3.6405,-3.5881,-3.5558,-3.5495,-3.45,-3.3947,-3.3884,-3.3345,-3.3124,-3.3124,-3.3124,-3.3124,-3.3124,-3.3124,-3.3124,0.0,-3.3124,-3.3124,-3.3124,-3.3124,-3.3124,-3.3124,-3.3124,-3.3124,-3.2918,-3.1838,-3.1436,-3.117,-2.992,-2.9649,-2.9753,-2.947,-2.9028,-2.8542,-2.8263,-2.777,-2.7395,-2.781,-2.7806,-2.7563,-2.7043,-2.6231,-2.5212,-2.4098,-2.3318,-2.2628,-2.2073,-2.1959,-2.1959,-2.1959,-2.1911,-2.1901,-2.1821,-2.2151,-2.2317,-2.215,-2.2479,-2.2691,-2.2603,-2.3232,-2.3735,-2.3847,-2.3457,-2.3168,-2.3168,-2.336,-2.3522,-2.3628,-2.4283,-2.4719,-2.4913,-2.5458,-2.6007,-2.6549,-2.6654,-2.6935,-2.7425,-2.7477,-2.749,-3.9977,-4.0371,-4.0044,-3.8599,-3.8521,-3.8175,-3.566,-3.4669,-3.4123,-3.3578,-3.3033,-3.258,-3.2249,-3.1956,-3.1932,-3.2447,-3.2529,-3.2797,-3.3621,-3.4131,-3.4419,-3.4337,-3.4887,-3.5301,-3.5497,-3.642,-3.6967,-3.6974,-3.6474,-3.6228,-3.6405,-3.6405,-3.6405,-3.6405,-3.583,-3.5345,-3.5006,-3.4286,-3.3734,-3.3395,-3.3181,-3.3124,-3.3124,-3.3124,-3.3124,-3.3124,-3.3124,-3.3124,0.0,-3.3124,-3.3124,-3.3124,-3.3124,-3.3124,-3.3124,-3.3124,-3.3124,-3.2968,-3.2164,-3.1675,-3.122,-3.0256,-2.9507,-2.8961,-2.8764,-2.8383,-2.7971,-2.751,-2.7062,-2.6805,-2.7144,-2.7308,-2.7366,-2.7392,-2.6217,-2.4862,-2.4176,-2.3127,-2.2214,-2.1883,-2.1807,-2.1807,-2.1807,-2.1807,-2.1807,-2.1807,-2.2025,-2.2301,-2.2433,-2.2706,-2.2958,-2.3153,-2.305,-2.2864,-2.2665,-2.2512,-2.2312,-2.2099,-2.2707,-2.3201,-2.3479,-2.4267,-2.4867,-2.5161,-2.5825,-2.6291,-2.6525,-2.6961,-2.7301,-2.749,-2.749,-2.749,-3.9394,-3.9952,-3.9716,-3.8077,-3.765,-3.6946,-3.445,-3.3594,-3.3136,-3.2436,-3.2002,-3.156,-3.0982,-3.0717,-3.064,-3.0796,-3.0997,-3.1319,-3.1779,-3.2629,-3.3172,-3.3082,-3.3944,-3.4592,-3.4815,-3.5559,-3.6164,-3.6407,-3.6109,-3.6051,-3.6358,-3.6405,-3.6329,-3.6119,-3.5592,-3.4994,-3.4487,-3.3935,-3.3458,-3.3124,-3.3124,-3.3124,-3.3124,-3.3124,-3.3124,-3.3124,-3.3124,-3.3124,0.0,-3.3124,-3.3124,-3.3124,-3.3124,-3.3124,-3.3124,-3.3124,-3.3124,-3.2968,-3.2143,-3.1642,-3.111,-3.005,-2.9067,-2.8223,-2.7753,-2.7418,-2.711,-2.6622,-2.629,-2.6196,-2.6498,-2.6734,-2.6969,-2.7151,-2.5988,-2.4646,-2.4038,-2.3034,-2.2126,-2.1866,-2.1807,-2.1807,-2.1807,-2.1807,-2.1807,-2.1807,-2.1921,-2.2101,-2.2402,-2.2553,-2.274,-2.3038,-2.2584,-2.2246,-2.2117,-2.2035,-2.1883,-2.1606,-2.235,-2.2962,-2.3393,-2.4267,-2.4936,-2.539,-2.6049,-2.6396,-2.6396,-2.6961,-2.7289,-2.7356,-2.739,-2.7469,-3.8938,-3.8748,-3.7786,-3.6383,-3.5418,-3.4307,-3.2204,-3.1733,-3.1445,-3.0434,-3.0215,-3.0125,-2.9852,-2.8822,-2.8392,-2.9526,-2.8705,-2.8587,-3.0482,-3.1146,-3.16,-3.2167,-3.303,-3.379,-3.4242,-3.4867,-3.5306,-3.5569,-3.56,-3.5847,-3.6358,-3.6405,-3.6119,-3.552,-3.4969,-3.4462,-3.3909,-3.337,-3.3124,-3.3124,-3.3124,-3.3124,-3.3124,-3.3124,-3.3124,-3.3124,-3.3124,-3.3124,0.0,-3.3124,-3.3124,-3.3124,-3.3124,-3.3124,-3.3124,-3.3124,-3.3124,-3.2918,-3.1552,-3.1096,-3.0786,-2.8847,-2.8035,-2.7597,-2.6547,-2.6049,-2.5788,-2.5569,-2.5369,-2.5316,-2.5704,-2.6008,-2.6144,-2.5872,-2.5304,-2.4523,-2.3439,-2.2822,-2.2356,-2.189,-2.1807,-2.1807,-2.1807,-2.1807,-2.1807,-2.1807,-2.1807,-2.1807,-2.1807,-2.1807,-2.1807,-2.1807,-2.1797,-2.2088,-2.2744,-2.2302,-2.2012,-2.2,-2.2298,-2.2774,-2.338,-2.4309,-2.5041,-2.5603,-2.6117,-2.6414,-2.6414,-2.6611,-2.6816,-2.7007,-2.7201,-2.7369,-3.7295,-3.7788,-3.7879,-3.6137,-3.503,-3.3814,-3.1954,-3.1113,-3.0541,-2.9885,-2.9703,-2.96,-2.913,-2.8615,-2.8466,-2.9133,-2.8742,-2.8825,-3.0046,-3.0615,-3.111,-3.1678,-3.2499,-3.3179,-3.3498,-3.3781,-3.4138,-3.4734,-3.5102,-3.5656,-3.6358,-3.6405,-3.6107,-3.552,-3.4969,-3.4462,-3.3909,-3.3357,-3.3124,-3.3124,-3.3124,-3.3124,-3.3124,-3.3124,-3.3124,-3.3124,-3.3124,-3.3124,-3.3124,-3.3124,-3.3124,-3.3124,-3.3124,-3.3124,-3.3124,-3.3124,-3.283,-3.2386,-3.1838,-3.109,-3.015,-2.8863,-2.775,-2.6763,-2.5961,-2.5653,-2.5485,-2.4946,-2.4914,-2.5073,-2.5474,-2.5569,-2.5527,-2.5558,-2.4974,-2.4186,-2.3369,-2.2822,-2.2356,-2.189,-2.1807,-2.1807,-2.1807,-2.1807,-2.1807,-2.1807,-2.1807,-2.1807,-2.1807,-2.1807,-2.1807,-2.1807,-2.1807,-2.1772,-2.167,-2.1479,-2.1256,-2.0928,-2.156,-2.2171,-2.2631,-2.3518,-2.4175,-2.4567,-2.4862,-2.5028,-2.5016,-2.5522,-2.6092,-2.6816,-2.7222,-2.7469,-3.5687,-3.5978,-3.6064,-3.4707,-3.3461,-3.2239,-3.0812,-2.9903,-2.9277,-2.8751,-2.8653,-2.856,-2.8222,-2.8055,-2.8121,-2.854,-2.8603,-2.8876,-2.9632,-3.0284,-3.0987,-3.1698,-3.2391,-3.2723,-3.2594,-3.2935,-3.3335,-3.3895,-3.4617,-3.5452,-3.6358,-3.6157,-3.5805,-3.5207,-3.4856,-3.4361,-3.3596,-3.3257,-3.3124,-3.3124,-3.3124,-3.3124,-3.3124,-3.3124,-3.3124,-3.3124,-3.3124,-3.3124,0.0,-3.3124,-3.3124,-3.3081,-3.2982,-3.2939,-3.2939,-3.2865,-3.2598,-3.2177,-3.1583,-3.081,-2.9794,-2.8391,-2.7026,-2.5819,-2.5285,-2.5115,-2.5041,-2.4625,-2.4615,-2.4828,-2.5084,-2.5041,-2.4956,-2.5073,-2.4703,-2.4127,-2.3359,-2.2956,-2.2563,-2.1932,-2.1807,-2.1807,-2.1807,-2.1807,-2.1807,-2.1807,-2.1807,-2.1807,-2.1807,-2.1807,-2.1807,-2.1807,-2.1807,-2.1683,-2.1393,-2.1373,-2.1248,-2.0969,-2.1513,-2.2029,-2.2433,-2.3058,-2.3545,-2.3913,-2.4034,-2.4107,-2.4107,-2.5183,-2.6121,-2.694,-2.7778,-2.819,0.0,-3.3729,-3.3085,-3.2547,-3.1267,-2.9948,-2.9208,-2.8406,0.0,-2.7392,-2.7309,-2.7309,-2.7309,-2.7309,-2.7417,-2.7893,-2.8328,-2.8794,-2.929,-3.0098,-3.1042,-3.2106,-3.243,-3.2306,-3.1629,-3.2246,-3.2862,-3.3151,-3.4164,-3.5211,-3.6275,-3.5796,-3.5199,-3.4693,-3.4643,-3.4104,-3.3124,-3.3124,-3.3124,-3.3124,-3.3124,-3.3124,-3.3124,-3.3124,-3.3124,0.0,-3.3124,-3.3124,0.0,-3.3124,-3.3124,-3.3068,-3.2797,-3.2667,-3.2581,-3.2388,-3.2276,-3.1991,-3.0866,-3.0228,-2.9613,-2.7485,-2.5969,-2.486,-2.4593,-2.4497,-2.4497,-2.4497,-2.4497,-2.4497,-2.4497,-2.4497,-2.4497,-2.4497,-2.4497,-2.4259,-2.3432,-2.3215,-2.2925,-2.2025,-2.1828,-2.1807,-2.1807,-2.1807,-2.1807,-2.1807,-2.1807,-2.1807,-2.1807,-2.1807,-2.1807,-2.1807,-2.1807,-2.1807,-2.1807,-2.1807,-2.1807,-2.1807,-2.1997,-2.2252,-2.2628,-2.2815,-2.3124,-2.3501,-2.3535,-2.3594,-2.3668,-2.549,-2.6685,-2.732,-2.8624,-2.9274,-3.3376,0.0,-3.4117,-3.3005,-3.1756,-3.0556,0.0,-2.8376,-2.7434,-2.733,-2.7309,-2.7309,-2.7309,-2.7309,-2.7569,-2.8317,-2.8545,-2.8897,-2.9715,-3.0224,-3.0705,-3.14,-3.1329,-3.1245,-3.1289,-3.1659,-3.2167,-3.2862,-3.3671,-3.4677,-3.5704,-3.5234,-3.4783,-3.4421,-3.3986,-3.3583,-3.3081,-3.3124,-3.3124,-3.3124,-3.3124,-3.3124,-3.3124,-3.3124,-3.3124,-3.3124,-3.3124,0.0,-3.3124,-3.3124,-3.3124,-3.3068,-3.2797,-3.2351,-3.1857,-3.1625,-3.0909,-3.0018,-2.9996,-2.9308,-2.8175,-2.6604,-2.5685,-2.5039,-2.4654,-2.4497,-2.4497,-2.4497,-2.4497,-2.4497,-2.4497,-2.4497,-2.4497,-2.4497,-2.4497,-2.4342,-2.3836,-2.3432,-2.3018,-2.2449,-2.2056,-2.1807,-2.1807,-2.1807,-2.1807,-2.1807,-2.1807,-2.1807,-2.1807,-2.1807,-2.1807,-2.1807,-2.1807,-2.1807,-2.1807,-2.1807,-2.1807,-2.1807,-2.1845,-2.1911,-2.1987,-2.2073,-2.2317,-2.2752,-2.3111,-2.3595,-2.4199,-2.5444,-2.6421,-2.725,-2.8276,-2.8856,-3.2939,-3.3657,-3.4119,-3.2886,-3.1786,-3.0744,-2.972,-2.8378,-2.7309,-2.7309,-2.7309,-2.7309,-2.7309,-2.7427,-2.7728,-2.8214,-2.8649,-2.9259,-3.018,-3.0463,-3.0664,-3.0968,-3.0832,-3.0748,-3.0661,-3.1002,-3.1505,-3.2196,-3.2862,-3.3621,-3.4458,-3.3983,-3.3699,-3.3766,-3.3256,-3.3021,-3.3081,-3.3124,-3.3124,-3.3124,-3.3124,-3.3124,-3.3124,-3.3124,-3.3124,-3.3081,-3.2982,0.0,-3.2896,-3.2822,-3.2779,-3.2736,-3.2245,-3.1725,-3.1214,-3.0767,-3.0088,-2.9398,-2.9305,-2.8499,-2.7313,-2.6257,-2.5585,-2.5096,-2.4631,-2.4497,-2.4497,-2.4497,-2.4497,-2.4497,-2.4497,-2.4497,-2.4497,-2.4497,-2.4497,-2.4373,-2.3971,-2.3681,-2.3308,-2.2625,-2.2294,-2.2056,-2.1849,-2.1983,-2.2118,-2.2118,-2.2304,-2.2439,-2.2439,-2.2439,-2.2356,-2.2149,-2.2118,-2.2035,-2.1828,-2.1807,-2.1807,-2.1807,-2.1807,-2.1807,-2.1807,-2.2004,-2.2335,-2.2801,-2.306,-2.3537,-2.4274,-2.5537,-2.6546,-2.7324,-2.8637,-2.9385,-3.2766,-3.3214,-3.3575,-3.259,-3.1762,-3.0868,-2.9767,-2.8387,-2.7392,-2.732,-2.7309,-2.733,-2.7392,-2.7665,-2.7966,-2.811,-2.8856,-2.9684,-3.047,-3.0584,-3.0584,-3.0584,-3.0584,-3.0429,-3.0036,-3.0443,-3.094,-3.1483,-3.2004,-3.2476,-3.2948,-3.2491,-3.2453,-3.2859,-3.2479,-3.2463,-3.3025,-3.3081,-3.3124,-3.3124,-3.3124,-3.3124,-3.3124,-3.3124,-3.3124,-3.3081,0.0,0.0,-3.2537,-3.2332,-3.2169,-3.1981,-3.1339,-3.0869,-3.0486,-2.9818,-2.9417,-2.9117,-2.8631,-2.7836,-2.6934,-2.6152,-2.5627,-2.5189,-2.4652,-2.4497,-2.4497,-2.4497,-2.4497,-2.4497,-2.4497,-2.4497,-2.4497,-2.4497,-2.4497,-2.4394,-2.4064,-2.3929,-2.365,-2.2863,-2.2646,-2.248,-2.2087,-2.2335,-2.2604,-2.2604,-2.2936,-2.3184,-2.3184,-2.3184,-2.3039,-2.2646,-2.2604,-2.2439,-2.2056,-2.1952,-2.1911,-2.1911,-2.1849,-2.1838,-2.1901,-2.2356,-2.2822,-2.3287,-2.336,-2.3676,-2.4272,-2.5699,-2.6718,-2.7399,-2.9091,-2.9908,-3.2766,-3.2975,-3.3027,-3.2249,-3.1996,-3.149,-2.9851,-2.8641,-2.7717,-2.7382,-2.7309,-2.7423,-2.7759,-2.7872,-2.8183,-2.897,-2.9539,-2.9942,-3.0087,-3.0098,-3.0098,-3.0098,-3.0098,-3.0067,-3.0005,-3.0297,-3.0692,-3.1227,-3.1556,-3.1788,-3.1903,-3.1621,-3.1632,-3.1887,-3.1603,-3.1881,-3.2754,-3.2995,-3.3124,-3.3124,-3.3124,-3.3124,-3.3124,-3.3124,-3.3124,-3.3081,0.0,-3.2351,-3.1757,-3.1536,-3.108,-3.0486,-3.0181,-2.9635,-2.9002,-2.8699,-2.8196,-2.7631,-2.7536,-2.74,-2.7108,-2.621,-2.5834,-2.5627,-2.4755,-2.4497,-2.4497,-2.4497,-2.4497,-2.4497,-2.4497,-2.4497,-2.4497,-2.4497,-2.4497,-2.4476,-2.4414,-2.4146,-2.3878,-2.3691,-2.335,-2.306,-2.2987,-2.3039,-2.308,-2.308,-2.3143,-2.3184,-2.3184,-2.3184,-2.3163,-2.3091,-2.308,-2.3049,-2.2977,-2.2615,-2.2387,-2.2387,-2.2025,-2.1983,-2.2377,-2.2832,-2.3298,-2.3764,-2.4136,-2.4534,-2.5029,-2.5605,-2.6341,-2.7273,-2.8267,-2.9028,-3.2061,-3.2079,-3.1938,-3.1402,-3.1363,-3.1124,-2.9894,-2.8926,-2.8173,-2.7717,-2.7614,-2.7686,-2.7883,-2.8131,-2.8597,-2.9528,-2.986,-2.9994,-2.9994,-2.9994,-2.9994,-2.9994,-2.9994,-2.9994,-2.9994,-3.0099,-3.0297,-3.0536,-3.0418,-3.0378,-3.0396,-3.0079,-3.0046,-3.0426,-3.0605,-3.116,-3.2089,-3.2351,-3.2624,-3.2896,-3.2766,-3.2779,-3.2896,-3.2896,-3.2939,-3.3081,0.0,-3.2145,-3.1392,-3.1048,-3.0509,-2.9783,-2.936,-2.891,-2.8466,-2.8008,-2.7594,-2.7309,-2.7309,-2.7309,-2.7195,-2.6511,-2.6127,-2.5761,-2.5109,-2.4693,-2.4497,-2.4497,-2.4497,-2.4497,-2.4497,-2.4497,-2.4497,-2.4497,-2.4497,-2.4497,-2.4497,-2.4332,-2.4167,-2.3929,-2.3712,-2.3484,-2.3225,-2.3391,-2.3598,-2.3598,-2.3764,-2.3919,-2.3919,-2.3919,-2.3826,-2.3588,-2.3598,-2.3504,-2.3205,-2.2987,-2.2656,-2.2159,-2.2159,-2.2387,-2.2853,-2.3318,-2.3774,-2.4229,-2.4394,-2.4658,-2.5031,-2.5432,-2.5977,-2.6682,-2.7649,-2.8343,-3.1341,-3.1048,-3.0664,-3.0387,-3.0485,-3.0443,-2.9702,-2.9045,-2.8514,-2.8152,-2.803,-2.8121,-2.8224,-2.8628,-2.9166,-2.988,-2.9994,-2.9994,-2.9994,-2.9994,-2.9994,-2.9994,-2.9994,-2.9994,-2.9994,-2.9994,-2.9994,-2.9994,-2.957,-2.9259,-2.9145,-2.8814,-2.8802,-2.915,-2.9676,-3.0431,-3.1448,-3.1536,-3.1857,-3.2438,-3.2332,-3.2376,-3.2438,-3.2593,-3.281,-3.3068,-3.2605,-3.1809,-3.0859,-3.0508,-2.9727,-2.8767,-2.8505,-2.8279,-2.8066,-2.7452,-2.7262,-2.7309,-2.7214,-2.7262,-2.7226,-2.677,-2.6304,-2.5792,-2.5357,-2.4859,-2.4497,-2.4497,-2.4497,-2.4497,-2.4497,-2.4497,-2.4497,-2.4497,-2.4497,-2.4497,-2.4497,-2.4497,-2.4394,-2.4105,-2.4033,-2.3919,-2.3567,-2.3795,-2.4033,-2.4033,-2.428,-2.4497,-2.4497,-2.4497,-2.4363,-2.4074,-2.4033,-2.3846,-2.3391,-2.335,-2.2998,-2.218,-2.2356,-2.2749,-2.3329,-2.3691,-2.4084,-2.4487,-2.4497,-2.4615,-2.4828,-2.5115,-2.5485,-2.5988,-2.6905,-2.7638,-3.0939,-3.0141,-2.944,-2.9464,-2.9664,-2.973,-2.9194,-2.8807,-2.8597,-2.8566,-2.8566,-2.869,-2.9125,-2.958,-2.9922,-2.9984,-2.9994,-2.9994,-2.9994,-2.9994,-2.9994,-2.9994,-2.9994,-2.9994,-2.9994,-2.9994,-2.9994,-2.9994,-2.957,-2.9114,-2.869,-2.8449,-2.8375,-2.8459,-2.8918,-2.9749,-3.0946,-3.0521,-3.0791,-3.1669,-3.1901,-3.1901,-3.1713,-3.2201,-3.2649,-3.3068,-3.2605,-3.1372,-2.9637,-2.9591,-2.8473,-2.6847,-2.7228,-2.7404,-2.7357,-2.7034,-2.7081,-2.7262,-2.7034,-2.7081,-2.7226,-2.677,-2.6304,-2.5792,-2.5357,-2.4859,-2.4497,-2.4497,-2.4497,-2.4497,-2.4497,-2.4497,-2.4497,-2.4497,-2.4497,-2.4497,-2.4497,-2.4497,-2.4487,-2.4456,-2.4456,-2.4435,-2.4404,-2.4425,-2.4456,-2.4456,-2.4476,-2.4497,-2.4497,-2.4497,-2.4487,-2.4456,-2.4456,-2.427,-2.3867,-2.3867,-2.3619,-2.3122,-2.2718,-2.2904,-2.3795,-2.3857,-2.4084,-2.4487,-2.4497,-2.4497,-2.454,-2.454,-2.4828,-2.5274,-2.5746,-2.6657,-3.0285,-2.9326,-2.8462,-2.8869,-2.8386,-2.8067,-2.8974,-2.9093,-2.9042,-2.9042,-2.9042,-2.9011,-2.8897,-2.9487,-2.9901,-2.9611,-2.9808,-2.9994,-2.9994,-2.9994,-2.9994,-2.9994,-2.9994,-2.9994,-2.9994,-2.9994,-2.988,-2.9591,-2.9135,-2.8669,-2.8214,-2.7855,-2.7677,-2.7736,-2.8186,-2.8781,-2.9532,-2.952,-2.9612,-2.9818,-3.0509,-3.0958,-3.1169,-3.156,-3.2069,-3.2649,-3.1981,-3.0941,-2.9624,-2.9201,-2.8219,-2.7061,-2.7237,-2.7225,-2.7034,-2.6948,-2.6948,-2.7034,-2.6948,-2.7081,-2.7278,-2.7102,-2.6532,-2.5889,-2.5689,-2.5075,-2.4497,-2.4497,-2.4497,-2.4497,-2.4497,-2.4497,-2.4497,-2.4497,-2.4497,-2.4497,-2.4497,-2.4497,-2.4497,-2.4497,-2.4497,-2.4497,-2.4497,-2.4497,-2.4497,-2.4497,-2.4497,-2.4497,-2.4497,-2.4497,-2.4497,-2.4497,-2.4497,-2.4435,-2.4312,-2.4033,-2.3919,-2.398,-2.3608,-2.3515,-2.3909,-2.4146,-2.4332,-2.4497,-2.4497,-2.4497,-2.4497,-2.4497,-2.4658,-2.5041,-2.5744,-2.6494,-3.0295,-2.9207,-2.8185,-2.8578,-2.7734,-2.7237,-2.8731,-2.9083,-2.9166,-2.9466,-2.9528,-2.9425,-2.9104,-2.957,-2.9891,-2.957,-2.9787,-2.9994,-2.9994,-2.9994,-2.9994,-2.9994,-2.9994,-2.9994,-2.9994,-2.9994,-2.9808,-2.9342,-2.8876,-2.8411,-2.7945,-2.75,-2.7309,-2.7309,-2.7678,-2.8092,-2.8595,-2.8699,-2.8699,-2.8595,-2.9198,-2.9738,-3.0215,-3.0566,-3.1071,-3.1649,-3.1059,-3.0236,-2.9182,-2.8762,-2.8006,-2.7081,-2.6853,-2.666,-2.6482,-2.6283,-2.6412,-2.6676,-2.6581,-2.6863,-2.7289,-2.7133,-2.6563,-2.5854,-2.563,-2.5096,-2.4497,-2.4411,-2.4454,-2.4497,-2.4497,-2.4497,-2.4497,-2.4497,-2.4497,-2.4497,-2.4497,-2.4497,-2.4497,-2.4497,-2.4497,-2.4497,-2.4497,-2.4497,-2.4497,-2.4497,-2.4497,-2.4497,-2.4497,-2.4497,-2.4497,-2.4497,-2.4497,-2.4497,-2.4497,-2.426,-2.4219,-2.4476,-2.426,-2.4084,-2.4084,-2.4332,-2.4497,-2.4497,-2.4497,-2.4497,-2.4497,-2.4497,-2.4583,-2.4796,-2.5517,-2.6194,-3.1057,-2.99,-2.8694,-2.8701,-2.7982,-2.7548,-2.8411,-2.8618,-2.8887,-2.9808,-2.9994,-2.9994,-2.9984,-2.9994,-2.9994,-2.9984,-2.9994,-2.9994,-2.9994,-2.9994,-2.9994,-2.9994,-2.9994,-2.9994,-2.9994,-2.9994,-2.9798,-2.9332,-2.8866,-2.8411,-2.7945,-2.75,-2.7309,-2.7309,-2.7489,-2.7867,-2.8395,-2.8149,-2.8149,-2.8395,-2.8139,-2.8222,-2.8724,-2.9244,-2.9749,-3.017,-2.9897,-2.9126,-2.8047,-2.8283,-2.7696,-2.6537,-2.5885,-2.5619,-2.5528,-2.4995,-2.5394,-2.6176,-2.5869,-2.6445,-2.7226,-2.677,-2.6258,-2.5747,-2.5112,-2.4695,-2.4454,-2.4249,-2.4325,-2.4497,-2.4497,-2.4497,-2.4497,-2.4497,-2.4497,-2.4497,-2.4497,-2.4497,-2.4497,-2.4497,-2.4497,-2.4497,-2.4497,-2.4497,-2.4497,-2.4497,-2.4497,-2.4497,-2.4497,-2.4497,-2.4497,-2.4497,-2.4497,-2.4497,-2.4497,-2.4497,-2.4497,-2.4497,-2.4497,-2.4497,-2.4497,-2.4497,-2.4497,-2.4497,-2.4497,-2.4497,-2.4497,-2.4497,-2.4497,-2.4518,-2.4983,-2.5727,-3.0558,-2.9832,-2.9168,-2.9011,-2.8386,-2.7957,-2.8718,-2.8977,-2.927,-2.987,-2.9994,-2.9891,-2.957,-2.9777,-2.9891,-2.9559,-2.9777,-2.9994,-2.9994,-2.9994,-2.9994,-2.9994,-2.9994,-2.9994,-2.9994,-2.9704,-2.9321,-2.8856,-2.839,-2.7924,-2.7479,-2.7382,-2.7309,-2.7309,-2.7357,-2.7452,-2.7631,-2.7536,-2.7536,-2.7641,-2.7536,-2.7867,-2.8524,-2.8781,-2.9244,-2.9703,-2.9222,-2.874,-2.8225,-2.7814,-2.7274,-2.6771,-2.6601,-2.6121,-2.5501,-2.5361,-2.5488,-2.5738,-2.5775,-2.6313,-2.7013,-2.7059,-2.6445,-2.5659,-2.5446,-2.472,-2.4013,-2.4163,-2.4249,-2.4335,-2.4454,-2.4497,-2.4497,-2.4497,-2.4497,-2.4497,-2.4497,-2.4497,-2.4497,-2.4497,-2.4497,-2.4497,-2.4497,-2.4497,-2.4497,-2.4497,-2.4497,-2.4497,-2.4497,-2.4497,-2.4497,-2.4497,-2.4497,-2.4497,-2.4497,-2.4497,-2.4497,-2.4497,-2.4497,-2.4497,-2.4497,-2.4497,-2.4497,-2.4497,-2.4497,-2.4497,-2.4497,-2.4497,-2.4662,-2.4993,-2.5482,-2.6107,-3.1188,-3.0716,-3.0265,-3.0186,-2.9502,-2.8941,-2.9312,-2.9486,-2.9653,-2.9942,-2.9994,-2.9911,-2.9632,-2.9808,-2.9901,-2.9622,-2.9818,-2.9994,-2.9994,-2.9994,-2.9994,-2.9994,-2.9994,-2.9994,-2.9994,-2.958,-2.9114,-2.8649,-2.8183,-2.7728,-2.733,-2.7309,-2.7309,-2.7309,-2.7309,-2.7309,-2.7309,-2.7309,-2.7309,-2.7309,-2.7309,-2.7547,-2.7972,-2.8092,-2.8315,-2.8606,-2.8269,-2.8092,-2.7904,-2.716,-2.6767,-2.6557,-2.6195,-2.5718,-2.5179,-2.4908,-2.5112,-2.5454,-2.5245,-2.5712,-2.6422,-2.6243,-2.5717,-2.5122,-2.485,-2.4317,-2.3841,-2.3894,-2.4077,-2.4249,-2.4325,-2.4454,-2.4497,-2.4497,-2.4497,-2.4497,-2.4497,-2.4497,-2.4497,-2.4497,-2.4497,-2.4497,-2.4497,-2.4497,-2.4497,-2.4497,-2.4652,-2.4776,-2.4776,-2.4776,-2.4776,-2.4776,-2.4611,-2.4497,-2.4497,-2.4497,-2.4497,-2.4497,-2.4497,-2.4497,-2.4497,-2.4497,-2.4497,-2.4497,-2.4497,-2.459,-2.4776,-2.4776,-2.5003,-2.5502,-2.5947,-2.6401,-3.2377,-3.2049,-3.1641,-3.1719,-3.0975,-3.0197,-3.0099,-3.0047,-3.0047,-2.9994,-2.9994,-2.9994,-2.9994,-2.9994,-2.9994,-2.9994,-2.9994,-2.9984,-2.9942,-2.9932,-2.9911,-2.988,-2.987,-2.987,-2.987,-2.9446,-2.9001,-2.8587,-2.8121,-2.7686,-2.733,-2.7309,-2.7309,-2.7309,-2.7309,-2.7309,-2.7309,-2.7309,-2.7289,-2.7247,-2.7289,-2.7289,-2.7247,-2.7289,-2.7309,-2.7309,-2.7309,-2.7309,-2.7231,-2.6546,-2.6231,-2.6097,-2.5265,-2.4891,-2.4766,-2.4144,-2.4569,-2.5288,-2.454,-2.487,-2.5595,-2.4836,-2.45,-2.4345,-2.3726,-2.3664,-2.3711,-2.3547,-2.3807,-2.4163,-2.4206,-2.4335,-2.4454,-2.4497,-2.4497,-2.4497,-2.4497,-2.4497,-2.4497,-2.4497,-2.4497,-2.4497,-2.4497,-2.4497,-2.4507,-2.4559,-2.4921,-2.5199,-2.5241,-2.521,-2.5189,-2.5189,-2.4776,-2.4497,-2.4497,-2.4497,-2.4497,-2.4497,-2.4497,-2.4518,-2.4559,-2.4518,-2.4497,-2.4497,-2.4538,-2.4766,-2.5189,-2.523,-2.5513,-2.5947,-2.6418,-2.6635,-3.21,-3.1964,-3.1804,-3.1965,-3.1533,-3.0986,-3.0719,-3.0495,-3.0245,-3.0047,-2.9994,-2.9994,-2.9994,-2.9994,-2.9994,-2.9994,-2.9994,-2.987,-2.9508,-2.9456,-2.9321,-2.8949,-2.8907,-2.8907,-2.8907,-2.8493,-2.8183,-2.8079,-2.7655,-2.7413,-2.7309,-2.7309,-2.7309,-2.7309,-2.7309,-2.7309,-2.7309,-2.7309,-2.7123,0.0,-2.7133,-2.7123,-2.6781,-2.7143,-2.7309,-2.7309,-2.7309,-2.7167,-2.6986,-2.6788,-2.6509,-2.6096,-2.5901,-2.551,-2.5016,-2.4871,-2.4734,-2.4624,-2.4677,-2.4828,-2.5003,-2.5052,-2.4706,-2.4237,-2.4093,-2.3683,-2.3276,-2.345,-2.359,-2.3721,-2.411,-2.4249,-2.4282,-2.4454,-2.4497,-2.4497,-2.4497,-2.4497,-2.4497,-2.4497,-2.4497,-2.4497,-2.4497,-2.4497,-2.4621,-2.4983,-2.5127,-2.5313,-2.5699,-2.544,-2.5189,-2.5189,-2.4776,-2.4497,-2.4497,-2.4497,-2.4497,-2.4497,-2.4497,-2.4662,-2.5024,-2.4693,-2.4497,-2.4497,-2.4859,-2.5086,-2.5189,-2.5575,-2.5978,-2.647,-2.6573,-2.6812,-3.2437,-3.2363,-3.2201,-3.2512,-3.258,-3.2334,-3.1378,-3.0991,-3.064,-3.0099,-2.9994,-2.9994,-2.9994,-2.9994,-2.9994,-2.9994,-2.9994,-2.9829,-2.9373,-2.9301,-2.9135,-2.8669,-2.8618,-2.8618,-2.8618,-2.8193,-2.7924,-2.7924,-2.751,-2.7309,-2.7309,-2.7309,-2.7309,-2.7309,-2.7309,-2.7309,-2.7309,-2.7309,-2.7071,-2.6625,-2.7092,-2.709,-2.6732,-2.7016,-2.7129,-2.7081,-2.6976,-2.6832,-2.6699,-2.6554,-2.6342,-2.61,-2.5965,-2.5682,-2.5342,-2.4912,-2.4746,-2.4639,-2.4159,-2.4126,-2.4319,-2.4202,-2.394,-2.3664,-2.3664,-2.3408,-2.3144,-2.3276,-2.3406,-2.3547,-2.3807,-2.3937,-2.4024,-2.4153,-2.4325,-2.4497,-2.4497,-2.4497,-2.4497,-2.4497,-2.4683,-2.4828,-2.4828,-2.5003,-2.5264,-2.5502,-2.573,-2.5958,-2.6175,-2.5813,-2.5544,-2.5544,-2.49,-2.459,-2.4817,-2.4828,-2.491,-2.5171,-2.5181,-2.5295,-2.5533,-2.5306,-2.5181,-2.5181,-2.542,-2.5647,-2.5875,-2.6103,-2.6501,-2.6946,-2.6946,-2.7081,-3.2738,-3.2825,-3.2742,-3.3226,-3.3637,-3.3557,-3.2113,-3.1531,-3.1073,-3.0203,-2.9995,-2.9994,-2.9994,-2.9994,-2.9973,-2.9891,-2.988,-2.9684,-2.9145,-2.9063,-2.8897,-2.8431,-2.838,-2.838,-2.838,-2.8028,-2.781,-2.781,-2.7469,-2.7309,-2.7309,-2.7309,-2.7309,-2.7309,-2.7309,-2.7309,-2.7309,-2.7309,-2.6993,-2.6419,-2.6744,-2.688,-2.6853,-2.6723,-2.6733,-2.6805,-2.6602,-2.6448,-2.64,-2.6197,-2.6052,-2.6004,-2.5781,-2.5693,-2.5586,-2.4824,-2.4717,-2.4795,-2.3652,-2.3437,-2.3623,-2.3218,-2.3091,-2.3081,-2.3013,-2.2984,-2.2974,-2.2896,-2.3109,-2.3351,-2.3394,-2.3574,-2.3754,-2.3797,-2.41,-2.4368,-2.4368,-2.443,-2.4481,-2.4481,-2.4905,-2.5259,-2.5303,-2.5637,-2.5951,-2.6034,-2.6366,-2.6646,-2.6718,-2.6262,-2.5875,-2.5875,-2.5078,-2.4683,-2.5148,-2.5189,-2.542,-2.5854,-2.5875,-2.5962,-2.6034,-2.6044,-2.6086,-2.6159,-2.6086,-2.6231,-2.6615,-2.6698,-2.6926,-2.7309,-2.7309,-2.7309,-3.2046,-3.2659,-3.3361,-3.3995,-3.3916,-3.3407,-3.2581,-3.2118,-3.1549,-3.0346,-3.0025,-2.9994,-2.9994,-2.9994,-2.986,-2.9466,-2.9394,-2.9094,-2.8235,-2.811,-2.7945,-2.7537,-2.7486,-2.7486,-2.7486,-2.7434,-2.7392,-2.7392,-2.734,-2.7309,-2.7309,-2.7309,-2.7309,-2.7309,-2.7309,-2.7309,-2.7309,-2.7309,-2.6744,-2.5747,-2.5559,-2.5855,-2.6534,-2.5962,-2.5992,-2.6544,-2.6496,-2.6352,-2.6149,-2.6091,-2.5955,-2.5732,-2.5684,-2.5693,-2.5625,-2.5166,-2.4775,-2.4424,-2.3887,-2.3496,-2.3169,-2.311,-2.3091,-2.3023,-2.2705,-2.2598,-2.2519,-2.2158,-2.2357,-2.2683,-2.2906,-2.3269,-2.358,-2.3754,-2.3841,-2.3884,-2.3884,-2.4186,-2.4513,-2.4513,-2.5011,-2.5532,-2.5747,-2.5844,-2.6065,-2.647,-2.6573,-2.676,-2.7164,-2.6459,-2.5875,-2.5875,-2.5078,-2.4683,-2.5148,-2.5189,-2.542,-2.5854,-2.5875,-2.6061,-2.6511,-2.6521,-2.6708,-2.7112,-2.6729,-2.6553,-2.6615,-2.7019,-2.7247,-2.7309,-2.7309,-2.7309,-3.2123,-3.3212,-3.4202,-3.4256,-3.4256,-3.3946,-3.3031,-3.2539,-3.1807,-3.0389,-2.997,-2.9874,-2.9995,-2.9994,-2.9849,-2.9384,-2.9301,-2.898,-2.8059,-2.7924,-2.7759,-2.7361,-2.7309,-2.7309,-2.7309,-2.7309,-2.7309,-2.7309,-2.7309,-2.7309,-2.7309,-2.7309,-2.7309,-2.7309,-2.7309,-2.7309,-2.7309,-2.7309,-2.6971,-2.6309,-2.5811,-2.5779,-2.6294,-2.595,-2.5889,-2.5924,-2.5476,-2.5411,-2.5543,-2.5543,-2.5594,-2.5664,-2.5459,-2.5361,-2.5273,-2.46,-2.4228,-2.4004,-2.3574,-2.3257,-2.3091,-2.3091,-2.2935,-2.2711,-2.2568,-2.2344,-2.2129,-2.1934,-2.2187,-2.2519,-2.2647,-2.2961,-2.3319,-2.3406,-2.3594,-2.3816,-2.3816,-2.4152,-2.4655,-2.5148,-2.5594,-2.6002,-2.6387,-2.6568,-2.677,-2.6978,-2.7009,-2.7081,-2.7278,-2.6718,-2.6314,-2.6314,-2.5678,-2.5482,-2.5937,-2.5978,-2.6175,-2.6667,-2.6698,-2.6791,-2.6988,-2.7009,-2.7102,-2.7299,-2.7102,-2.7009,-2.7009,-2.7206,-2.7309,-2.7309,-2.7309,-2.7309,-3.2239,-3.329,-3.4165,-3.4058,-3.4192,-3.4107,-3.3123,-3.2684,-3.2089,-3.0604,-3.0127,-3.0001,-3.0021,-2.9797,-2.9497,-2.9032,-2.8949,-2.8669,-2.7862,-2.7759,-2.7634,-2.7351,-2.7309,-2.7309,-2.7309,-2.7309,-2.7309,-2.7309,-2.7309,-2.7309,-2.7309,-2.7309,-2.7309,-2.7309,-2.7309,-2.7309,-2.7309,-2.7053,-2.6863,-2.6794,-2.5996,-2.5769,-2.6004,-2.5885,-2.5658,-2.5389,-2.482,-2.4707,-2.4912,-2.5067,-2.5195,-2.5333,-2.5156,-2.5047,-2.4814,-2.4062,-2.3789,-2.3721,-2.3247,-2.3091,-2.3081,-2.2974,-2.2721,-2.249,-2.2383,-2.2139,-2.1885,-2.1885,-2.2187,-2.2539,-2.2646,-2.2945,-2.3286,-2.3393,-2.3711,-2.3984,-2.4092,-2.4394,-2.4886,-2.5701,-2.6051,-2.6303,-2.6744,-2.6986,-2.7119,-2.7119,-2.7119,-2.7119,-2.7119,-2.667,-2.6383,-2.6383,-2.5971,-2.5889,-2.6341,-2.6383,-2.6578,-2.7088,-2.7119,-2.7119,-2.7119,-2.7119,-2.7119,-2.7119,-2.7119,-2.7167,-2.7309,-2.7309,-2.7309,-2.7309,-2.7309,-2.7309,-3.2022,-3.216,-3.2353,-3.3289,-3.3447,-3.3199,-3.2561,-3.2617,-3.2394,-3.1111,-3.083,-3.0696,-3.0204,-2.9328,-2.8535,-2.8069,-2.7997,-2.7831,-2.7413,-2.734,-2.733,-2.7309,-2.7309,-2.7309,-2.7309,-2.7309,-2.7309,-2.7309,-2.7309,-2.7309,-2.7309,-2.7309,-2.7309,-2.7309,-2.7309,-2.7309,-2.7309,-2.6357,-2.6074,-2.6496,-2.5569,-2.535,-2.5723,-2.5341,-2.5135,-2.5116,-2.5096,-2.4814,-2.4482,-2.4893,-2.4834,-2.4521,-2.4912,-2.4814,-2.4394,-2.3955,-2.3789,-2.3721,-2.3247,-2.3091,-2.3033,-2.2676,-2.2529,-2.2441,-2.2041,-2.1904,-2.1885,-2.1885,-2.2187,-2.2607,-2.2955,-2.3428,-2.3857,-2.4258,-2.4365,-2.4492,-2.4959,-2.5047,-2.5279,-2.5924,-2.6109,-2.6167,-2.6486,-2.6544,-2.6544,-2.6544,-2.6544,-2.6544,-2.6544,-2.6151,-2.5822,-2.5822,-2.542,-2.5339,-2.5792,-2.5822,-2.6023,-2.6514,-2.6544,-2.6544,-2.6544,-2.6544,-2.6544,-2.6544,-2.6544,-2.6784,-2.7309,-2.7309,-2.7309,-2.7309,-2.7309,-2.7309,-3.2184,-3.2303,-3.2384,-3.2611,-3.2449,-3.2278,-3.2269,-3.2228,-3.2066,-3.1487,-3.1246,-3.0963,-3.0304,-2.9953,-2.96,-2.8986,-2.8956,-2.8838,-2.8242,-2.8131,-2.8017,-2.7717,-2.7686,-2.7572,-2.734,-2.7309,-2.7309,-2.7309,-2.7309,-2.7309,-2.7309,-2.7309,-2.7309,-2.7309,-2.7309,-2.7214,-2.7034,-2.6536,-2.624,-2.6245,-2.5711,-2.5586,-2.5684,-2.5566,-2.5342,-2.5116,-2.5116,-2.4814,-2.4404,-2.4287,-2.4316,-2.4404,-2.4287,-2.415,-2.3965,-2.3535,-2.3369,-2.3305,-2.3149,-2.2916,-2.2672,-2.2568,-2.2334,-2.208,-2.1934,-2.1885,-2.1885,-2.1885,-2.2383,-2.2906,-2.3115,-2.3672,-2.4297,-2.4727,-2.4834,-2.4961,-2.54,-2.5498,-2.5547,-2.579,-2.5955,-2.6139,-2.6245,-2.64,-2.6496,-2.6496,-2.6496,-2.6496,-2.6496,-2.6355,-2.6265,-2.6265,-2.6114,-2.6084,-2.6245,-2.6265,-2.6325,-2.6486,-2.6496,-2.6496,-2.6496,-2.6496,-2.6496,-2.6496,-2.6496,-2.6699,-2.7034,-2.7034,-2.7129,-2.7309,-2.7309,-2.7309,-3.2132,-3.2116,-3.1943,-3.1626,-3.1547,-3.1474,-3.1425,-3.1672,-3.1833,-3.1605,-3.1548,-3.1347,-3.0824,-3.0965,-3.074,-2.9585,-2.96,-2.9452,-2.8699,-2.8618,-2.8504,-2.8193,-2.8152,-2.7976,-2.7521,-2.7479,-2.7475,-2.732,-2.7309,0.0,-2.7309,-2.7309,-2.7309,-2.7309,-2.7059,-2.6917,-2.69,-2.6403,-2.6154,-2.61,-2.582,-2.5693,-2.5684,-2.5586,-2.543,-2.5273,-2.498,-2.4687,-2.4394,-2.4111,-2.4082,-2.418,-2.3896,-2.3701,-2.3535,-2.3198,-2.3091,-2.3091,-2.3091,-2.2916,-2.2705,-2.2559,-2.2324,-2.21,-2.21,-2.21,-2.2158,-2.2441,-2.293,-2.3428,-2.3775,-2.4326,-2.4884,-2.5225,-2.5293,-2.5371,-2.5625,-2.5693,-2.5693,-2.5693,-2.582,-2.5965,-2.5965,-2.611,-2.6217,-2.6217,-2.6217,-2.6217,-2.6217,-2.6217,-2.6217,-2.6217,-2.6217,-2.6217,-2.6217,-2.6217,-2.6217,-2.6217,-2.6217,-2.6217,-2.6217,-2.6217,-2.6217,-2.6217,-2.6217,-2.6352,-2.6651,-2.6794,-2.6986,-2.7177,-2.7262,-2.7309,0.0,0.0,0.0,-3.0418,-3.0668,-3.0807,-2.9973,-3.0848,-3.1744,-3.1558,-3.1773,-3.1977,-3.1793,-3.2126,-3.1796,-2.9829,-2.9699,-2.9582,-2.8799,-2.8649,-2.8649,-2.8628,-2.8628,-2.8452,-2.7986,-2.7945,-2.7759,-2.7361,-2.733,-2.732,-2.7309,-2.7309,-2.7309,-2.7309,-2.6582,-2.6421,-2.69,-2.5979,-2.5732,-2.61,-2.583,-2.5693,-2.5674,-2.5283,-2.5322,-2.5645,-2.4834,-2.4453,-2.4453,-2.4414,-2.416,-2.3789,-2.3779,-2.3516,-2.3091,-2.3091,-2.3091,-2.3091,-2.3091,-2.3091,-2.3013,-2.2646,-2.251,-2.251,-2.251,-2.2529,-2.2725,-2.3555,-2.3809,-2.4023,-2.492,-2.541,-2.5693,-2.5693,-2.5693,-2.5693,-2.5693,-2.5693,-2.5693,-2.5693,-2.5693,-2.5693,-2.5693,-2.5693,-2.5693,-2.5693,-2.5693,-2.5693,-2.5693,-2.5693,-2.5693,-2.5693,-2.5693,-2.5693,-2.5693,-2.5693,-2.5693,-2.5693,-2.5693,-2.5693,-2.5693,-2.5693,-2.5693,-2.5693,-2.5693,-2.582,-2.61,-2.6602,-2.69,-2.69,-2.7177,-2.7262,-3.1603,0.0,0.0,0.0,0.0,0.0,-2.9201,-2.9803,-3.0563,-3.1297,-3.1801,-3.2269,-3.2636,-3.2973,-3.2947,-3.2218,-3.1668,-3.1113,-3.03,-3.0003,-2.9682,-2.9156,-2.9114,-2.8928,-2.8473,-2.8421,-2.8235,0.0,-2.7738,-2.7603,-2.733,-2.7309,-2.7309,-2.7309,-2.69,-2.6662,-2.6592,-2.6174,-2.5885,-2.583,-2.5732,-2.5693,-2.5684,-2.5557,-2.5567,-2.5674,-2.543,-2.5323,-2.5255,-2.4355,-2.3896,-2.376,-2.3437,-2.3198,-2.3091,-2.3091,-2.3091,-2.3091,-2.3091,-2.2896,-2.2666,-2.2549,-2.251,-2.251,-2.251,-2.2949,-2.3486,-2.3721,-2.4238,-2.4844,-2.541,-2.5644,-2.5693,-2.5693,-2.5693,-2.5693,-2.5693,-2.5693,-2.5693,-2.5693,-2.5693,-2.5693,-2.5693,-2.5693,-2.5693,-2.5693,-2.5693,-2.5693,-2.5693,-2.5693,-2.5693,-2.5693,-2.5693,-2.5693,-2.5693,-2.5693,-2.5693,-2.5693,-2.5693,-2.5693,-2.5693,-2.5693,-2.5693,-2.5693,-2.5693,-2.5732,-2.583,-2.6159,-2.64,-2.6592,-2.6688,-2.6736,-3.1511,-3.1058,-3.0459,-2.9827,0.0,0.0,-2.8507,-2.9176,-3.002,-3.0635,-3.1336,-3.1964,-3.2315,-3.2803,-3.3062,-3.2807,-3.2535,-3.2049,-3.1235,-3.0888,-3.0441,-2.9673,-2.9591,-2.9415,-2.8949,-2.8897,-2.8628,-2.7976,-2.7924,-2.7728,-2.733,-2.7167,-2.7167,-2.7309,-2.6754,-2.6458,-2.6496,-2.5734,-2.5407,-2.5459,-2.5226,-2.5283,-2.5449,-2.5273,-2.5343,-2.5664,-2.5304,-2.5293,-2.5371,-2.4248,-2.3896,-2.3994,-2.3335,-2.3091,-2.3091,-2.3091,-2.3091,-2.3091,-2.3091,-2.2935,-2.273,-2.273,-2.273,-2.273,-2.273,-2.3252,-2.3828,-2.4004,-2.4678,-2.541,-2.5625,-2.5693,-2.5693,-2.5693,-2.5693,-2.5693,-2.5693,-2.5693,-2.5693,-2.5693,-2.5693,-2.5693,-2.5693,-2.5693,-2.5693,-2.5693,-2.5693,-2.5693,-2.5693,-2.5693,-2.5693,-2.5693,-2.5693,-2.5693,-2.5693,-2.5693,-2.5693,-2.5693,-2.5693,-2.5693,-2.5693,-2.5693,-2.5693,-2.5693,-2.5693,-2.5693,-2.5693,-2.5965,-2.6245,-2.6496,-2.6496,-2.6496,-3.1453,-3.1029,-3.0433,-2.9704,-2.9302,0.0,-2.7959,-2.8788,-2.9707,-2.9629,-3.047,-3.1235,-3.1298,-3.1997,-3.2506,-3.2296,-3.2587,-3.2546,-3.1811,-3.1407,-3.0927,-3.0193,-3.0047,-2.9881,-2.9415,-2.9384,-2.9021,-2.8142,-2.7976,-2.7728,-2.733,-2.7081,-2.7034,-2.7262,-2.634,-2.6016,-2.6368,-2.5117,-2.4658,-2.5037,-2.4648,-2.4697,-2.5106,-2.4717,-2.499,-2.5645,-2.4855,-2.4756,-2.5057,-2.4199,-2.4053,-2.4268,-2.3413,-2.3091,-2.3091,-2.3091,-2.3091,-2.3091,-2.3091,-2.3091,-2.3091,-2.3091,-2.3091,-2.3091,-2.3091,-2.3477,-2.3955,-2.4434,-2.5079,-2.5693,-2.5693,-2.5693,-2.5693,-2.5693,-2.5693,-2.5693,-2.5693,-2.5693,-2.5693,-2.5693,-2.5693,-2.5693,-2.5693,-2.5693,-2.5693,-2.5693,-2.5693,-2.5693,-2.5693,-2.5693,-2.5693,-2.5693,-2.5693,-2.5693,-2.5693,-2.5693,-2.5693,-2.5693,-2.5693,-2.5693,-2.5693,-2.5693,-2.5693,-2.5693,-2.5693,-2.5693,-2.5693,-2.5965,-2.6197,-2.64,-2.64,-2.64,-3.122,-3.0881,-3.0447,-2.9901,-2.9299,0.0,-2.7754,-2.7902,-2.8267,-2.8409,-2.9327,-3.0244,-3.0683,-3.1245,-3.178,-3.2176,-3.2513,-3.2602,-3.23,-3.1617,-3.1081,-3.0701,-3.0443,-3.0214,-2.987,-2.986,-2.9632,-2.9073,-2.8349,-2.7728,-2.733,-2.7262,-2.7177,-2.6996,-2.6559,-2.6139,-2.569,-2.5218,-2.4805,-2.4551,-2.4814,-2.5028,-2.5125,-2.5352,-2.5528,-2.5674,-2.5508,-2.5322,-2.5077,-2.4512,-2.4141,-2.3857,-2.3296,-2.3091,-2.3091,-2.3091,-2.3091,-2.3091,-2.3091,-2.3091,-2.3091,-2.3091,-2.3091,-2.3091,-2.3091,-2.3637,-2.4463,-2.5206,-2.5557,-2.5693,-2.5693,-2.5693,-2.5693,-2.5693,-2.5693,-2.5693,-2.5693,-2.5693,-2.5693,-2.5693,-2.5693,-2.5693,-2.5693,-2.5693,-2.5693,-2.5693,-2.5693,-2.5693,-2.5693,-2.5693,-2.5693,-2.5693,-2.5693,-2.5693,-2.5693,-2.5693,-2.5693,-2.5693,-2.5693,-2.5693,-2.5693,-2.5693,-2.5693,-2.5693,-2.5693,-2.5693,-2.5693,-2.5732,-2.5781,-2.5878,-2.5878,-2.5878,-3.1102,-3.0791,-3.0357,-2.9901,-2.9261,0.0,0.0,-2.7648,-2.779,-2.7704,-2.836,-2.9126,-2.9628,-3.0218,-3.0771,-3.1323,-3.1668,-3.2019,-3.2303,-3.226,-3.1948,-3.1276,-3.094,-3.0588,-3.0047,-2.9994,-2.9704,-2.9011,-2.8219,-2.7631,-2.733,-2.7071,-2.688,-2.69,-2.6343,-2.5827,-2.5503,-2.4788,-2.4424,-2.4414,-2.4424,-2.4705,-2.5125,-2.5303,-2.5527,-2.5664,-2.5226,-2.4951,-2.4697,-2.4043,-2.3608,-2.3437,-2.3179,-2.3091,-2.3091,-2.3091,-2.3091,-2.3091,-2.3091,-2.3091,-2.3091,-2.3091,-2.3247,-2.3467,-2.3467,-2.4062,-2.4883,-2.5499,-2.5693,-2.5693,-2.5693,-2.5693,-2.5693,-2.5693,-2.5693,-2.5693,-2.5693,-2.5693,-2.5693,-2.5693,-2.5693,-2.5693,-2.5693,-2.5693,-2.5693,-2.5693,-2.5693,-2.5693,-2.5693,-2.5693,-2.5693,-2.5693,-2.5693,-2.5693,-2.5693,-2.5693,-2.5693,-2.5693,-2.5693,-2.5693,-2.5693,-2.5693,-2.5693,-2.5693,-2.5693,-2.5693,-2.5693,-2.5693,-2.5693,-2.5693,-2.5693,-2.5693,-3.1205,-3.0817,-3.0332,-3.0023,-2.925,-2.8425,0.0,0.0,0.0,-2.7223,-2.7557,-2.8084,-2.8499,-2.9164,-2.9767,-3.0218,-3.0673,-3.127,-3.2037,-3.2605,-3.259,-3.1717,-3.1338,-3.0903,-3.012,-2.9912,-2.9477,-2.8556,-2.7945,-2.7544,-2.7245,-2.6832,-2.6651,-2.6747,-2.5932,-2.5417,-2.528,-2.4317,-2.3916,-2.417,-2.3994,-2.4277,-2.4951,-2.5117,-2.5352,-2.5566,-2.4853,-2.4443,-2.4248,-2.3545,-2.3169,-2.3091,-2.3091,-2.3091,-2.3091,-2.3091,-2.3091,-2.3091,-2.3091,-2.3091,-2.3091,-2.3091,-2.3437,-2.3818,-2.3984,-2.4521,-2.5166,-2.5605,-2.5693,-2.5693,-2.5693,-2.5693,-2.5693,-2.5693,-2.5693,-2.5693,-2.5693,-2.5693,-2.5693,-2.5693,-2.5693,-2.5693,-2.5693,-2.5693,-2.5693,-2.5693,-2.5693,-2.5693,-2.5693,-2.5693,-2.5693,-2.5693,-2.5693,-2.5693,-2.5693,-2.5693,-2.5693,-2.5693,-2.5693,-2.5693,-2.5693,-2.5693,-2.5693,-2.5693,-2.5693,-2.5693,-2.5693,-2.5693,-2.5693,-2.5693,-2.5693,-2.5693,-3.1502,-3.1178,-3.0834,-3.0503,-2.9504,-2.8425,-2.7663,0.0,-2.7007,-2.6643,0.0,-2.7394,-2.7457,0.0,0.0,-2.9063,-2.9966,-3.0869,-3.1417,-3.1829,-3.1922,-3.1649,-3.1343,-3.0935,-3.0149,-2.964,-2.9001,-2.8069,-2.7906,-2.7592,-2.6969,-2.69,-2.6651,-2.6197,-2.5732,-2.5174,-2.4538,-2.4023,-2.3613,-2.3247,-2.3958,-2.4394,-2.4521,-2.5303,-2.5469,-2.5137,-2.5086,-2.456,-2.3857,-2.375,-2.3486,-2.3091,-2.3091,-2.3091,-2.3091,-2.3091,-2.3091,-2.3091,-2.3091,-2.3091,-2.3091,-2.3091,-2.3437,-2.3926,-2.4734,-2.5037,-2.5166,-2.5605,-2.5693,-2.5693,-2.5693,-2.5693,-2.5693,-2.5693,-2.5693,-2.5693,-2.5693,-2.5693,-2.5693,-2.5693,-2.5693,-2.5693,-2.5693,-2.5693,-2.5693,-2.5693,-2.5693,-2.5693,-2.5693,-2.5693,-2.5693,-2.5693,-2.5693,-2.5693,-2.5693,-2.5693,-2.5693,-2.5693,-2.5693,-2.5693,-2.5693,-2.5693,-2.5693,-2.5693,-2.5693,-2.5693,-2.5693,-2.5693,-2.5693,-2.5693,-2.5693,-2.5693,-3.1472,-3.0944,-3.0341,-2.9955,-2.8994,-2.7973,-2.7364,-2.7263,-2.729,-2.7012,0.0,0.0,0.0,0.0,0.0,0.0,-2.9829,-3.0319,-3.0871,-3.092,-3.1069,-3.1508,-3.1459,-3.1027,-2.9955,-2.9149,-2.8325,-2.74,-2.7204,-2.6866,-2.6276,-2.6355,-2.6342,-2.61,-2.5285,-2.4702,-2.4414,-2.375,-2.3447,-2.3525,-2.3887,-2.418,-2.4424,-2.4805,-2.4863,-2.4678,-2.4434,-2.4121,-2.3769,-2.3516,-2.3257,-2.3091,-2.3091,-2.3091,-2.3091,-2.3091,-2.3091,-2.3091,-2.3091,-2.3091,-2.3179,-2.3676,-2.4004,-2.4316,-2.5195,-2.5459,-2.5498,-2.5635,-2.5693,-2.5693,-2.5693,-2.5693,-2.5693,-2.5693,-2.5693,-2.5693,-2.5693,-2.5693,-2.5693,-2.5693,-2.5693,-2.5693,-2.5693,-2.5693,-2.5693,-2.5693,-2.5693,-2.5693,-2.5693,-2.5693,-2.5693,-2.5693,-2.5693,-2.5693,-2.5693,-2.5693,-2.5693,-2.5693,-2.5693,-2.5693,-2.5693,-2.5693,-2.5693,-2.5693,-2.5693,-2.5693,-2.5693,-2.5693,-2.5693,-2.5693,-2.5693,-2.5693,-3.1299,-3.0668,-2.9867,-2.9484,-2.8485,-2.7443,-2.6973,-2.7192,-2.747,-2.7316,-2.772,0.0,0.0,0.0,-2.9026,-2.949,0.0,-2.993,-3.0331,-3.0198,-3.0371,-3.1165,-3.1156,-3.0695,-2.9721,-2.8652,-2.7721,-2.6969,-2.6519,-2.6177,-2.5919,-2.6018,-2.6052,-2.6004,-2.5075,-2.4531,-2.4414,-2.3637,-2.3418,-2.3613,-2.373,-2.3945,-2.4248,-2.4365,-2.4355,-2.4228,-2.3926,-2.3721,-2.3584,-2.3227,-2.3091,-2.3091,-2.3091,-2.3091,-2.3091,-2.3091,-2.3091,-2.3091,-2.3091,-2.3091,-2.3237,-2.4141,-2.4414,-2.458,-2.5421,-2.5693,-2.5693,-2.5693,-2.5693,-2.5693,-2.5693,-2.5693,-2.5693,-2.5693,-2.5693,-2.5693,-2.5693,-2.5693,-2.5693,-2.5693,-2.5693,-2.5693,-2.5693,-2.5693,-2.5693,-2.5693,-2.5693,-2.5693,-2.5693,-2.5693,-2.5693,-2.5693,-2.5693,-2.5693,-2.5693,-2.5693,-2.5693,-2.5693,-2.5693,-2.5693,-2.5693,-2.5693,-2.5693,-2.5693,-2.5693,-2.5693,-2.5693,-2.5693,-2.5693,-2.5693,-2.5693,-2.5693,-3.1108,-3.0465,-2.9709,-2.9372,-2.8174,-2.6952,-2.6589,-2.6927,-2.7316,-2.7281,-2.772,-2.8109,-2.8134,-2.8561,-2.89,-2.8913,-2.9428,0.0,0.0,-2.9817,-3.0022,-3.0667,-3.0138,-2.9687,-2.9503,-2.8185,-2.7197,0.0,-2.6246,-2.5882,-2.6099,-2.6091,-2.5955,-2.5732,-2.5283,-2.4844,-2.4424,-2.3984,-2.3564,-2.312,-2.3584,-2.3799,-2.3828,-2.4228,-2.4199,-2.3809,-2.3799,-2.3545,-2.311,-2.3101,-2.3091,-2.3091,-2.3091,-2.3091,-2.3091,-2.3091,-2.3091,-2.3091,-2.3091,-2.3091,-2.3237,-2.4141,-2.4414,-2.458,-2.5421,-2.5693,-2.5693,-2.5693,-2.5693,-2.5693,-2.5693,-2.5693,-2.5693,-2.5693,-2.5693,-2.5693,-2.5693,-2.5693,-2.5693,-2.5693,-2.5693,-2.5693,-2.5693,-2.5693,-2.5693,-2.5693,-2.5693,-2.5693,-2.5693,-2.5693,-2.5693,-2.5693,-2.5693,-2.5693,-2.5693,-2.5693,-2.5693,-2.5693,-2.5693,-2.5693,-2.5693,-2.5693,-2.5693,-2.5693,-2.5693,-2.5693,-2.5693,-2.5693,-2.5693,-2.5693,-2.5693,-2.5693,0.0,0.0,-2.9725,-2.9494,0.0,-2.7878,-2.7629,-2.7971,-2.8373,-2.8373,-2.8825,-2.9227,-2.9227,-2.9377,-2.9503,-2.9503,-2.9666,-2.9792,0.0,-2.9792,-2.9938,-3.0316,-2.9893,-2.9533,-2.9432,-2.7939,-2.6832,-2.6468,-2.5762,0.0,-2.5416,-2.5711,-2.5781,-2.5693,-2.5303,-2.5047,-2.4844,-2.4141,-2.3711,-2.3574,-2.3428,-2.3359,-2.3315,-2.3461,-2.3452,-2.3359,-2.3359,-2.3227,-2.3091,-2.3091,-2.3091,-2.3091,-2.3091,-2.3091,-2.3091,-2.3091,-2.3091,-2.3091,-2.3091,-2.3091,-2.3237,-2.4141,-2.4414,-2.458,-2.5421,-2.5693,-2.5693,-2.5693,-2.5693,-2.5693,-2.5693,-2.5693,-2.5693,-2.5693,-2.5693,-2.5693,-2.5693,-2.5693,-2.5693,-2.5693,-2.5693,-2.5693,-2.5693,-2.5693,-2.5693,-2.5693,-2.5693,-2.5693,-2.5693,-2.5693,-2.5693,-2.5693,-2.5693,-2.5693,-2.5693,-2.5693,-2.5693,-2.5693,-2.5693,-2.5693,-2.5693,-2.5693,-2.5693,-2.5693,-2.5693,-2.5693,-2.5693,-2.5693,-2.5693,-2.5693,-2.5693,-2.5889,-3.0571,-3.0188,0.0,-2.963,-2.9111,0.0,-2.8398,0.0,-2.895,-2.9202,-2.9691,-3.0143,-3.0331,-3.0206,-3.008,-3.008,-2.9917,-2.9792,0.0,-2.9792,-2.9878,-3.0047,-2.9653,-2.9303,-2.9125,-2.7544,-2.6351,-2.5987,-2.5162,-2.4678,0.0,0.0,-2.5498,-2.5498,-2.5371,-2.5225,-2.5116,-2.4521,-2.4092,-2.3789,-2.3506,-2.3247,-2.3091,-2.3091,-2.3091,-2.3091,-2.3091,-2.3091,-2.3091,-2.3091,-2.3091,-2.3091,-2.3091,-2.3091,-2.3091,-2.3091,-2.3091,-2.3091,-2.3091,-2.3091,-2.3237,-2.4141,-2.4414,-2.458,-2.5421,-2.5693,-2.5693,-2.5693,-2.5693,-2.5693,-2.5693,-2.5693,-2.5693,-2.5693,-2.5693,-2.5693,-2.5693,-2.5693,-2.5693,-2.5693,-2.5693,-2.5693,-2.5693,-2.5693,-2.5693,-2.5693,-2.5693,-2.5693,-2.5693,-2.5693,-2.5742,-2.5947,-2.5967,-2.6035,-2.6132,-2.6055,-2.5967,-2.5967,-2.5771,-2.5693,-2.5693,-2.5693,-2.5693,-2.5693,-2.5693,-2.5693,-2.5693,-2.5693,-2.5693,-2.5693,-2.5693,-2.6055]},{"header":{"parameterUnit":"m.s-1","parameterCategory":1,"la1":30.6,"la2":29.2853,"lo1":-89.7004,"lo2":-87.6739,"dy":0.0162,"dx":0.0183,"nx":112,"ny":82,"refTime":"2026-05-15T12:00:00:Z","depth":0,"parameterNumber":3,"parameterNumberName":"V-component_of_WINDS"},"data":[0.0,0.0,0.0,0.0,0.0,0.0,0.0,0.0,0.0,0.0,0.0,0.0,0.0,0.0,0.0,0.0,0.0,0.0,0.0,0.0,0.0,0.0,0.0,0.0,0.0,0.0,0.0,0.0,0.0,0.0,0.0,0.0,0.0,0.0,0.0,0.0,0.0,0.0,0.0,0.0,0.0,0.0,0.0,0.0,0.0,0.0,0.0,0.0,0.0,0.0,0.0,0.0,0.0,0.0,0.0,0.0,0.0,0.0,0.0,0.0,0.0,0.0,0.0,0.0,0.0,0.0,0.0,0.0,0.0,0.0,0.0,0.0,0.0,0.0,0.0,0.0,0.0,0.0,0.0,0.0,0.0,0.0,0.0,0.0,0.0,0.0,0.0,0.0,0.0,0.0,0.9505,0.9669,0.924,0.8862,0.8583,0.8223,0.7926,0.7691,0.0,0.0,0.0,0.0,0.0,0.0,0.0,0.0,0.0,0.0,0.0,0.0,0.0,0.0,0.0,0.0,0.0,0.0,0.0,0.0,0.0,0.0,0.0,0.0,0.0,0.0,0.0,0.0,0.0,0.0,0.0,0.0,0.0,0.0,0.0,0.0,0.0,0.0,0.0,0.0,0.0,0.0,0.0,0.0,0.0,0.0,0.0,0.0,0.0,0.0,0.0,0.0,0.0,0.0,0.0,0.0,0.0,0.0,0.0,0.0,0.0,0.0,0.0,0.0,0.0,0.0,0.0,0.0,0.0,0.0,0.0,0.0,0.0,0.0,0.0,0.0,0.0,0.0,0.0,0.0,0.0,0.0,0.0,0.0,0.0,0.0,0.0,0.0,0.0,0.0,0.0,0.0,0.0,0.0,0.0,0.0,0.0,0.0,0.0,0.0,0.0,0.0,0.0,0.0,1.0497,1.0484,1.0013,0.9523,0.9288,0.9184,0.8804,0.7995,0.0,0.0,0.0,0.0,0.0,0.0,0.0,0.0,0.0,0.0,0.0,0.0,0.0,0.0,0.0,0.0,0.0,0.0,0.0,0.0,0.0,0.0,0.0,0.0,0.0,0.0,0.0,0.0,0.0,0.0,0.0,0.0,0.0,0.0,0.0,0.0,0.0,0.0,0.0,0.0,0.0,0.0,0.0,0.0,0.0,0.0,0.0,0.0,0.0,0.0,0.0,0.0,0.0,0.0,0.0,0.0,0.0,0.0,0.0,0.0,0.0,0.0,0.0,0.0,0.0,0.0,0.0,0.0,0.0,0.0,0.0,0.0,0.0,0.0,0.0,0.0,0.0,0.0,0.0,0.0,0.0,0.0,0.0,0.0,0.0,0.0,0.0,0.0,0.0,0.0,0.0,0.0,0.0,0.0,0.0,0.0,0.0,0.0,0.0,0.0,0.0,0.0,0.0,1.2015,1.1908,1.1727,1.1185,1.0774,1.0388,1.028,0.979,0.8785,0.8038,0.0,0.0,0.0,0.0,0.0,0.0,0.0,0.0,0.0,0.0,0.0,0.0,0.0,0.0,0.0,0.0,0.0,0.0,0.0,0.0,0.0,0.0,0.0,0.0,0.0,0.0,0.0,0.0,0.0,0.0,0.0,0.0,0.0,0.0,0.0,0.0,0.0,0.0,0.0,0.0,0.0,0.0,0.0,0.0,0.0,0.0,0.0,0.0,0.0,0.0,0.0,0.0,0.0,0.0,0.0,0.0,0.0,0.0,0.0,0.0,0.0,0.0,0.0,0.0,0.0,0.0,0.0,0.0,0.0,0.0,0.0,0.0,0.0,0.0,0.0,0.0,0.0,0.0,0.0,0.0,0.0,0.0,0.0,0.0,0.0,0.0,0.0,0.0,0.0,0.0,0.0,0.0,0.0,0.0,0.0,0.0,0.0,0.0,0.0,0.0,0.0,0.0,1.3509,1.3653,1.3203,1.2669,1.2187,1.1752,1.1457,1.0836,0.9702,0.8908,0.0,0.0,0.0,0.0,0.0,0.0,0.0,0.0,0.0,0.0,0.0,0.0,0.0,0.0,0.0,0.0,0.0,0.0,0.0,0.0,0.0,0.0,0.0,0.0,0.0,0.0,0.0,0.0,0.0,0.0,0.0,0.0,0.0,0.0,0.0,0.0,0.0,0.0,0.0,0.0,0.0,0.0,0.0,0.0,0.0,0.0,0.0,0.0,0.0,0.0,0.0,0.0,0.0,0.0,0.0,0.0,0.0,0.0,0.0,0.0,0.0,0.0,0.0,0.0,0.0,0.0,0.0,0.0,0.0,0.0,0.0,0.0,0.0,0.0,0.0,0.0,0.0,0.0,0.0,0.0,0.0,0.0,0.0,0.0,0.0,0.0,0.0,0.0,0.0,0.0,0.0,0.0,0.0,0.0,0.0,0.0,0.0,0.0,0.0,0.0,0.0,0.0,1.5288,1.5676,1.5079,1.4432,1.3811,1.339,1.2807,1.199,1.0752,0.9714,0.0,0.0,0.0,0.0,0.0,0.0,0.0,0.0,0.0,0.0,0.0,0.0,0.0,0.0,0.0,0.0,0.0,0.0,0.0,0.0,0.0,0.0,0.0,0.0,0.0,0.0,0.0,0.0,0.0,0.0,0.0,0.0,0.0,0.0,0.0,0.0,0.0,0.0,0.0,0.0,0.0,0.0,0.0,0.0,0.0,0.0,0.0,0.0,0.0,0.0,0.0,0.0,0.0,0.0,0.0,0.0,0.0,0.0,0.0,0.0,0.0,0.0,0.0,0.0,0.0,0.0,0.0,0.0,0.0,0.0,0.0,0.0,0.0,0.0,0.0,0.0,0.0,0.0,0.0,0.0,0.0,0.0,0.0,0.0,0.0,0.0,0.0,0.0,0.0,0.0,0.0,0.0,0.0,0.0,0.0,0.0,0.0,0.0,0.0,0.0,0.0,0.0,1.5854,1.6251,1.5864,1.535,1.4901,1.4435,1.3846,1.3031,1.1867,0.0,0.0,0.0,0.0,0.0,0.0,0.0,0.0,0.0,0.0,0.0,0.0,0.0,0.0,0.0,0.0,0.0,0.0,0.0,0.0,0.0,0.0,0.0,0.0,0.0,0.0,0.0,0.0,0.0,0.0,0.0,0.0,0.0,0.0,0.0,0.0,0.0,0.0,0.0,0.0,0.0,0.0,0.0,0.0,0.0,0.0,0.0,0.0,0.0,0.0,0.0,0.0,0.0,0.0,0.0,0.0,0.0,0.0,0.0,0.0,0.0,0.0,0.0,0.0,0.0,0.0,0.0,0.0,0.0,0.0,0.0,0.0,0.0,0.0,0.0,0.0,0.0,0.0,0.0,0.0,0.0,0.0,0.0,0.0,0.0,0.0,0.0,0.0,0.0,0.0,0.0,0.0,0.0,0.0,0.0,0.0,0.0,0.0,0.0,0.0,0.0,0.0,1.5507,1.6317,1.6892,1.6762,1.6551,1.6161,1.5695,1.511,1.4268,1.3065,0.0,0.0,0.0,0.0,0.0,0.0,0.0,0.0,0.0,0.0,0.0,0.0,0.0,0.0,0.0,0.0,0.0,0.0,0.0,0.0,0.0,0.0,0.0,0.0,0.0,0.0,0.0,0.0,0.0,0.0,0.0,0.0,0.0,0.0,0.0,0.0,0.0,0.0,0.0,0.0,0.0,0.0,0.0,0.0,0.0,0.0,0.0,0.0,0.0,0.0,0.0,0.0,0.0,0.0,0.0,0.0,0.0,0.0,0.0,0.0,0.0,0.0,0.0,0.0,0.0,0.0,0.0,0.0,0.0,0.0,0.0,0.0,0.0,0.0,0.0,0.0,0.0,0.0,0.0,0.0,0.0,0.0,0.0,0.0,0.0,0.0,0.0,0.0,0.0,0.0,0.0,0.0,0.0,0.0,0.0,0.0,0.0,0.0,0.0,0.0,0.0,0.0,1.5758,1.6854,1.7695,1.8009,1.7989,1.7796,1.7239,1.6656,1.5749,0.0,0.0,0.0,0.0,0.0,0.0,0.0,0.0,0.0,0.0,0.0,0.0,0.0,0.0,0.0,0.0,0.0,0.0,0.0,0.0,0.0,0.0,0.0,0.0,0.0,0.0,0.0,0.0,0.0,0.0,0.0,0.0,0.0,0.0,0.0,0.0,0.0,0.0,0.0,0.0,0.0,0.0,0.0,0.0,0.0,0.0,0.0,0.0,0.0,0.0,0.0,0.0,0.0,0.0,0.0,0.0,0.0,0.0,0.0,0.0,0.0,0.0,0.0,0.0,0.0,0.0,0.0,0.0,0.0,0.0,0.0,0.0,0.0,0.0,0.0,0.0,0.0,0.0,0.0,0.0,0.0,0.0,0.0,0.0,0.0,0.0,0.0,0.0,0.0,0.0,0.0,0.0,0.0,0.0,0.0,0.0,0.0,0.0,0.0,0.0,0.0,0.0,0.0,1.675,1.7761,1.853,1.8857,1.8945,1.8544,1.7682,1.7496,1.6702,1.5055,0.0,0.0,0.0,0.0,0.0,0.0,0.0,0.0,0.0,0.0,0.0,0.0,0.0,0.0,0.0,0.0,0.0,0.0,0.0,0.0,0.0,0.0,0.0,0.0,0.0,0.0,0.0,0.0,0.0,0.0,0.0,0.0,0.0,0.0,0.0,0.0,0.0,0.0,0.0,0.0,0.0,0.0,0.0,0.0,0.0,0.0,0.0,0.0,0.0,0.0,0.0,0.0,0.0,0.0,0.0,0.0,0.0,0.0,0.0,0.0,0.0,0.0,0.0,0.0,0.0,0.0,0.0,0.0,0.0,0.0,0.0,0.0,0.0,0.0,0.0,0.0,0.0,0.0,0.0,0.0,0.0,0.0,0.0,0.0,0.0,0.0,0.0,0.0,0.0,0.0,0.0,0.0,0.0,0.0,0.0,0.0,0.0,0.0,0.0,0.0,0.0,0.0,1.7743,1.8661,1.938,1.9913,1.9844,1.9468,1.8709,1.8532,1.7697,1.588,0.0,0.0,0.0,0.0,0.0,0.0,0.0,0.0,0.0,0.0,0.0,0.0,0.0,0.0,0.0,0.0,0.0,0.0,0.0,0.0,0.0,0.0,0.0,0.0,0.0,0.0,0.0,0.0,0.0,0.0,0.0,0.0,0.0,0.0,0.0,0.0,0.0,0.0,0.0,0.0,0.0,0.0,0.0,0.0,0.0,0.0,0.0,0.0,0.0,0.0,0.0,0.0,0.0,0.0,0.0,0.0,0.0,0.0,0.0,0.0,0.0,0.0,0.0,0.0,0.0,0.0,0.0,0.0,0.0,0.0,0.0,0.0,0.0,0.0,0.0,0.0,0.0,0.0,0.0,0.0,0.0,0.0,0.0,0.0,0.0,0.0,0.0,0.0,0.0,0.0,0.0,0.0,0.0,0.0,0.0,0.0,0.0,0.0,0.0,0.0,0.0,0.0,1.8721,1.9497,2.019,2.0932,2.0669,2.0266,1.9909,1.9566,1.8624,1.6852,0.0,0.0,0.0,0.0,0.0,0.0,0.0,0.0,0.0,0.0,0.0,0.0,0.0,0.0,0.0,0.0,0.0,0.0,0.0,0.0,0.0,0.0,0.0,0.0,0.0,0.0,0.0,0.0,0.0,0.0,0.0,0.0,0.0,0.0,0.0,0.0,0.0,0.0,0.0,0.0,0.0,0.0,0.0,0.0,0.0,0.0,0.0,0.0,0.0,0.0,0.0,0.0,0.0,0.0,0.0,0.0,0.0,0.0,0.0,0.0,2.4414,2.3604,0.0,0.0,0.0,0.0,0.0,0.0,0.0,0.0,0.0,0.0,0.0,0.0,0.0,0.0,0.0,0.0,0.0,0.0,0.0,0.0,0.0,0.0,0.0,0.0,0.0,0.0,0.0,0.0,0.0,0.0,0.0,0.0,0.0,0.0,0.0,0.0,0.0,0.0,0.0,0.0,1.9358,1.986,2.0319,2.0795,2.0769,2.0449,1.9817,1.9904,1.9368,1.7782,1.6853,0.0,0.0,0.0,0.0,0.0,0.0,0.0,0.0,0.0,0.0,0.0,0.0,0.0,0.0,0.0,0.0,0.0,0.0,0.0,0.0,0.0,0.0,0.0,0.0,0.0,0.0,0.0,0.0,0.0,0.0,0.0,0.0,0.0,0.0,0.0,0.0,0.0,0.0,0.0,0.0,0.0,0.0,0.0,0.0,0.0,0.0,0.0,0.0,0.0,0.0,0.0,0.0,0.0,0.0,0.0,0.0,0.0,0.0,0.0,2.6479,2.5549,0.0,0.0,0.0,0.0,0.0,0.0,0.0,0.0,0.0,0.0,0.0,0.0,0.0,0.0,0.0,0.0,0.0,0.0,0.0,0.0,0.0,0.0,0.0,0.0,0.0,0.0,0.0,0.0,0.0,0.0,0.0,0.0,0.0,0.0,0.0,0.0,0.0,0.0,0.0,0.0,2.0277,2.0787,2.1185,2.1558,2.1429,2.1185,2.081,2.0689,2.0122,1.874,1.7807,0.0,0.0,0.0,0.0,0.0,0.0,0.0,0.0,0.0,0.0,0.0,0.0,0.0,0.0,0.0,0.0,0.0,0.0,0.0,0.0,0.0,0.0,0.0,0.0,0.0,0.0,0.0,0.0,0.0,0.0,0.0,0.0,0.0,0.0,0.0,0.0,0.0,0.0,0.0,0.0,0.0,0.0,0.0,0.0,0.0,0.0,0.0,0.0,0.0,0.0,0.0,0.0,0.0,3.0248,3.0514,3.098,3.0398,3.0341,3.0624,2.8947,2.8026,2.7759,2.7238,0.0,0.0,0.0,0.0,0.0,0.0,0.0,0.0,0.0,0.0,0.0,0.0,0.0,0.0,0.0,0.0,0.0,0.0,0.0,0.0,0.0,0.0,0.0,0.0,2.4522,2.3857,2.2757,0.0,0.0,0.0,0.0,0.0,0.0,0.0,0.0,0.0,0.0,0.0,2.1046,2.1557,2.192,2.2222,2.1989,2.1783,2.1783,2.1409,2.0771,1.9736,1.8836,1.7972,0.0,0.0,0.0,0.0,0.0,0.0,0.0,0.0,0.0,0.0,0.0,0.0,0.0,0.0,0.0,0.0,0.0,0.0,0.0,0.0,0.0,0.0,0.0,0.0,0.0,0.0,0.0,0.0,0.0,0.0,0.0,0.0,3.1823,3.1469,0.0,0.0,0.0,0.0,0.0,0.0,0.0,0.0,0.0,0.0,0.0,0.0,0.0,3.2486,3.2103,3.2975,3.3203,3.2819,3.2819,3.2867,3.2915,3.2421,3.2304,3.2447,3.1928,0.0,2.9648,2.8738,0.0,0.0,0.0,0.0,0.0,0.0,0.0,0.0,0.0,0.0,0.0,0.0,0.0,0.0,0.0,0.0,0.0,0.0,0.0,0.0,0.0,0.0,2.8341,2.7345,2.6676,2.6202,0.0,2.4487,2.3159,2.251,2.1612,2.0716,0.0,0.0,0.0,0.0,0.0,0.0,2.1098,2.1268,2.1328,2.1389,2.1338,2.1308,2.1308,2.1248,2.1042,2.071,1.9764,1.906,1.8705,1.7539,0.0,0.0,0.0,0.0,0.0,0.0,0.0,0.0,0.0,0.0,0.0,0.0,0.0,0.0,0.0,0.0,0.0,0.0,0.0,0.0,0.0,0.0,0.0,0.0,0.0,0.0,0.0,0.0,0.0,3.3432,3.3526,3.3423,3.3212,3.2779,0.0,0.0,0.0,0.0,0.0,0.0,0.0,0.0,0.0,3.2593,3.3251,3.3658,3.372,3.4188,3.4459,3.4533,3.4533,3.4728,3.5011,3.4468,3.4255,3.4297,3.3543,3.2854,3.2136,3.0829,2.9653,2.8609,0.0,0.0,0.0,0.0,2.5654,2.5889,2.608,2.608,2.6004,2.6118,0.0,0.0,0.0,0.0,0.0,0.0,0.0,0.0,0.0,0.0,2.8809,2.7754,2.7103,2.6587,2.6209,2.5373,2.4541,2.3938,2.3078,2.2299,2.1763,2.0662,0.0,0.0,0.0,2.1138,2.2104,2.2231,2.2231,2.2231,2.2231,2.2231,2.2231,2.2231,2.208,2.1749,2.0855,2.0188,1.9861,1.8666,1.7914,0.0,0.0,0.0,0.0,0.0,0.0,0.0,0.0,0.0,0.0,0.0,0.0,0.0,0.0,0.0,0.0,0.0,0.0,0.0,0.0,0.0,0.0,0.0,0.0,0.0,0.0,0.0,0.0,3.5007,3.5423,3.5146,3.4994,3.4685,0.0,0.0,0.0,0.0,0.0,0.0,3.3093,3.3472,3.3902,3.4319,3.4565,3.4843,3.5108,3.5398,3.5663,3.5894,3.5848,3.6049,3.6427,3.5793,3.542,3.5232,3.4324,3.3822,3.3608,3.2276,3.1102,2.9963,2.9185,2.8614,2.8155,2.7654,2.7546,2.7693,2.7859,2.7698,2.7512,2.7639,2.7408,2.692,2.6392,0.0,0.0,0.0,0.0,2.8027,2.8255,2.8665,2.8841,2.8026,2.7347,2.6742,2.6263,2.5961,2.5583,0.0,2.419,2.3467,2.3103,2.2034,0.0,2.2331,2.2108,2.216,2.3044,2.3154,2.3154,2.3154,2.3154,2.3154,2.3154,2.3154,2.3005,2.2665,2.194,2.1318,2.0845,1.9779,1.9063,1.8812,0.0,0.0,0.0,0.0,0.0,0.0,0.0,0.0,0.0,0.0,0.0,0.0,0.0,0.0,0.0,0.0,0.0,0.0,0.0,0.0,0.0,0.0,0.0,0.0,0.0,0.0,0.0,0.0,0.0,3.6352,3.7147,0.0,0.0,0.0,0.0,3.6058,3.6109,3.5891,3.5371,3.5371,3.541,3.5436,3.6429,3.6691,3.6237,3.7241,3.7522,3.7023,3.6777,3.6649,3.6649,3.5886,3.5207,3.4726,3.4148,3.3608,3.3068,3.2423,3.2135,3.1943,3.0904,3.0778,3.1117,3.0603,3.0716,3.1142,3.1142,3.0816,3.0403,3.0415,2.9638,2.8662,2.8161,2.7961,0.0,0.0,2.8412,2.885,2.8863,2.8875,2.8888,2.8825,2.8035,2.7197,2.6982,2.6549,2.598,0.0,2.4484,2.3712,2.3501,0.0,2.2318,2.281,2.2867,2.2999,2.3489,2.3556,2.3556,2.3556,2.3556,2.3556,2.3556,2.3556,2.3482,2.3261,2.2868,2.2354,2.1779,2.113,2.0602,2.023,1.9742,0.0,0.0,0.0,0.0,0.0,0.0,0.0,0.0,0.0,0.0,0.0,0.0,0.0,0.0,0.0,0.0,0.0,0.0,0.0,0.0,0.0,0.0,0.0,0.0,0.0,0.0,0.0,0.0,3.9453,4.0475,0.0,4.0161,3.9746,3.9358,3.8956,3.9232,3.9146,3.8604,3.8938,3.9093,3.9093,3.9114,3.8988,3.8834,3.8756,3.8495,3.7978,3.7579,3.7268,3.6943,3.5932,3.5395,3.5157,3.4299,3.3784,3.3558,3.3006,3.2554,3.2177,3.1788,3.1537,3.1361,3.1185,3.1235,3.1386,3.1386,3.1128,3.0782,3.052,2.9923,2.9262,2.9071,2.8753,2.8549,2.8905,2.9147,2.9389,2.9745,2.9579,2.9211,2.8855,2.8181,2.7519,2.7107,2.6741,2.6452,2.622,2.5352,2.4731,2.4999,2.4224,2.3835,2.4694,2.4551,2.4515,2.5004,2.5076,2.5076,2.5076,2.5076,2.5076,2.5076,2.5076,2.4933,2.4587,2.4215,2.3725,2.312,2.2622,2.2183,2.1802,2.1629,2.1362,0.0,0.0,0.0,0.0,0.0,0.0,0.0,0.0,0.0,0.0,0.0,0.0,0.0,0.0,0.0,0.0,0.0,0.0,0.0,0.0,0.0,0.0,0.0,0.0,0.0,4.0545,4.1972,4.2019,4.2896,4.328,4.2751,4.2134,4.1599,4.1187,4.1471,4.1397,4.0854,4.1151,4.137,4.137,4.075,4.0449,4.0449,3.9803,3.9282,3.8868,3.8296,3.7854,3.7453,3.6098,3.5448,3.5385,3.4306,3.3826,3.3801,3.3465,3.3055,3.2702,3.2546,3.229,3.1951,3.1951,3.1951,3.1967,3.182,3.1676,3.1433,3.1087,3.0693,3.0372,3.0372,3.0147,2.9925,3.0268,3.0372,3.0411,3.0607,3.0192,2.9617,2.903,2.8477,2.7954,2.7589,2.7397,2.7317,2.7317,2.619,2.5391,2.575,2.4991,2.46,2.5314,2.5084,2.4906,2.5274,2.5517,2.5566,2.5335,2.5529,2.5554,2.5335,2.5529,2.5416,2.4898,2.473,2.4343,2.3686,2.3212,2.2844,2.2534,2.2431,2.2057,2.1393,0.0,0.0,0.0,0.0,0.0,0.0,0.0,0.0,0.0,0.0,0.0,0.0,0.0,0.0,0.0,0.0,0.0,0.0,0.0,0.0,0.0,0.0,0.0,4.1279,4.2606,4.377,4.3865,4.4311,4.4401,4.3854,4.3216,4.2856,4.2856,4.2828,4.2579,4.207,4.2042,4.2028,4.2001,4.1346,4.0999,4.0985,4.0373,3.9938,3.9648,3.8912,3.8432,3.8206,3.6302,3.5474,3.541,3.4255,3.3755,3.3755,3.3755,3.3755,3.3713,3.3283,3.3124,3.3124,3.3124,3.3124,3.3079,3.2739,3.2618,3.2555,3.221,3.2118,3.211,3.211,3.211,3.211,3.211,3.211,3.1938,3.1284,3.0723,3.0161,2.947,2.8893,2.8524,2.8524,2.8524,2.8524,2.8524,2.6981,2.5657,2.5636,2.5028,2.4511,2.4536,2.4361,0.0,2.423,2.473,2.4865,2.428,2.4755,2.4853,2.4267,2.4755,2.4786,2.4082,2.4319,2.4198,2.3471,2.2853,2.2532,2.2462,2.2115,2.1791,2.1428,0.0,0.0,0.0,0.0,0.0,0.0,0.0,0.0,0.0,0.0,0.0,0.0,0.0,0.0,0.0,0.0,0.0,0.0,0.0,0.0,0.0,4.305,4.3589,4.3214,4.4746,4.5935,4.5981,4.6493,4.6809,4.6684,4.6049,4.5677,4.5677,4.5247,4.4977,4.4805,4.4805,4.4576,4.4102,4.3486,4.2897,4.241,4.1823,4.1311,4.0901,4.0317,3.9812,3.939,3.7644,3.685,3.6783,3.5581,3.5061,3.5061,3.5061,3.5061,3.4979,3.3953,3.3556,3.3556,3.3556,3.3556,3.3458,3.2977,3.2922,3.2972,3.2475,3.2432,3.2547,3.2547,3.2547,3.2547,3.2547,3.2547,3.236,3.1707,3.1151,3.0561,2.9882,2.9338,2.8944,2.8944,2.8944,2.8944,2.8944,2.7767,2.6738,2.6703,2.5623,2.4851,2.504,2.4827,0.0,2.4646,2.4783,2.4821,2.4658,2.4783,2.4821,2.4658,2.4796,2.4788,2.4593,2.4653,2.4567,2.421,2.4034,2.385,2.3717,2.3271,2.2811,0.0,0.0,0.0,0.0,0.0,0.0,0.0,0.0,0.0,0.0,0.0,0.0,0.0,0.0,0.0,0.0,0.0,0.0,0.0,0.0,0.0,0.0,4.4226,4.5184,4.5184,4.6127,4.6879,4.7201,4.7317,4.7375,4.7375,4.6809,4.6432,4.6432,4.6098,4.588,4.588,4.588,4.5576,4.4908,4.4298,4.3674,4.3007,4.2397,4.1912,4.1507,4.1029,4.0589,4.0159,3.8458,3.7686,3.7617,3.6402,3.5869,3.5869,3.5869,3.5869,0.0,0.0,0.0,0.0,0.0,3.4326,3.4078,3.3847,3.3677,3.353,3.3311,3.3303,3.3409,3.3409,3.3409,3.3409,3.3409,3.3226,3.2887,3.2205,3.1599,3.0978,3.0344,2.9967,2.9713,2.9713,2.9713,2.9713,2.9713,2.8683,0.0,2.76,2.5998,2.4764,2.4862,2.454,2.4305,2.4305,2.4476,2.4539,2.433,2.4488,2.4526,2.433,2.4488,0.0,0.0,0.0,2.445,2.4054,2.4042,0.0,0.0,0.0,0.0,0.0,0.0,0.0,0.0,2.1235,2.12,0.0,0.0,0.0,0.0,0.0,0.0,0.0,0.0,0.0,0.0,0.0,0.0,0.0,0.0,0.0,0.0,4.5343,4.6778,4.6778,4.6778,4.7042,4.7608,4.7114,4.6676,4.6676,4.6214,4.588,4.588,4.588,4.588,4.588,4.5822,0.0,0.0,0.0,4.3558,4.289,4.2368,4.1995,4.1744,4.1311,4.1015,4.0788,3.9103,3.8352,3.8241,3.7019,3.6492,3.6492,3.6492,3.6492,3.6452,3.5909,3.5655,3.5655,3.5655,3.5302,3.4813,3.4979,0.0,0.0,3.4327,3.4366,3.4414,3.4414,3.4414,3.4414,3.4414,3.4008,3.3445,3.2701,3.2046,3.1453,3.0772,3.0598,3.0598,3.0598,3.0598,3.0598,3.0598,2.9581,2.8596,2.8297,2.6255,2.4595,2.4452,2.4044,2.3763,2.3763,2.4172,2.4288,2.3815,0.0,0.0,2.3802,2.4197,2.4275,2.3802,2.4197,2.4201,2.3624,2.3569,2.3509,2.3335,2.3305,2.3305,2.3305,2.3305,2.3305,2.3292,2.2441,2.235,0.0,0.0,0.0,0.0,0.0,0.0,0.0,0.0,0.0,0.0,0.0,0.0,0.0,0.0,0.0,4.5837,4.6459,4.6778,4.6778,4.6778,4.6836,4.6998,4.6446,4.6069,4.6069,4.5953,4.588,4.588,4.588,4.588,4.588,4.5372,4.4792,4.4182,4.3529,4.289,4.2281,4.215,4.2092,4.1995,0.0,0.0,4.1785,4.0363,3.9718,3.9646,3.8395,3.7848,3.7848,3.7848,3.7848,3.772,3.661,3.6175,3.6175,3.6175,3.5778,3.5253,3.5109,3.4764,3.4327,3.4182,3.4263,3.4414,3.4414,3.4414,0.0,3.4414,3.4327,3.3964,3.2785,3.2394,3.2034,3.0888,3.0598,3.0598,3.0598,3.0598,3.0598,3.0598,2.9581,2.8652,2.8468,2.6876,2.5536,2.5245,2.4922,2.4738,2.4738,2.4832,2.483,2.4751,2.4803,2.483,2.4751,2.4803,2.483,2.4751,2.4845,2.483,2.4709,2.4681,2.4681,2.4639,2.4639,2.4639,2.4639,2.4639,2.4639,2.461,2.3428,2.3185,0.0,0.0,0.0,0.0,0.0,0.0,0.0,0.0,0.0,0.0,0.0,4.4364,4.4292,0.0,4.6658,4.678,4.71,4.7201,4.6836,4.6563,4.6359,4.6359,4.6069,4.588,4.588,4.588,4.588,4.588,4.588,4.588,4.588,4.5242,4.4603,4.4008,4.334,4.2702,4.2107,4.2092,4.2092,4.2092,4.2092,4.2092,4.2049,4.0713,4.0104,4.0031,3.8754,3.8202,3.8202,3.8202,3.8202,3.8127,3.7491,3.7246,3.7246,3.7246,3.6679,3.5844,3.5752,3.5132,3.4358,3.4263,3.4312,3.4414,3.4414,3.4414,3.4414,3.4414,3.4182,3.3732,3.2759,3.2234,3.1772,3.083,3.0598,3.0598,3.0598,3.0598,3.0598,3.0598,2.9581,2.8681,2.8624,2.7334,2.6192,2.5729,2.5384,2.5203,2.5203,2.5203,2.5203,2.5203,2.5203,2.5203,2.5203,2.5203,2.5203,2.5203,2.5203,2.5203,2.5203,2.5203,2.5203,2.5203,2.5203,2.5203,2.5203,2.5203,2.5368,2.5683,2.5036,2.4971,0.0,0.0,0.0,0.0,0.0,0.0,0.0,4.3629,4.3982,4.437,4.6009,4.7081,4.6094,4.7823,4.8927,4.7564,4.7608,4.7564,4.6879,4.6287,4.588,4.588,4.588,4.588,4.588,4.588,4.588,4.588,4.588,4.5822,4.5692,4.5068,4.4429,4.3819,4.3166,4.2586,4.2092,4.2133,4.2133,4.2092,4.2133,4.2061,4.186,4.0695,4.007,3.9935,3.8748,3.824,3.824,3.8202,3.8202,3.8202,3.8202,3.8202,3.824,3.8202,3.7404,3.6301,3.6301,3.5473,3.4414,3.4414,3.4414,3.4414,3.4414,3.4414,3.4414,3.4414,3.4051,3.3503,3.2716,3.2089,3.1526,3.0786,3.0598,3.0598,3.0598,3.0598,3.0598,3.0598,2.9581,2.8709,2.8709,2.7648,2.6621,2.6138,2.5838,2.566,2.566,2.566,2.566,2.566,2.566,2.566,2.566,2.566,2.566,2.566,2.566,2.566,2.566,2.566,2.566,2.566,2.566,2.566,2.566,2.566,2.6022,2.6665,2.6791,2.6893,4.2575,4.3698,4.4855,4.4855,4.5424,4.6085,0.0,4.6352,4.5965,4.604,4.7434,4.8594,4.8201,4.9145,4.9844,4.9422,4.8493,4.7564,4.6879,4.6287,4.588,4.588,4.588,4.588,4.588,4.588,4.588,4.588,4.588,4.5634,4.5024,4.4414,4.379,4.3123,4.2513,4.2165,4.2092,4.2284,4.2284,4.2092,4.2284,4.1977,4.1178,4.0596,4.0071,3.954,3.88,3.8478,3.8441,3.8277,3.8202,3.8202,3.8202,3.8315,3.8441,3.8277,3.7404,3.6301,3.6301,3.5473,3.4414,3.4414,3.4414,3.4414,3.4414,3.4414,3.4414,3.4414,3.4356,3.4022,3.28,3.2423,3.2092,3.0903,3.0598,3.0598,3.0598,3.0598,3.0598,3.0598,2.9581,2.8709,2.8709,2.7648,2.6779,2.67,2.6674,2.6633,2.6633,2.6633,2.6633,2.6633,2.6633,2.6633,2.6633,2.6633,2.6633,2.6633,2.6633,2.6633,2.6633,2.6633,2.6633,2.6633,2.6633,2.6633,2.6633,2.6633,2.6965,2.7573,2.8164,2.831,4.3501,4.4634,4.5798,4.5394,4.6681,4.8012,4.7908,4.7952,4.8042,4.8042,4.9507,5.0441,4.9311,5.0066,5.0637,4.9805,4.8928,4.8101,4.7477,4.6838,4.6301,4.5924,4.588,4.588,4.588,4.588,4.588,4.588,4.588,4.559,4.4922,4.4313,4.3674,4.3007,4.2411,4.2175,4.2284,4.2366,4.2433,4.2418,4.2038,4.1715,4.1408,4.0344,3.9586,3.9083,3.8804,3.8627,3.8478,3.8404,3.8315,3.8202,3.8329,3.8441,3.8478,3.8277,3.7477,3.6458,3.6351,3.5473,3.4414,3.4414,3.4414,3.4414,3.4414,3.4414,3.4414,3.4414,3.4153,3.3645,3.2745,3.2191,3.1714,3.0816,3.0598,3.0598,3.0598,3.0598,3.0598,3.0598,2.9581,2.8709,2.8709,2.7648,2.6806,2.6806,2.6806,2.6806,2.6806,2.6806,2.6806,2.6806,2.6806,2.6806,2.6806,2.6806,2.6806,2.6806,2.6806,2.6806,2.6806,2.6806,2.6806,2.6806,2.6806,2.6806,2.6806,2.6806,2.7302,2.8289,2.8565,2.903,4.4511,4.5597,4.6686,4.6398,4.8007,4.9584,4.9299,4.9374,4.9538,4.9538,5.081,5.1431,4.9863,5.0607,5.1092,4.998,4.934,4.8783,4.813,4.7346,4.6664,4.62,4.5996,4.588,4.588,4.588,4.588,4.588,4.588,4.5518,4.469,4.4226,4.3616,4.2774,4.2393,4.2242,4.2392,4.25,4.2534,4.2423,4.1857,4.1445,4.1155,3.9959,3.9216,3.8943,3.8907,3.8797,3.8664,3.8627,3.8516,3.8389,3.8553,3.8627,3.8627,3.8427,3.7624,3.6579,3.6422,3.5508,3.4414,3.4414,3.4414,3.4414,3.4414,3.4414,3.4414,3.4414,3.4095,3.3543,3.273,3.2133,3.1584,3.0801,3.0598,3.0598,3.0598,3.0598,3.0598,3.0598,2.9726,2.8884,2.8738,2.7766,2.6982,2.6849,2.6806,2.6806,2.6806,2.6806,2.6806,2.6806,2.6806,2.6806,2.6806,2.6806,2.6806,2.6806,2.6806,2.6806,2.6806,2.6806,2.6806,2.6806,2.6806,2.6806,2.6806,2.6806,2.7345,2.8419,2.8622,2.929,4.5702,4.6873,4.8086,4.8708,4.973,5.0728,5.1346,5.0831,5.0166,5.0166,5.0719,5.0941,4.9961,5.0674,5.1096,5.0237,4.9844,4.9465,4.8798,4.7575,4.6778,4.6749,4.6258,4.588,4.588,4.588,4.588,4.588,4.588,4.5343,4.4081,4.4008,4.3413,4.2165,4.2298,4.2392,4.2392,4.2809,4.2564,4.1705,4.1912,4.1246,3.9829,3.9336,3.9207,3.9373,3.9177,3.9104,3.9068,3.887,3.8797,3.8782,3.8782,3.8907,3.9068,3.887,3.7878,3.6614,3.6579,3.5627,3.4414,3.4414,3.4414,3.4414,3.4414,3.4414,3.4414,3.4414,3.4399,3.4095,3.2846,3.2466,3.2164,3.0903,3.0598,3.0598,3.0598,3.0598,3.0598,3.0598,3.0045,2.9406,2.8811,2.8129,2.7463,2.6881,2.6806,2.6806,2.6806,2.6806,2.6806,2.6806,2.6806,2.6806,2.6806,2.6806,2.6806,2.6806,2.6806,2.6806,2.6806,2.6806,2.6806,2.6806,2.6806,2.6806,2.6806,2.6806,2.7128,2.7753,2.839,2.9029,4.712,4.8057,4.886,5.0173,5.1223,5.191,5.1865,5.1329,5.0719,5.0285,5.0077,4.9807,4.9309,4.9497,4.9666,4.9461,4.9712,4.9674,4.8812,4.8315,4.7735,4.6879,4.6635,4.6345,4.5924,4.588,4.588,4.588,4.588,4.5329,4.4066,4.3993,4.3413,4.2136,4.2284,4.2459,4.2581,4.2875,4.2709,4.2147,4.1322,4.0367,3.9321,3.9296,3.9337,3.9388,3.9337,3.9228,3.9104,3.9017,3.8907,3.8819,3.8943,3.9031,3.9104,3.9177,3.8252,3.7,3.684,3.5903,3.4735,3.4735,3.4735,3.4735,3.4735,3.4735,3.4735,3.4735,3.4427,3.4035,3.361,3.2847,3.2069,3.1629,3.1218,3.0925,3.0925,3.0925,3.0895,3.0762,3.0221,2.9682,2.9348,2.8406,2.7492,2.6881,2.6806,2.6806,2.6806,2.6806,2.6806,2.6806,2.6806,2.6806,2.6806,2.6806,2.6806,2.6806,2.6806,2.6806,2.6806,2.6806,2.6806,2.6806,2.6806,2.6806,2.6806,2.6806,2.7358,2.8361,2.8579,2.9275,4.8925,4.9815,5.0493,5.1726,5.2473,5.2694,5.2151,5.1562,5.0847,4.9945,4.9194,4.8655,4.8477,4.8298,4.8355,4.8933,4.9421,4.9629,4.9247,4.8918,4.8348,4.7288,4.6969,4.6577,4.5953,4.588,4.588,4.588,4.5663,4.5082,4.4052,4.3761,4.3166,4.2121,4.2351,4.2581,4.2688,4.2773,4.2419,4.1692,4.0561,3.9755,3.9228,3.9337,3.9388,3.9388,3.9388,3.9337,3.9228,3.9228,3.9141,3.9017,3.9141,3.9228,3.9228,3.9337,3.8501,3.7262,3.707,3.6074,3.4902,3.4902,3.4902,3.4902,3.4902,3.4902,3.4902,3.4902,3.4625,3.4257,3.4068,3.3197,3.2296,3.2046,3.153,3.1117,3.1117,3.1117,3.1043,3.0925,3.0529,3.0105,2.9755,2.8621,2.7659,2.7304,2.7083,2.691,2.6806,2.6806,2.6806,2.6806,2.6806,2.6806,2.6806,2.6806,2.6806,2.6806,2.6806,2.6806,2.6806,2.6806,2.6806,2.6806,2.6806,2.6806,2.6806,2.7012,2.7549,2.8347,2.8811,2.945,5.0842,5.1946,5.2853,5.333,5.3323,5.3003,5.2163,5.1412,5.0543,4.9161,4.8157,4.7533,4.7578,4.7176,4.7317,4.8699,4.9039,4.9355,5.0047,4.9353,4.8522,4.7901,4.7291,4.6621,4.5998,4.5925,4.5925,4.588,4.5271,4.4632,4.4023,4.3355,4.2716,4.2107,4.2514,4.2688,4.2729,4.246,4.1722,4.0442,3.9753,3.9388,3.9388,3.9388,3.9388,3.9388,3.9388,3.9388,3.9388,3.9388,3.9388,3.9388,3.9388,3.9388,3.9388,3.9388,3.8551,3.7415,3.7277,3.6196,3.4935,3.4935,3.4935,3.4935,3.4935,3.4935,3.4935,3.4935,3.4935,3.4787,3.4215,3.3551,3.2873,3.2224,3.1574,3.1102,3.1102,3.1102,3.1117,3.1102,3.0955,3.0616,3.0002,2.883,2.8008,2.8139,2.7605,2.713,2.6858,2.6806,2.6806,2.6806,2.6806,2.6806,2.6806,2.6806,2.6806,2.6806,2.6806,2.6806,2.6806,2.6806,2.6806,2.6806,2.6806,2.6806,2.6806,2.7391,2.7724,2.7782,2.9015,2.961,5.0902,5.2227,5.3328,5.3665,5.3082,5.2245,5.1692,5.0721,4.9636,4.8511,4.7502,4.6829,4.7031,4.6731,4.6986,4.8624,4.9379,4.9875,5.035,5.0195,4.9618,4.8473,4.8194,4.7545,4.6237,4.6135,4.6046,4.5925,4.5271,4.4632,4.4023,4.3355,4.2785,4.2339,4.2581,4.2769,4.2915,4.2076,4.1459,4.1115,3.9963,3.9388,3.9388,3.9388,3.9388,3.9388,3.9388,3.9388,3.9388,3.9388,3.9388,3.9388,3.9388,3.9388,3.9388,3.9388,3.8871,3.8078,3.7515,3.6466,3.5359,3.5359,3.5359,3.5359,3.5359,3.5359,3.5359,3.5359,3.5359,3.5329,3.515,3.4241,3.3332,3.3153,3.2244,3.1395,3.1395,3.1395,3.1366,3.1263,3.1132,3.0837,3.016,2.942,2.8901,2.8707,2.8106,2.7514,2.7155,2.7015,2.6925,2.6806,2.6806,2.6806,2.6806,2.6806,2.6806,2.6806,2.6806,2.6806,2.6806,2.6806,2.6806,2.6806,2.6806,2.6806,2.6806,2.7391,2.7956,2.8448,2.9233,2.9871,5.1957,5.3029,5.3543,5.3264,5.2456,5.1506,5.0531,4.96,4.8614,4.7371,4.6275,4.566,4.6001,4.5729,4.6055,4.7911,4.8893,4.9679,5.027,5.0517,5.0159,4.8934,4.874,4.8086,4.6653,4.6299,4.6225,4.6194,4.523,4.4501,4.4166,4.3332,4.2743,4.2555,4.2729,4.2782,4.2738,4.1855,4.1235,4.0935,3.9903,3.9388,3.9388,3.9388,3.9388,3.9388,0.0,3.9388,3.9388,3.9388,3.9388,3.9388,3.9388,3.9388,3.9388,3.9388,3.899,3.8287,3.7644,3.6761,3.5893,3.5609,3.5504,3.5504,3.5504,3.5504,3.5504,3.5504,3.5504,3.5504,3.5504,3.4502,3.3499,3.3499,3.2497,3.1511,3.1597,3.1626,3.1597,3.1496,3.1394,3.1232,3.0787,3.0374,2.9999,2.9669,2.9011,2.8368,2.775,2.7372,2.7107,2.6925,2.6846,2.6806,2.6806,2.6806,2.6806,2.6806,2.6806,2.6806,2.6806,2.6806,2.6806,2.6806,2.6806,2.6806,2.6806,2.7694,2.8332,2.8723,2.961,3.0234,5.3008,5.3564,5.3395,5.2231,5.1362,5.0461,4.8982,4.8176,4.7341,4.5927,4.481,4.4236,4.478,4.4464,4.487,4.6965,4.8089,4.9058,5.0138,5.0629,5.0539,4.9494,4.9209,4.8567,4.7123,4.6565,4.6358,4.6476,4.5169,4.4394,4.4336,4.3287,4.2729,4.2729,4.2915,4.2887,4.253,4.1796,4.11,4.0516,3.9768,3.9388,3.9388,3.9388,3.9388,3.9388,3.9388,3.9388,3.9388,3.9388,3.9388,3.9388,3.9388,3.9388,3.9388,3.9388,3.9035,3.8422,3.7659,3.706,3.6492,3.5744,3.5504,3.5504,3.5504,3.5504,3.5504,3.5504,3.5504,3.5504,3.5504,3.4502,3.3499,3.3499,3.2497,3.1568,3.1756,3.1841,3.1912,3.1894,3.1879,3.1851,3.1751,3.1528,3.1235,3.0876,3.0258,2.9524,2.8664,2.792,2.7325,2.7029,2.6899,2.6806,2.6806,2.6806,2.6806,2.6806,2.6806,2.6806,2.6806,2.6806,2.6806,2.6806,2.6806,2.6849,2.691,2.8128,2.8752,2.8854,3.0045,3.0598,5.1371,5.1857,5.2102,5.0391,4.9152,4.8121,4.733,4.6181,4.5137,4.4539,4.3567,4.3107,4.4004,4.3786,4.4291,4.689,4.746,4.8252,5.0246,5.106,5.1129,5.0205,5.0243,4.9563,4.7656,4.7032,4.649,4.5828,4.5204,4.4761,4.4577,4.3396,4.2769,4.2955,4.3155,4.319,4.3125,4.1983,4.1324,4.119,3.9993,3.9388,3.9388,3.9388,3.9388,3.9388,3.9388,0.0,3.9388,3.9388,3.9388,3.9388,3.9388,3.9388,3.9388,3.9388,3.9349,3.9065,3.7838,3.7345,3.706,3.5893,3.5504,3.5504,3.5504,3.5504,3.5504,3.5504,3.5504,3.5504,3.5504,3.4502,3.3499,3.3499,3.2497,3.1568,3.1756,3.215,3.2574,3.2879,3.2933,3.2933,3.2917,3.2515,3.2282,3.252,3.1725,3.079,2.999,2.863,2.7539,2.7055,2.6977,2.6925,2.6806,2.6806,2.6806,2.6806,2.6806,2.6806,2.6806,2.6806,2.6806,2.6806,2.6806,2.7041,2.755,2.8318,2.8956,2.945,3.0219,3.0598,5.1542,5.1694,5.1095,4.9305,4.8263,4.7286,4.5953,4.4845,4.4039,4.3762,4.2621,4.1967,4.2796,4.296,4.3572,4.5247,4.6719,4.8084,4.9499,5.0987,5.1611,5.0729,5.08,5.0263,4.8435,4.7566,4.6837,4.6167,4.5426,4.478,4.4314,4.3464,4.305,4.3155,4.325,4.3125,4.2821,4.1863,4.1205,4.0861,3.9888,3.9388,3.9388,3.9388,3.9388,3.9388,3.9388,3.9388,3.9388,3.9388,3.9388,3.9388,3.9388,3.9388,3.9388,3.9388,3.9388,3.9239,3.8257,3.7689,3.7255,3.6312,3.5789,3.5504,3.5572,3.5589,3.5636,3.5733,3.578,3.578,3.578,3.4963,3.4148,3.4256,3.3424,3.2638,3.2808,3.2975,3.3156,3.3403,3.3455,3.3455,3.3455,3.3348,3.3239,3.3129,3.2644,3.1919,3.0959,2.9971,2.8799,2.7373,2.7144,2.7093,2.7,2.6937,2.6899,2.6899,2.6846,2.6806,2.6806,2.6806,2.6806,2.6806,2.7113,2.7391,2.7695,2.8695,2.9334,2.961,3.0277,3.0598,5.1848,5.1738,5.0338,4.8515,4.7644,4.6752,4.4634,4.3608,4.305,4.2726,4.1589,4.0879,4.1613,4.1978,4.2622,4.3899,4.5807,4.7651,4.8988,5.0949,5.2004,5.119,5.1486,5.1016,4.9262,4.8187,4.7277,4.6531,4.5334,4.443,4.3868,4.3494,4.329,4.329,4.3155,4.288,4.2396,4.1602,4.0905,4.0382,3.9738,3.9388,3.9388,3.9388,3.9388,3.9388,3.9388,3.9388,3.9388,3.9388,3.9388,3.9388,3.9388,3.9388,3.9388,3.9388,3.9388,3.9269,3.8467,3.7838,3.7285,3.6573,3.5956,3.5537,3.5671,3.5784,3.5911,3.6085,3.6211,3.629,3.6211,3.5536,3.4834,3.4866,3.4246,3.3706,3.4038,3.3868,3.3736,3.3924,3.3949,3.3949,3.3949,3.4126,3.4105,3.3631,3.3486,3.2991,3.1919,3.1446,3.045,2.8445,2.7823,2.7543,2.7502,2.727,2.7119,2.7119,2.6989,2.691,2.6884,2.6989,2.7009,2.6982,2.7607,2.7971,2.8116,2.9102,2.9668,2.9842,3.0335,3.0598,5.1076,5.101,4.9977,4.7683,4.677,4.5758,4.3202,4.2091,4.1408,4.0823,4.0081,3.9817,4.0646,4.071,4.151,4.426,4.4783,4.6034,4.9488,5.1275,5.2107,5.1745,5.2552,5.2227,5.001,4.901,4.7803,4.6199,4.4429,4.3454,4.3394,4.3319,4.329,4.329,4.2761,4.247,4.2396,4.1115,4.0457,4.0382,3.9738,3.9388,3.9388,3.9388,3.9388,3.9388,3.9388,3.9388,0.0,3.9388,3.9388,3.9388,3.9388,3.9388,3.9388,3.9388,3.9388,3.923,3.7943,3.7464,3.7229,3.6135,3.5649,3.5537,3.5671,3.6006,3.6368,3.6585,3.6936,3.7191,3.6906,3.6074,3.5199,3.4614,3.4107,3.3995,3.4818,3.457,3.4349,3.4732,3.4804,3.4804,3.4804,3.4811,3.4794,3.4752,3.452,3.4039,3.3072,3.2707,3.2107,3.0968,2.9536,2.8602,2.8483,2.7893,2.7549,2.7549,2.7412,2.7299,2.7181,2.7568,2.7756,2.7608,2.8274,2.8884,2.9421,2.9537,2.9914,3.0525,3.0583,3.0598,5.0258,5.0868,5.0455,4.8309,4.757,4.6516,4.3452,4.2244,4.1579,4.0915,4.0251,3.9965,4.0633,4.1086,4.1992,4.3949,4.4978,4.6299,4.8464,5.0482,5.1512,5.1026,5.148,5.1244,4.9651,4.8221,4.6787,4.5253,4.4148,4.3463,4.329,4.329,4.329,4.329,4.2701,4.2216,4.1811,4.0861,4.0202,3.9798,3.9544,3.9388,3.9388,3.9388,3.9388,3.9388,3.9388,3.9388,0.0,3.9388,3.9388,3.9388,3.9388,3.9388,3.9388,3.9388,3.9388,3.929,3.8332,3.7749,3.7289,3.6541,3.6196,3.6085,3.6242,3.6492,3.6784,3.7178,3.7506,3.7666,3.7447,3.6988,3.6482,3.6022,3.5511,3.5261,3.5758,3.519,3.4618,3.4851,3.4899,3.4899,3.4899,3.4899,3.4899,3.4899,3.4739,3.4423,3.3893,3.3663,3.3326,3.2761,3.1222,3.0068,2.9605,2.9206,2.8817,2.8414,2.8482,2.846,2.8231,2.8666,2.8796,2.8565,2.9125,2.9521,2.9784,3.0075,3.0321,3.0598,3.0598,3.0598,4.8974,5.0003,5.0042,4.83,4.7866,4.7077,4.3896,4.2806,4.2222,4.1331,4.0777,4.0578,4.1021,4.1512,4.2366,4.3981,4.5101,4.6324,4.8013,4.9886,5.0838,5.0219,5.0443,5.0215,4.9034,4.7403,4.5977,4.4959,4.4195,4.3636,4.3329,4.329,4.32,4.3045,4.2417,4.1796,4.11,4.0442,3.9873,3.9388,3.9388,3.9388,3.9388,3.9388,3.9388,3.9388,3.9388,3.9388,0.0,3.9388,3.9388,3.9388,3.9388,3.9388,3.9388,3.9388,3.9388,3.929,3.8477,3.7878,3.7406,3.6862,3.6625,3.6616,3.6997,3.7222,3.7399,3.7844,3.8075,3.8116,3.7931,3.774,3.7549,3.737,3.6857,3.6454,3.6578,3.581,3.5068,3.4908,3.4899,3.4899,3.4899,3.4899,3.4899,3.4899,3.4828,3.4691,3.4497,3.4399,3.4275,3.4075,3.3014,3.1919,3.1006,3.0608,3.0188,2.9738,2.9795,2.9722,2.9409,2.9834,2.9916,2.9531,3.0098,3.0365,3.0365,3.0676,3.0777,3.0717,3.0687,3.0642,4.7026,4.8064,4.8255,4.7095,4.7215,4.6896,4.4224,4.3576,4.3182,4.1792,4.1492,4.1558,4.1754,4.1643,4.2291,4.461,4.4841,4.5748,4.8663,4.9723,5.0083,4.9651,4.9903,4.9628,4.8339,4.6799,4.5804,4.5526,4.4555,4.3778,4.3329,4.329,4.3045,4.2425,4.1767,4.107,4.0412,3.9768,3.9388,3.9388,3.9388,3.9388,3.9388,3.9388,3.9388,3.9388,3.9388,3.9388,0.0,3.9388,3.9388,3.9388,3.9388,3.9388,3.9388,3.9388,3.9388,3.923,3.8105,3.7722,3.7597,3.6923,3.6784,3.7041,3.7825,3.8169,3.8322,3.8539,3.8694,3.8706,3.8379,3.8197,3.8128,3.8266,3.7871,3.7404,3.7149,3.6522,3.5777,3.5032,3.4899,3.4899,3.4899,3.4899,3.4899,3.4899,3.4899,3.4899,3.4899,3.4899,3.4899,3.4899,3.4883,3.4258,3.2786,3.1999,3.1582,3.1566,3.1333,3.0989,3.0608,3.0975,3.0992,3.058,3.1194,3.148,3.148,3.1365,3.119,3.0999,3.0881,3.0732,4.5546,4.7082,4.8157,4.7308,4.7018,4.6434,4.4285,4.3518,4.3014,4.2091,4.1932,4.1981,4.2285,4.2423,4.311,4.5077,4.5443,4.6129,4.8084,4.8995,4.9306,4.8897,4.8638,4.7939,4.6639,4.6071,4.5612,4.5062,4.4527,4.3934,4.3329,4.329,4.303,4.2425,4.1767,4.107,4.0412,3.9753,3.9388,3.9388,3.9388,3.9388,3.9388,3.9388,3.9388,3.9388,3.9388,3.9388,3.9388,3.9388,3.9388,3.9388,3.9388,3.9388,3.9388,3.9388,3.9125,3.8682,3.8451,3.8307,3.8159,3.77,3.802,3.8579,3.8489,3.8483,3.8595,3.8969,3.9013,3.8887,3.8579,3.8539,3.8567,3.8523,3.8183,3.7692,3.7217,3.6522,3.5777,3.5032,3.4899,3.4899,3.4899,3.4899,3.4899,3.4899,3.4899,3.4899,3.4899,3.4899,3.4899,3.4899,3.4899,3.4506,3.3529,3.3233,3.2889,3.238,3.2574,3.2563,3.2245,3.2669,3.2746,3.238,3.2474,3.2544,3.2528,3.2158,3.1722,3.119,3.0836,3.0642,4.3581,4.4928,4.6056,4.5746,4.5845,4.5617,4.4209,4.3815,4.3508,4.2826,4.268,4.2743,4.2943,4.3099,4.3615,4.5016,4.5553,4.6212,4.7421,4.8465,4.8876,4.8348,4.791,4.728,4.6227,4.5961,4.5672,4.5184,4.4708,4.4073,4.3329,4.309,4.2671,4.2051,4.1632,4.095,4.0038,3.9634,3.9388,3.9388,3.9388,3.9388,3.9388,3.9388,3.9388,3.9388,3.9388,3.9388,0.0,3.9388,3.9388,3.9424,3.9481,3.9517,3.9517,3.9604,3.9369,3.9033,3.9089,3.9082,3.9004,3.8543,3.8777,3.9194,3.8936,3.886,3.8931,3.9218,3.9202,3.9067,3.8903,3.8931,3.8985,3.8887,3.8683,3.8239,3.7292,3.6738,3.6108,3.5098,3.4899,3.4899,3.4899,3.4899,3.4899,3.4899,3.4899,3.4899,3.4899,3.4899,3.4899,3.4899,3.4899,3.47,3.4237,3.4203,3.4005,3.3557,3.3769,3.3761,3.3494,3.3707,3.3704,3.3371,3.3308,3.3256,3.3256,3.2819,3.2329,3.1752,3.1466,3.1308,0.0,4.2025,4.2633,4.2996,4.3936,4.461,4.4024,4.4268,0.0,4.3731,4.3598,4.3598,4.3598,4.3598,4.3876,4.4638,4.5334,4.6079,4.6874,4.8166,4.8726,4.7937,4.7742,4.7448,4.6892,4.6375,4.5965,4.5733,4.503,4.4266,4.3423,4.2755,4.2134,4.1437,4.1377,4.0733,3.9388,3.9388,3.9388,3.9388,3.9388,3.9388,3.9388,3.9388,3.9388,0.0,3.9388,3.9388,0.0,3.9388,3.9388,3.9409,3.961,3.9717,3.9788,3.9996,4.0036,4.0039,3.9954,4.0024,4.002,3.9528,3.9235,3.9116,3.9262,3.9299,3.9299,3.9299,3.9299,3.9299,3.9299,3.9299,3.9299,3.9299,3.9299,3.8917,3.75,3.7152,3.6688,3.5247,3.4932,3.4899,3.4899,3.4899,3.4899,3.4899,3.4899,3.4899,3.4899,3.4899,3.4899,3.4899,3.4899,3.4899,3.4899,3.4899,3.4899,3.4899,3.478,3.4594,3.4349,3.4226,3.4041,3.3877,3.3925,3.3931,3.388,3.3445,3.3027,3.2632,3.2568,3.2513,3.9865,0.0,4.289,4.2917,4.3608,4.4149,0.0,4.3799,4.3797,4.3631,4.3598,4.3598,4.3598,4.3598,4.4012,4.5317,4.5682,4.6245,4.7554,4.7902,4.7851,4.7328,4.7445,4.743,4.705,4.6825,4.6477,4.5965,4.54,4.4685,4.3895,4.322,4.2478,4.1663,4.1136,4.0379,3.9424,3.9388,3.9388,3.9388,3.9388,3.9388,3.9388,3.9388,3.9388,3.9388,3.9388,0.0,3.9388,3.9388,3.9388,3.9409,3.961,3.995,4.032,4.0478,4.0463,4.0474,4.1096,4.1279,4.1187,4.0967,4.0512,3.9973,3.9454,3.9299,3.9299,3.9299,3.9299,3.9299,3.9299,3.9299,3.9299,3.9299,3.9299,3.905,3.8146,3.75,3.6837,3.5926,3.5297,3.4899,3.4899,3.4899,3.4899,3.4899,3.4899,3.4899,3.4899,3.4899,3.4899,3.4899,3.4899,3.4899,3.4899,3.4899,3.4899,3.4899,3.4875,3.4811,3.4763,3.4732,3.4947,3.5457,3.6016,3.6074,3.5625,3.494,3.4355,3.3802,3.318,3.2832,3.9517,4.0648,4.176,4.1623,4.2469,4.3301,4.3041,4.3284,4.3598,4.3598,4.3598,4.3598,4.3598,4.3893,4.4373,4.5152,4.5847,4.6825,4.8299,4.8398,4.8248,4.803,4.8164,4.8033,4.7554,4.7286,4.6929,4.641,4.5965,4.5437,4.4805,4.3692,4.2748,4.2071,4.0976,4.0058,3.9424,3.9388,3.9388,3.9388,3.9388,3.9388,3.9388,3.9388,3.9388,3.9424,3.9481,0.0,3.9553,3.964,3.9676,3.9711,4.0086,4.0424,4.0771,4.1109,4.1223,4.131,4.1949,4.2054,4.1858,4.1514,4.0945,4.026,3.9514,3.9299,3.9299,3.9299,3.9299,3.9299,3.9299,3.9299,3.9299,3.9299,3.9299,3.91,3.8361,3.7897,3.7301,3.6208,3.5678,3.5297,3.4965,3.5181,3.5396,3.5396,3.5694,3.5909,3.5909,3.5909,3.5777,3.5446,3.5396,3.5263,3.4932,3.4899,3.4899,3.4899,3.4899,3.4899,3.4899,3.5214,3.5744,3.6489,3.6903,3.6856,3.6328,3.5884,3.5388,3.4816,3.428,3.3952,3.9661,4.0203,4.0639,4.0335,4.1581,4.278,4.2413,4.3092,4.3731,4.3615,4.3598,4.3631,4.3731,4.4274,4.4754,4.4986,4.6179,4.7504,4.8763,4.8945,4.8945,4.8945,4.8945,4.8696,4.8067,4.7671,4.7303,4.6896,4.6566,4.6166,4.5663,4.411,4.2969,4.2438,4.0924,3.991,3.9445,3.9424,3.9388,3.9388,3.9388,3.9388,3.9388,3.9388,3.9388,3.9424,0.0,0.0,3.9824,4.0016,4.0172,4.0296,4.0749,4.1057,4.1294,4.1803,4.211,4.2365,4.2648,4.2659,4.238,4.165,4.1011,4.0409,3.9547,3.9299,3.9299,3.9299,3.9299,3.9299,3.9299,3.9299,3.9299,3.9299,3.9299,3.9133,3.851,3.8295,3.7847,3.6589,3.6241,3.5976,3.5346,3.5744,3.6174,3.6174,3.6704,3.7102,3.7102,3.7102,3.687,3.6241,3.6174,3.5909,3.5297,3.5131,3.5065,3.5065,3.4965,3.4949,3.5048,3.5777,3.6522,3.7268,3.7384,3.7254,3.6845,3.6702,3.6355,3.5869,3.5527,3.5329,3.9661,4.0902,4.2083,4.165,4.3043,4.4352,4.3638,4.3999,4.4357,4.3714,4.3598,4.378,4.4423,4.4605,4.5102,4.6361,4.7272,4.7918,4.815,4.8166,4.8166,4.8166,4.8166,4.8117,4.8017,4.7787,4.7488,4.7067,4.6894,4.636,4.5352,4.4331,4.3239,4.2124,4.1186,4.0351,3.9646,3.9496,3.9388,3.9388,3.9388,3.9388,3.9388,3.9388,3.9388,3.9424,0.0,3.995,4.0374,4.0547,4.0873,4.1294,4.1541,4.1933,4.2396,4.2649,4.3007,4.3372,4.3432,4.3426,4.3171,4.1844,4.1342,4.1011,3.9713,3.9299,3.9299,3.9299,3.9299,3.9299,3.9299,3.9299,3.9299,3.9299,3.9299,3.9265,3.9166,3.8642,3.8119,3.7914,3.7367,3.6903,3.6787,3.687,3.6936,3.6936,3.7036,3.7102,3.7102,3.7102,3.7069,3.6953,3.6936,3.6887,3.6771,3.6191,3.5827,3.5827,3.5247,3.5181,3.581,3.6539,3.7284,3.803,3.8626,3.8791,3.845,3.814,3.7706,3.7111,3.6508,3.6006,3.9153,4.0419,4.1717,4.2244,4.3868,4.518,4.4529,4.4862,4.5086,4.4357,4.4191,4.4307,4.4622,4.5019,4.5765,4.7255,4.7785,4.8001,4.8001,4.8001,4.8001,4.8001,4.8001,4.8001,4.8001,4.7935,4.7787,4.7588,4.7177,4.6667,4.6142,4.4805,4.3717,4.2952,4.1836,4.0885,4.0161,3.995,3.9753,3.9553,3.9661,3.9676,3.9553,3.9553,3.9517,3.9424,0.0,4.0141,4.0634,4.0922,4.1325,4.1851,4.2126,4.2459,4.2805,4.3129,4.3419,4.3598,4.3598,4.3598,4.3416,4.2324,4.1711,4.1226,4.0183,3.9613,3.9299,3.9299,3.9299,3.9299,3.9299,3.9299,3.9299,3.9299,3.9299,3.9299,3.9299,3.9033,3.8676,3.8295,3.7947,3.7582,3.7168,3.7433,3.7673,3.7673,3.803,3.8278,3.8278,3.8278,3.8129,3.7748,3.7673,3.7524,3.7135,3.6787,3.6257,3.5462,3.5462,3.5827,3.6572,3.7317,3.8046,3.8775,3.9133,3.9175,3.8914,3.8606,3.8242,3.7754,3.7027,3.6523,3.8531,3.9739,4.1064,4.2404,4.415,4.5454,4.5196,4.5482,4.5632,4.5052,4.4967,4.5003,4.5168,4.5814,4.6676,4.7819,4.8001,4.8001,4.8001,4.8001,4.8001,4.8001,4.8001,4.8001,4.8001,4.8001,4.8001,4.8001,4.7322,4.6825,4.6643,4.512,4.4034,4.3523,4.2381,4.1407,4.0615,4.0547,4.032,3.9879,4.0016,3.998,3.9879,3.9803,3.9625,3.9409,3.9818,4.0259,4.0673,4.1229,4.1772,4.225,4.2661,4.2929,4.3115,4.3509,4.3628,4.3598,4.3658,4.3628,4.3466,4.2738,4.1993,4.1276,4.058,3.9879,3.9299,3.9299,3.9299,3.9299,3.9299,3.9299,3.9299,3.9299,3.9299,3.9299,3.9299,3.9299,3.9133,3.8576,3.846,3.8278,3.7715,3.8079,3.846,3.846,3.895,3.9299,3.9299,3.9299,3.9083,3.8526,3.846,3.8162,3.7433,3.7367,3.6804,3.5495,3.5777,3.6406,3.7334,3.7914,3.8543,3.9282,3.9299,3.9202,3.9067,3.886,3.8595,3.8258,3.7546,3.7181,3.7952,3.928,4.08,4.1981,4.367,4.5131,4.5386,4.5656,4.5765,4.5715,4.5715,4.5914,4.6609,4.7338,4.7885,4.7984,4.8001,4.8001,4.8001,4.8001,4.8001,4.8001,4.8001,4.8001,4.8001,4.8001,4.8001,4.8001,4.7322,4.6593,4.5914,4.4981,4.4009,4.2997,4.2572,4.19,4.0974,4.1341,4.114,4.0443,4.0285,4.0285,4.0409,4.0121,3.9783,3.9409,3.9818,4.0155,4.0512,4.1581,4.2213,4.2551,4.3258,4.3539,4.3568,4.3793,4.3763,4.3628,4.3793,4.3763,4.3466,4.2738,4.1993,4.1276,4.058,3.9879,3.9299,3.9299,3.9299,3.9299,3.9299,3.9299,3.9299,3.9299,3.9299,3.9299,3.9299,3.9299,3.9282,3.9232,3.9232,3.9199,3.9149,3.9183,3.9232,3.9232,3.9265,3.9299,3.9299,3.9299,3.9282,3.9232,3.9232,3.8934,3.8195,3.8103,3.7798,3.7003,3.6357,3.6655,3.8079,3.8179,3.8543,3.9282,3.9299,3.9299,3.9272,3.9272,3.9067,3.8733,3.8351,3.8248,3.7149,3.8305,3.9627,4.1134,4.2483,4.3951,4.592,4.6445,4.6477,4.6477,4.6477,4.6427,4.6245,4.7189,4.7852,4.7388,4.7703,4.8001,4.8001,4.8001,4.8001,4.8001,4.8001,4.8001,4.8001,4.8001,4.7819,4.7355,4.6626,4.5881,4.5152,4.4362,4.3759,4.3328,4.299,4.257,4.1981,4.2061,4.1997,4.1803,4.1325,4.099,4.0805,4.0578,4.0226,3.9783,4.0296,4.0782,4.1341,4.2093,4.2735,4.3201,4.3482,4.3674,4.3793,4.3868,4.3868,4.3793,4.3868,4.3763,4.3549,4.3267,4.2357,4.1331,4.111,4.0227,3.9299,3.9299,3.9299,3.9299,3.9299,3.9299,3.9299,3.9299,3.9299,3.9299,3.9299,3.9299,3.9299,3.9299,3.9299,3.9299,3.9299,3.9299,3.9299,3.9299,3.9299,3.9299,3.9299,3.9299,3.9299,3.9299,3.9299,3.9199,3.8907,3.846,3.8278,3.847,3.7781,3.7632,3.8169,3.8642,3.9033,3.9299,3.9299,3.9299,3.9299,3.9299,3.9175,3.8931,3.9079,3.9095,3.6914,3.7978,3.9152,4.0718,4.2001,4.3482,4.598,4.6543,4.6676,4.7156,4.7255,4.709,4.6576,4.7322,4.7835,4.7322,4.7669,4.8001,4.8001,4.8001,4.8001,4.8001,4.8001,4.8001,4.8001,4.8001,4.7703,4.6957,4.6212,4.5467,4.4721,4.4009,4.3598,4.3598,4.3342,4.3052,4.2695,4.2649,4.2649,4.2695,4.2285,4.1884,4.1492,4.1307,4.0953,4.0509,4.0938,4.1332,4.1773,4.2442,4.2921,4.3234,4.3078,4.3082,4.3215,4.3313,4.3418,4.3531,4.3589,4.3623,4.3565,4.3317,4.2406,4.1375,4.1216,4.026,3.9299,3.9352,3.9325,3.9299,3.9299,3.9299,3.9299,3.9299,3.9299,3.9299,3.9299,3.9299,3.9299,3.9299,3.9299,3.9299,3.9299,3.9299,3.9299,3.9299,3.9299,3.9299,3.9299,3.9299,3.9299,3.9299,3.9299,3.9299,3.9299,3.8825,3.8758,3.9265,3.8825,3.8543,3.8543,3.9033,3.9299,3.9299,3.9299,3.9299,3.9299,3.9299,3.9245,3.911,3.967,3.9858,3.7425,3.8529,3.9676,4.0799,4.2376,4.3979,4.5467,4.5798,4.6228,4.7703,4.8001,4.8001,4.7984,4.8001,4.8001,4.7984,4.8001,4.8001,4.8001,4.8001,4.8001,4.8001,4.8001,4.8001,4.8001,4.8001,4.7686,4.6941,4.6195,4.5467,4.4721,4.4009,4.3598,4.3598,4.3462,4.3221,4.2899,4.3037,4.3037,4.2899,4.3021,4.2943,4.2585,4.2254,4.19,4.1525,4.1722,4.1693,4.1581,4.2528,4.275,4.2469,4.1931,4.1705,4.1761,4.2013,4.2367,4.2715,4.2947,4.326,4.3466,4.2738,4.2021,4.1304,4.0779,4.0003,3.9325,3.9475,3.9405,3.9299,3.9299,3.9299,3.9299,3.9299,3.9299,3.9299,3.9299,3.9299,3.9299,3.9299,3.9299,3.9299,3.9299,3.9299,3.9299,3.9299,3.9299,3.9299,3.9299,3.9299,3.9299,3.9299,3.9299,3.9299,3.9299,3.9299,3.9299,3.9299,3.9299,3.9299,3.9299,3.9299,3.9299,3.9299,3.9299,3.9299,3.9299,3.9299,3.9299,3.9332,4.0078,4.0578,3.6824,3.8012,3.9329,4.0579,4.2083,4.3673,4.5296,4.6149,4.6841,4.7802,4.8001,4.7835,4.7322,4.7653,4.7835,4.7305,4.7653,4.8001,4.8001,4.8001,4.8001,4.8001,4.8001,4.8001,4.8001,4.7537,4.6924,4.6179,4.5433,4.4688,4.3976,4.3714,4.3598,4.3598,4.3568,4.3509,4.3372,4.3432,4.3432,4.3388,4.3432,4.3221,4.279,4.257,4.2254,4.1932,4.2221,4.2409,4.2543,4.3139,4.3436,4.3473,4.3302,4.3046,4.2758,4.2841,4.2948,4.3048,4.3004,4.3363,4.3759,4.3409,4.2526,4.1566,4.1422,4.0538,3.9573,3.9528,3.9475,3.9422,3.9325,3.9299,3.9299,3.9299,3.9299,3.9299,3.9299,3.9299,3.9299,3.9299,3.9299,3.9299,3.9299,3.9299,3.9299,3.9299,3.9299,3.9299,3.9299,3.9299,3.9299,3.9299,3.9299,3.9299,3.9299,3.9299,3.9299,3.9299,3.9299,3.9299,3.9299,3.9299,3.9299,3.9299,3.9299,3.9299,3.9299,3.9299,3.9564,4.0094,4.0779,4.1378,3.7086,3.8357,3.98,4.0981,4.2527,4.4247,4.6122,4.6959,4.7454,4.7918,4.8001,4.7868,4.7421,4.7703,4.7852,4.7404,4.7719,4.8001,4.8001,4.8001,4.8001,4.8001,4.8001,4.8001,4.8001,4.7338,4.6593,4.5847,4.5102,4.4373,4.3631,4.3598,4.3598,4.3598,4.3598,4.3598,4.3598,4.3598,4.3598,4.3598,4.3598,4.3449,4.3176,4.3052,4.2881,4.2711,4.2912,4.3052,4.3174,4.3254,4.3361,4.3444,4.3275,4.3015,4.2745,4.2496,4.2739,4.3104,4.2433,4.2791,4.3435,4.272,4.1966,4.1299,4.1053,4.0371,3.9677,3.9668,3.958,3.9475,3.9405,3.9325,3.9299,3.9299,3.9299,3.9299,3.9299,3.9299,3.9299,3.9299,3.9299,3.9299,3.9299,3.9299,3.9299,3.9299,3.9547,3.9746,3.9746,3.9746,3.9746,3.9746,3.9481,3.9299,3.9299,3.9299,3.9299,3.9299,3.9299,3.9299,3.9299,3.9299,3.9299,3.9299,3.9299,3.9448,3.9746,3.9746,4.0111,4.0812,4.1524,4.2047,3.7742,3.9138,4.0589,4.1712,4.3425,4.5407,4.7473,4.7968,4.7968,4.8001,4.8001,4.8001,4.8001,4.8001,4.8001,4.8001,4.8001,4.7984,4.7918,4.7901,4.7868,4.7819,4.7802,4.7802,4.7802,4.7123,4.6411,4.5748,4.5003,4.4307,4.3631,4.3598,4.3598,4.3598,4.3598,4.3598,4.3598,4.3598,4.3565,4.3499,4.3565,4.3565,4.3499,4.3565,4.3598,4.3598,4.3598,4.3598,4.3578,4.3107,4.291,4.2901,4.2467,4.2257,4.2149,4.1608,4.2129,4.293,4.1557,4.1906,4.2702,4.1335,4.0876,4.0718,4.0178,3.9874,3.9755,3.9875,3.972,3.9528,3.9501,3.9422,3.9325,3.9299,3.9299,3.9299,3.9299,3.9299,3.9299,3.9299,3.9299,3.9299,3.9299,3.9299,3.9315,3.9398,3.9978,4.0426,4.0492,4.0442,4.0409,4.0409,3.9746,3.9299,3.9299,3.9299,3.9299,3.9299,3.9299,3.9332,3.9398,3.9332,3.9299,3.9299,3.9365,3.973,4.0409,4.0475,4.0829,4.1524,4.2175,4.2522,3.6845,3.8093,3.9538,4.1376,4.3601,4.5724,4.7191,4.7638,4.782,4.7968,4.8001,4.8001,4.8001,4.8001,4.8001,4.8001,4.8001,4.7802,4.7222,4.7139,4.6924,4.6328,4.6262,4.6262,4.6262,4.5599,4.5102,4.4937,4.4257,4.3764,4.3598,4.3598,4.3598,4.3598,4.3598,4.3598,4.3598,4.3598,4.33,0.0,4.3317,4.33,4.2754,4.3333,4.3598,4.3598,4.3598,4.3687,4.3822,4.3714,4.3793,4.3972,4.3861,4.3524,4.3111,4.297,4.2733,4.2436,4.1998,4.2045,4.2236,4.1797,4.1322,4.0942,4.08,4.0407,4.0011,3.991,3.9849,3.9772,3.9537,3.9475,3.9432,3.9325,3.9299,3.9299,3.9299,3.9299,3.9299,3.9299,3.9299,3.9299,3.9299,3.9299,3.9497,4.0078,4.031,4.0608,4.1127,4.0713,4.0409,4.0409,3.9746,3.9299,3.9299,3.9299,3.9299,3.9299,3.9299,3.9564,4.0144,3.9613,3.9299,3.9299,3.9879,4.0243,4.0409,4.0928,4.1574,4.2258,4.2423,4.2804,3.6025,3.7393,3.9063,4.152,4.3729,4.5646,4.685,4.727,4.7521,4.7935,4.8001,4.8001,4.8001,4.8001,4.8001,4.8001,4.8001,4.7736,4.7007,4.6891,4.6626,4.5881,4.5798,4.5798,4.5798,4.5119,4.4688,4.4688,4.4026,4.3598,4.3598,4.3598,4.3598,4.3598,4.3598,4.3598,4.3598,4.3598,4.3218,4.2506,4.3251,4.3459,4.3198,4.3551,4.3734,4.3763,4.3805,4.3894,4.3998,4.4085,4.4167,4.431,4.4412,4.426,4.3893,4.3149,4.2861,4.2675,4.1531,4.137,4.1596,4.1189,4.0845,4.0577,4.0577,4.0341,4.0087,4.0011,3.9935,3.9875,3.972,3.9642,3.959,3.9511,3.9405,3.9299,3.9299,3.9299,3.9299,3.9299,3.9597,3.9829,3.9829,4.0111,4.0431,4.0812,4.1177,4.1541,4.1889,4.1309,4.0878,4.0878,3.9945,3.9448,3.9812,3.9829,3.9962,4.0282,4.0299,4.0481,4.0862,4.0498,4.0299,4.0299,4.068,4.1044,4.1409,4.1773,4.2307,4.3019,4.3019,4.3234,3.4954,3.6858,3.902,4.1677,4.3639,4.5144,4.6183,4.6747,4.7169,4.7638,4.7885,4.8001,4.8001,4.8001,4.7968,4.7835,4.7819,4.7504,4.6643,4.651,4.6245,4.55,4.5417,4.5417,4.5417,4.4854,4.4506,4.4506,4.3959,4.3598,4.3598,4.3598,4.3598,4.3598,4.3598,4.3598,4.3598,4.3598,4.3197,4.2381,4.3007,4.3543,4.3927,4.3823,4.3839,4.3956,4.4056,4.4126,4.4155,4.4253,4.4338,4.4367,4.4542,4.4615,4.4429,4.2997,4.2811,4.2946,4.0967,4.0595,4.0916,4.0316,4.0096,4.0079,3.996,3.991,3.9893,3.9757,3.9724,3.9741,3.9716,3.9723,3.9729,3.9703,3.952,3.9379,3.9379,3.9478,3.9561,3.9561,4.0149,4.0619,4.0591,4.1028,4.143,4.1562,4.2092,4.2539,4.2655,4.1926,4.1409,4.1409,4.0133,3.9597,4.0343,4.0409,4.068,4.1375,4.1409,4.1446,4.1562,4.1579,4.1645,4.1761,4.1645,4.1877,4.2489,4.2622,4.2986,4.3598,4.3598,4.3598,3.3185,3.6351,3.9495,4.1331,4.2925,4.4232,4.4843,4.5869,4.6664,4.6618,4.7358,4.8001,4.8001,4.8001,4.7785,4.7156,4.704,4.656,4.5185,4.4986,4.4721,4.3962,4.388,4.388,4.388,4.3797,4.3731,4.3731,4.3648,4.3598,4.3598,4.3598,4.3598,4.3598,4.3598,4.3598,4.3598,4.3598,4.3007,4.181,4.2016,4.2819,4.4051,4.3529,4.358,4.4068,4.4097,4.4184,4.4281,4.4293,4.4395,4.457,4.4598,4.4615,4.4496,4.3589,4.2912,4.2303,4.1373,4.0696,4.0231,4.013,4.0096,3.9977,3.9326,3.914,3.9005,3.8379,3.8625,3.9091,3.8983,3.9404,3.9833,3.9729,3.9677,3.9651,3.9651,4.0153,4.0595,4.0595,4.1115,4.1461,4.1304,4.1359,4.1612,4.2258,4.2423,4.2721,4.3367,4.2241,4.1409,4.1409,4.0133,3.9597,4.0343,4.0409,4.068,4.1375,4.1409,4.1707,4.2324,4.234,4.2638,4.3284,4.2671,4.239,4.2489,4.3135,4.3499,4.3598,4.3598,4.3598,3.3192,3.6165,3.8743,4.0375,4.1648,4.2677,4.334,4.4075,4.4798,4.5373,4.593,4.6667,4.777,4.8001,4.7769,4.7023,4.6891,4.6378,4.4903,4.4688,4.4423,4.3681,4.3598,4.3598,4.3598,4.3598,4.3598,4.3598,4.3598,4.3598,4.3598,4.3598,4.3598,4.3598,4.3598,4.3598,4.3598,4.3598,4.3372,4.2932,4.264,4.3116,4.4196,4.3945,4.3732,4.3574,4.325,4.3356,4.3799,4.3799,4.4108,4.4564,4.4096,4.3927,4.3775,4.2608,4.1965,4.1576,4.0832,4.0383,4.0096,4.0096,3.9825,3.9436,3.9089,3.87,3.8328,3.799,3.843,3.9005,3.8931,3.9471,3.9986,3.9935,4.0255,4.0533,4.0533,4.0697,4.1033,4.1854,4.2178,4.2432,4.2746,4.2725,4.2738,4.3069,4.3118,4.3234,4.3549,4.2655,4.2009,4.2009,4.1094,4.0779,4.1508,4.1574,4.1889,4.2572,4.2622,4.2771,4.3085,4.3118,4.3267,4.3582,4.3267,4.3118,4.3118,4.3433,4.3598,4.3598,4.3598,4.3598,3.2807,3.5157,3.704,3.8921,4.0122,4.101,4.1734,4.2499,4.3266,4.4115,4.456,4.5326,4.6898,4.734,4.7206,4.646,4.6328,4.5881,4.4589,4.4423,4.4224,4.3664,4.3598,4.3598,4.3598,4.3598,4.3598,4.3598,4.3598,4.3598,4.3598,4.3598,4.3598,4.3598,4.3598,4.3598,4.3598,4.3505,4.3623,4.3939,4.3372,4.353,4.4367,4.4164,4.3777,4.321,4.2774,4.2794,4.3149,4.3308,4.3639,4.3988,4.3572,4.3274,4.298,4.1677,4.1204,4.1085,4.0367,4.0096,4.0079,3.9893,3.9453,3.8954,3.8768,3.8345,3.7905,3.7905,3.843,3.9039,3.9225,3.9842,4.0434,4.062,4.1068,4.1542,4.1728,4.162,4.1829,4.3093,4.3248,4.3347,4.3856,4.3822,4.3717,4.3717,4.3717,4.3717,4.3717,4.3099,4.2634,4.2634,4.1969,4.1837,4.2567,4.2634,4.2949,4.3667,4.3717,4.3717,4.3717,4.3717,4.3717,4.3717,4.3717,4.3687,4.3598,4.3598,4.3598,4.3598,4.3598,4.3598,3.1058,3.2583,3.4243,3.6809,3.8392,3.9478,4.0031,4.1561,4.2891,4.2821,4.3623,4.4455,4.4885,4.5486,4.5665,4.492,4.4804,4.4539,4.3764,4.3648,4.3631,4.3598,4.3598,4.3598,4.3598,4.3598,4.3598,4.3598,4.3598,4.3598,4.3598,4.3598,4.3598,4.3598,4.3598,4.3598,4.3598,4.3222,4.3394,4.4097,4.3625,4.3798,4.4553,4.3781,4.3426,4.3392,4.3358,4.298,4.2405,4.3115,4.3014,4.2472,4.3149,4.298,4.2252,4.1491,4.1204,4.1085,4.0367,4.0096,3.9994,3.9276,3.9022,3.887,3.8176,3.7939,3.7905,3.7905,3.843,3.9157,3.9859,4.0578,4.1322,4.2016,4.2202,4.2422,4.3122,4.3274,4.3455,4.4119,4.4214,4.4202,4.408,4.4068,4.4068,4.4068,4.4068,4.4068,4.4068,4.3416,4.2975,4.2975,4.2306,4.2172,4.2925,4.2975,4.331,4.4018,4.4068,4.4068,4.4068,4.4068,4.4068,4.4068,4.4068,4.3923,4.3598,4.3598,4.3598,4.3598,4.3598,4.3598,2.975,3.0991,3.2526,3.5125,3.6277,3.7131,3.8627,3.9622,4.0403,4.1127,4.1653,4.2131,4.2583,4.4512,4.5798,4.5172,4.5561,4.5706,4.5088,4.5019,4.4837,4.4357,4.4307,4.4125,4.3648,4.3598,4.3598,4.3598,4.3598,4.3598,4.3598,4.3598,4.3598,4.3598,4.3598,4.3658,4.3793,4.3731,4.3887,4.4224,4.4198,4.4316,4.4598,4.4282,4.3893,4.3392,4.3392,4.298,4.2269,4.2066,4.2117,4.2269,4.2066,4.183,4.1508,4.0764,4.0476,4.0468,4.0197,3.9791,3.9368,3.9089,3.8684,3.8244,3.799,3.7905,3.7905,3.7905,3.8768,3.9774,4.0037,4.1001,4.2083,4.2828,4.3014,4.3234,4.3995,4.4164,4.4248,4.4446,4.4395,4.4265,4.4224,4.4155,4.4097,4.4097,4.4097,4.4097,4.4097,4.3863,4.3712,4.3712,4.3461,4.3411,4.3679,4.3712,4.3813,4.408,4.4097,4.4097,4.4097,4.4097,4.4097,4.4097,4.4097,4.3998,4.3793,4.3793,4.3734,4.3598,4.3598,4.3598,2.8616,2.9623,3.0915,3.3182,3.4353,3.5419,3.7039,3.8082,3.8962,3.9822,4.029,4.0668,4.1091,4.3311,4.5041,4.4805,4.5472,4.6009,4.5816,4.5798,4.5616,4.5119,4.5052,4.4771,4.4042,4.3976,4.3863,4.3615,4.3598,0.0,4.3598,4.3598,4.3598,4.3598,4.3409,4.3497,4.3898,4.3834,4.3961,4.431,4.4497,4.4615,4.4598,4.4316,4.4045,4.3775,4.3267,4.276,4.2252,4.1762,4.1711,4.188,4.139,4.1052,4.0764,4.0282,4.0096,4.0096,4.0096,3.9791,3.9326,3.9073,3.8667,3.8278,3.8278,3.8278,3.8379,3.887,3.9715,4.0578,4.1076,4.2134,4.321,4.369,4.3809,4.3944,4.4496,4.4615,4.4615,4.4615,4.4497,4.4412,4.4412,4.4327,4.4286,4.4286,4.4286,4.4286,4.4286,4.4286,4.4286,4.4286,4.4286,4.4286,4.4286,4.4286,4.4286,4.4286,4.4286,4.4286,4.4286,4.4286,4.4286,4.4286,4.4286,4.4184,4.4027,4.3939,4.3822,4.3704,4.3628,4.3598,0.0,0.0,0.0,3.0954,3.2744,3.4365,3.5249,3.7091,3.8681,3.8884,3.9588,4.02,4.042,4.1868,4.3167,4.3605,4.4448,4.5228,4.5753,4.5847,4.5847,4.5814,4.5814,4.5533,4.4787,4.4721,4.4423,4.3681,4.3631,4.3615,4.3598,4.3598,4.3598,4.3598,4.3061,4.3115,4.3898,4.3451,4.3575,4.431,4.4514,4.4615,4.4581,4.3792,4.3859,4.453,4.3014,4.2354,4.2354,4.2286,4.1847,4.1204,4.1187,4.073,4.0096,4.0096,4.0096,4.0096,4.0096,4.0096,3.996,3.9225,3.8988,3.8988,3.8988,3.9022,3.936,4.0798,4.1238,4.161,4.3054,4.4012,4.4615,4.4615,4.4615,4.4615,4.4615,4.4615,4.4615,4.4615,4.4615,4.4615,4.4615,4.4615,4.4615,4.4615,4.4615,4.4615,4.4615,4.4615,4.4615,4.4615,4.4615,4.4615,4.4615,4.4615,4.4615,4.4615,4.4615,4.4615,4.4615,4.4615,4.4615,4.4615,4.4615,4.4497,4.431,4.4056,4.3898,4.3898,4.3704,4.3628,2.6813,0.0,0.0,0.0,0.0,0.0,3.4341,3.5597,3.6667,3.7631,3.8406,3.9058,3.9591,4.0628,4.1699,4.2657,4.4705,4.6345,4.6881,4.7095,4.7043,4.6659,4.6593,4.6295,4.5566,4.5483,4.5185,0.0,4.439,4.4175,4.3631,4.3598,4.3598,4.3598,4.3577,4.3723,4.4039,4.3994,4.4164,4.4514,4.457,4.4615,4.4598,4.4378,4.4395,4.4581,4.4158,4.3972,4.3853,4.2185,4.139,4.1153,4.0595,4.0282,4.0096,4.0096,4.0096,4.0096,4.0096,3.9757,3.9259,3.9056,3.8988,3.8988,3.8988,3.9749,4.0679,4.1085,4.1982,4.3031,4.4012,4.4418,4.4615,4.4615,4.4615,4.4615,4.4615,4.4615,4.4615,4.4615,4.4615,4.4615,4.4615,4.4615,4.4615,4.4615,4.4615,4.4615,4.4615,4.4615,4.4615,4.4615,4.4615,4.4615,4.4615,4.4615,4.4615,4.4615,4.4615,4.4615,4.4615,4.4615,4.4615,4.4615,4.4615,4.457,4.4514,4.4298,4.4155,4.4039,4.3981,4.3952,2.6499,2.6998,2.7788,2.9056,0.0,0.0,3.3084,3.4465,3.5618,3.6428,3.7345,3.8093,3.8512,3.9529,4.0555,4.1337,4.347,4.5559,4.6968,4.7337,4.744,4.7372,4.7355,4.7073,4.6328,4.6245,4.5814,4.4771,4.4688,4.4373,4.3631,4.3687,4.3687,4.3598,4.3552,4.3709,4.4097,4.3687,4.3675,4.4096,4.3802,4.3792,4.4079,4.3775,4.4005,4.4564,4.3938,4.3809,4.3944,4.1999,4.139,4.1559,4.0519,4.0096,4.0096,4.0096,4.0096,4.0096,4.0096,3.9825,3.9469,3.9469,3.9469,3.9469,3.9469,4.0273,4.1271,4.1576,4.2743,4.4012,4.4496,4.4615,4.4615,4.4615,4.4615,4.4615,4.4615,4.4615,4.4615,4.4615,4.4615,4.4615,4.4615,4.4615,4.4615,4.4615,4.4615,4.4615,4.4615,4.4615,4.4615,4.4615,4.4615,4.4615,4.4615,4.4615,4.4615,4.4615,4.4615,4.4615,4.4615,4.4615,4.4615,4.4615,4.4615,4.4615,4.4615,4.4412,4.4224,4.4097,4.4097,4.4097,2.6568,2.7032,2.7643,2.8312,2.9559,0.0,3.1671,3.341,3.4937,3.5233,3.6312,3.7225,3.73,3.8472,3.9521,3.9793,4.1336,4.3486,4.6177,4.6783,4.7172,4.7853,4.7968,4.7703,4.7073,4.7023,4.6444,4.5036,4.4771,4.4373,4.3631,4.3763,4.3793,4.3628,4.3301,4.3406,4.3992,4.2962,4.2709,4.3257,4.2692,4.2777,4.3375,4.2811,4.3284,4.453,4.3159,4.2878,4.3291,4.1914,4.166,4.2033,4.0654,4.0096,4.0096,4.0096,4.0096,4.0096,4.0096,4.0096,4.0096,4.0096,4.0096,4.0096,4.0096,4.0663,4.1491,4.232,4.3548,4.4615,4.4615,4.4615,4.4615,4.4615,4.4615,4.4615,4.4615,4.4615,4.4615,4.4615,4.4615,4.4615,4.4615,4.4615,4.4615,4.4615,4.4615,4.4615,4.4615,4.4615,4.4615,4.4615,4.4615,4.4615,4.4615,4.4615,4.4615,4.4615,4.4615,4.4615,4.4615,4.4615,4.4615,4.4615,4.4615,4.4615,4.4615,4.4412,4.4253,4.4155,4.4155,4.4155,2.6841,2.7201,2.7656,2.8189,2.8981,0.0,3.0622,3.1746,3.2878,3.3707,3.4951,3.6043,3.6567,3.7319,3.8042,3.8602,3.9617,4.1449,4.4661,4.5576,4.6296,4.7389,4.7671,4.777,4.7802,4.7785,4.7421,4.6527,4.5367,4.4373,4.3631,4.3628,4.3704,4.3839,4.3877,4.3719,4.3396,4.3242,4.2963,4.2523,4.298,4.324,4.3409,4.391,4.4327,4.4581,4.4293,4.3859,4.3325,4.2455,4.1813,4.1322,4.0451,4.0096,4.0096,4.0096,4.0096,4.0096,4.0096,4.0096,4.0096,4.0096,4.0096,4.0096,4.0096,4.1044,4.2371,4.3768,4.4378,4.4615,4.4615,4.4615,4.4615,4.4615,4.4615,4.4615,4.4615,4.4615,4.4615,4.4615,4.4615,4.4615,4.4615,4.4615,4.4615,4.4615,4.4615,4.4615,4.4615,4.4615,4.4615,4.4615,4.4615,4.4615,4.4615,4.4615,4.4615,4.4615,4.4615,4.4615,4.4615,4.4615,4.4615,4.4615,4.4615,4.4615,4.4615,4.457,4.4542,4.4485,4.4485,4.4485,2.6977,2.7302,2.7756,2.8189,2.8881,0.0,0.0,3.1319,3.2181,3.287,3.3799,3.4711,3.5387,3.6013,3.6671,3.733,3.8161,3.954,4.2003,4.3796,4.5416,4.6918,4.7303,4.7555,4.7968,4.8001,4.7537,4.6427,4.5379,4.4434,4.3631,4.3747,4.3864,4.3898,4.3734,4.3519,4.3188,4.2611,4.2303,4.2286,4.2303,4.2682,4.3409,4.3826,4.4215,4.4564,4.3802,4.3217,4.2777,4.1644,4.0993,4.0595,4.0248,4.0096,4.0096,4.0096,4.0096,4.0096,4.0096,4.0096,4.0096,4.0096,4.0367,4.0646,4.0646,4.1677,4.3098,4.4276,4.4615,4.4615,4.4615,4.4615,4.4615,4.4615,4.4615,4.4615,4.4615,4.4615,4.4615,4.4615,4.4615,4.4615,4.4615,4.4615,4.4615,4.4615,4.4615,4.4615,4.4615,4.4615,4.4615,4.4615,4.4615,4.4615,4.4615,4.4615,4.4615,4.4615,4.4615,4.4615,4.4615,4.4615,4.4615,4.4615,4.4615,4.4615,4.4615,4.4615,4.4615,4.4615,4.4615,4.4615,2.7246,2.7626,2.81,2.8429,2.9059,2.9758,0.0,0.0,0.0,3.2229,3.2841,3.3469,3.4039,3.4756,3.5474,3.6013,3.688,3.7933,3.9299,4.1546,4.3843,4.5934,4.657,4.7024,4.7622,4.7753,4.7173,4.5698,4.5158,4.4511,4.3707,4.3894,4.4027,4.3969,4.3479,4.3149,4.3025,4.1801,4.1424,4.1863,4.1559,4.2049,4.3217,4.3504,4.391,4.4282,4.3047,4.2337,4.1999,4.0781,4.0231,4.0096,4.0096,4.0096,4.0096,4.0096,4.0096,4.0096,4.0096,4.0096,4.0096,4.0096,4.0595,4.1255,4.1542,4.2472,4.3589,4.435,4.4615,4.4615,4.4615,4.4615,4.4615,4.4615,4.4615,4.4615,4.4615,4.4615,4.4615,4.4615,4.4615,4.4615,4.4615,4.4615,4.4615,4.4615,4.4615,4.4615,4.4615,4.4615,4.4615,4.4615,4.4615,4.4615,4.4615,4.4615,4.4615,4.4615,4.4615,4.4615,4.4615,4.4615,4.4615,4.4615,4.4615,4.4615,4.4615,4.4615,4.4615,4.4615,4.4615,4.4615,2.8178,2.8507,2.8879,2.92,2.944,2.9758,3.0388,0.0,3.1205,3.1542,0.0,3.2647,3.2721,0.0,0.0,3.4713,3.5791,3.687,3.7608,3.8611,4.0493,4.3661,4.5076,4.5971,4.6536,4.6863,4.6411,4.492,4.4768,4.448,4.3901,4.3898,4.4027,4.4253,4.3575,4.2951,4.2395,4.161,4.0899,4.0367,4.1602,4.2252,4.2472,4.3826,4.4113,4.3538,4.3341,4.254,4.1322,4.1136,4.0679,4.0096,4.0096,4.0096,4.0096,4.0096,4.0096,4.0096,4.0096,4.0096,4.0096,4.0096,4.0595,4.1441,4.2733,4.3257,4.3589,4.435,4.4615,4.4615,4.4615,4.4615,4.4615,4.4615,4.4615,4.4615,4.4615,4.4615,4.4615,4.4615,4.4615,4.4615,4.4615,4.4615,4.4615,4.4615,4.4615,4.4615,4.4615,4.4615,4.4615,4.4615,4.4615,4.4615,4.4615,4.4615,4.4615,4.4615,4.4615,4.4615,4.4615,4.4615,4.4615,4.4615,4.4615,4.4615,4.4615,4.4615,4.4615,4.4615,4.4615,4.4615,2.9541,2.9558,2.9621,2.9955,3.0024,3.0129,3.0658,3.1294,3.1812,3.2049,0.0,0.0,0.0,0.0,0.0,0.0,3.5549,3.6133,3.6791,3.7259,3.8625,4.1529,4.2905,4.4106,4.5473,4.6087,4.5773,4.4278,4.4284,4.4056,4.3409,4.3863,4.4167,4.431,4.3248,4.2571,4.2286,4.1136,4.0612,4.0747,4.1373,4.188,4.2303,4.2963,4.3064,4.2743,4.232,4.1779,4.117,4.073,4.0383,4.0096,4.0096,4.0096,4.0096,4.0096,4.0096,4.0096,4.0096,4.0096,4.0248,4.1111,4.1576,4.2117,4.3639,4.4096,4.4164,4.4513,4.4615,4.4615,4.4615,4.4615,4.4615,4.4615,4.4615,4.4615,4.4615,4.4615,4.4615,4.4615,4.4615,4.4615,4.4615,4.4615,4.4615,4.4615,4.4615,4.4615,4.4615,4.4615,4.4615,4.4615,4.4615,4.4615,4.4615,4.4615,4.4615,4.4615,4.4615,4.4615,4.4615,4.4615,4.4615,4.4615,4.4615,4.4615,4.4615,4.4615,4.4615,4.4615,4.4615,4.4615,3.0959,3.0735,3.0592,3.0934,3.0747,3.0613,3.1029,3.1768,3.2378,3.2482,3.3036,0.0,0.0,0.0,3.4668,3.5145,0.0,3.5669,3.6148,3.631,3.7255,3.9622,4.1158,4.2736,4.448,4.5083,4.4906,4.3901,4.381,4.3674,4.335,4.395,4.4338,4.4367,4.3213,4.2489,4.2286,4.1044,4.0561,4.0899,4.1102,4.1474,4.1999,4.2202,4.2185,4.1965,4.1441,4.1085,4.0849,4.0333,4.0096,4.0096,4.0096,4.0096,4.0096,4.0096,4.0096,4.0096,4.0096,4.0096,4.035,4.1813,4.2286,4.2574,4.4141,4.4615,4.4615,4.4615,4.4615,4.4615,4.4615,4.4615,4.4615,4.4615,4.4615,4.4615,4.4615,4.4615,4.4615,4.4615,4.4615,4.4615,4.4615,4.4615,4.4615,4.4615,4.4615,4.4615,4.4615,4.4615,4.4615,4.4615,4.4615,4.4615,4.4615,4.4615,4.4615,4.4615,4.4615,4.4615,4.4615,4.4615,4.4615,4.4615,4.4615,4.4615,4.4615,4.4615,4.4615,4.4615,4.4615,4.4615,3.2354,3.2103,3.1929,3.2266,3.1636,3.1073,3.1409,3.2019,3.2482,3.2512,3.3036,3.3499,3.3529,3.4038,3.4518,3.4533,3.507,0.0,0.0,3.5534,3.6177,3.7871,4.036,4.2397,4.3638,4.3713,4.3737,0.0,4.3359,4.3395,4.4197,4.4293,4.4395,4.457,4.3792,4.3031,4.2303,4.1542,4.0815,4.0146,4.0849,4.1221,4.1271,4.1965,4.1914,4.1238,4.1221,4.0781,4.013,4.0113,4.0096,4.0096,4.0096,4.0096,4.0096,4.0096,4.0096,4.0096,4.0096,4.0096,4.035,4.1813,4.2286,4.2574,4.4141,4.4615,4.4615,4.4615,4.4615,4.4615,4.4615,4.4615,4.4615,4.4615,4.4615,4.4615,4.4615,4.4615,4.4615,4.4615,4.4615,4.4615,4.4615,4.4615,4.4615,4.4615,4.4615,4.4615,4.4615,4.4615,4.4615,4.4615,4.4615,4.4615,4.4615,4.4615,4.4615,4.4615,4.4615,4.4615,4.4615,4.4615,4.4615,4.4615,4.4615,4.4615,4.4615,4.4615,4.4615,4.4615,4.4615,4.4615,0.0,0.0,3.3158,3.3337,0.0,3.2569,3.2781,3.3335,3.3814,3.3814,3.4352,3.4831,3.4831,3.5011,3.516,3.516,3.5355,3.5504,0.0,3.5504,3.5917,3.7023,3.8781,4.037,4.155,4.2311,4.2837,4.3086,4.3194,0.0,4.3692,4.4198,4.4542,4.4615,4.3826,4.3274,4.3031,4.1813,4.1068,4.0832,4.0578,4.046,4.0485,4.0739,4.0722,4.046,4.046,4.0333,4.0096,4.0096,4.0096,4.0096,4.0096,4.0096,4.0096,4.0096,4.0096,4.0096,4.0096,4.0096,4.035,4.1813,4.2286,4.2574,4.4141,4.4615,4.4615,4.4615,4.4615,4.4615,4.4615,4.4615,4.4615,4.4615,4.4615,4.4615,4.4615,4.4615,4.4615,4.4615,4.4615,4.4615,4.4615,4.4615,4.4615,4.4615,4.4615,4.4615,4.4615,4.4615,4.4615,4.4615,4.4615,4.4615,4.4615,4.4615,4.4615,4.4615,4.4615,4.4615,4.4615,4.4615,4.4615,4.4615,4.4615,4.4615,4.4615,4.4615,4.4615,4.4615,4.4615,4.484,3.4783,3.4574,0.0,3.4463,3.4085,0.0,3.3844,0.0,3.4578,3.4801,3.5385,3.5923,3.6148,3.5998,3.5848,3.5848,3.5654,3.5504,0.0,3.5504,3.5687,3.6207,3.7531,3.8887,4.0087,4.0931,4.1663,4.2304,4.2505,4.2743,0.0,0.0,4.4164,4.4164,4.3944,4.369,4.3392,4.2472,4.1728,4.1204,4.0713,4.0367,4.0096,4.0096,4.0096,4.0096,4.0096,4.0096,4.0096,4.0096,4.0096,4.0096,4.0096,4.0096,4.0096,4.0096,4.0096,4.0096,4.0096,4.0096,4.035,4.1813,4.2286,4.2574,4.4141,4.4615,4.4615,4.4615,4.4615,4.4615,4.4615,4.4615,4.4615,4.4615,4.4615,4.4615,4.4615,4.4615,4.4615,4.4615,4.4615,4.4615,4.4615,4.4615,4.4615,4.4615,4.4615,4.4615,4.4615,4.4615,4.4699,4.4942,4.4976,4.5094,4.5376,4.5128,4.4976,4.4976,4.475,4.4615,4.4615,4.4615,4.4615,4.4615,4.4615,4.4615,4.4615,4.4615,4.4615,4.4615,4.4615,4.5128]}]]